[[{"header":{"parameterUnit":"m.s-1","parameterCategory":1,"la1":31.0,"la2":29.5877,"lo1":-88.7671,"lo2":-86.6584,"dy":0.0162,"dx":0.0185,"nx":115,"ny":88,"refTime":"2026-03-10T12:00:00:Z","depth":0,"parameterNumber":2,"parameterNumberName":"U-component_of_WINDS"},"data":[0.0,0.0,0.0,0.0,0.0,0.0,0.0,0.0,0.0,0.0,0.0,0.0,0.0,0.0,0.0,0.0,0.0,0.0,0.0,0.0,0.0,0.0,0.0,0.0,0.0,0.0,0.0,0.0,0.0,0.0,0.0,0.0,0.0,0.0,0.0,0.0,0.0,0.0,0.0,0.0,0.0,0.0,0.0,0.0,0.0,0.0,0.0,0.0,0.0,0.0,0.0,0.0,0.0,0.0,0.0,0.0,0.0,0.0,0.0,0.0,0.0,0.0,0.0,0.0,0.0,0.0,0.0,0.0,0.0,0.0,0.0,0.0,0.0,0.0,0.0,0.0,0.0,0.0,0.0,0.0,0.0,0.0,0.0,0.0,0.0,0.0,0.0,0.0,0.0,0.0,0.0,0.0,0.0,0.0,0.0,0.0,0.0,0.0,0.0,0.0,0.0,0.0,0.0,0.0,0.0,0.0,0.0,0.0,0.0,0.0,0.0,0.0,0.0,0.0,0.0,0.0,0.0,0.0,0.0,0.0,0.0,0.0,0.0,0.0,0.0,0.0,0.0,0.0,0.0,0.0,0.0,0.0,0.0,0.0,0.0,0.0,0.0,0.0,0.0,0.0,0.0,0.0,0.0,0.0,0.0,0.0,0.0,0.0,0.0,0.0,0.0,0.0,0.0,0.0,0.0,0.0,0.0,0.0,0.0,0.0,0.0,0.0,0.0,0.0,0.0,0.0,0.0,0.0,0.0,0.0,0.0,0.0,0.0,0.0,0.0,0.0,0.0,0.0,0.0,0.0,0.0,0.0,0.0,0.0,0.0,0.0,0.0,0.0,0.0,0.0,0.0,0.0,0.0,0.0,0.0,0.0,0.0,0.0,0.0,0.0,0.0,0.0,0.0,0.0,0.0,0.0,0.0,0.0,0.0,0.0,0.0,0.0,0.0,0.0,0.0,0.0,0.0,0.0,0.0,0.0,0.0,0.0,0.0,0.0,0.0,0.0,0.0,0.0,0.0,0.0,0.0,0.0,0.0,0.0,0.0,0.0,0.0,0.0,0.0,0.0,0.0,0.0,0.0,0.0,0.0,0.0,0.0,0.0,0.0,0.0,0.0,0.0,0.0,0.0,0.0,0.0,0.0,0.0,0.0,0.0,0.0,0.0,0.0,0.0,0.0,0.0,0.0,0.0,0.0,0.0,0.0,0.0,0.0,0.0,0.0,0.0,0.0,0.0,0.0,0.0,0.0,0.0,0.0,0.0,0.0,0.0,0.0,0.0,0.0,0.0,0.0,0.0,0.0,0.0,0.0,0.0,0.0,0.0,0.0,0.0,0.0,0.0,0.0,0.0,0.0,0.0,0.0,0.0,0.0,0.0,0.0,0.0,0.0,0.0,0.0,0.0,0.0,0.0,0.0,0.0,0.0,0.0,0.0,0.0,0.0,0.0,0.0,0.0,0.0,0.0,0.0,0.0,0.0,0.0,0.0,0.0,0.0,0.0,0.0,0.0,0.0,0.0,0.0,0.0,0.0,0.0,0.0,0.0,0.0,0.0,0.0,0.0,0.0,0.0,0.0,0.0,0.0,0.0,0.0,0.0,0.0,0.0,0.0,0.0,0.0,0.0,0.0,0.0,0.0,0.0,0.0,0.0,0.0,0.0,0.0,0.0,0.0,0.0,0.0,0.0,0.0,0.0,0.0,0.0,0.0,0.0,0.0,0.0,0.0,0.0,0.0,0.0,0.0,0.0,0.0,0.0,0.0,0.0,0.0,0.0,0.0,0.0,0.0,0.0,0.0,0.0,0.0,0.0,0.0,0.0,0.0,0.0,0.0,0.0,0.0,0.0,0.0,0.0,0.0,0.0,0.0,0.0,0.0,0.0,0.0,0.0,0.0,0.0,0.0,0.0,0.0,0.0,0.0,0.0,0.0,0.0,0.0,0.0,0.0,0.0,0.0,0.0,0.0,0.0,0.0,0.0,0.0,0.0,0.0,0.0,0.0,0.0,0.0,0.0,0.0,0.0,0.0,0.0,0.0,0.0,0.0,0.0,0.0,0.0,0.0,0.0,0.0,0.0,0.0,0.0,0.0,0.0,0.0,0.0,0.0,0.0,0.0,0.0,0.0,0.0,0.0,0.0,0.0,0.0,0.0,0.0,0.0,0.0,0.0,0.0,0.0,0.0,0.0,0.0,0.0,0.0,0.0,0.0,0.0,0.0,0.0,0.0,0.0,0.0,0.0,0.0,0.0,0.0,0.0,0.0,0.0,0.0,0.0,0.0,0.0,0.0,0.0,0.0,0.0,0.0,0.0,0.0,0.0,0.0,0.0,0.0,0.0,0.0,0.0,0.0,0.0,0.0,0.0,0.0,0.0,0.0,0.0,0.0,0.0,0.0,0.0,0.0,0.0,0.0,0.0,0.0,0.0,0.0,0.0,0.0,0.0,0.0,0.0,0.0,0.0,0.0,0.0,0.0,0.0,0.0,0.0,0.0,0.0,0.0,0.0,0.0,0.0,0.0,0.0,0.0,0.0,0.0,0.0,0.0,0.0,0.0,0.0,0.0,0.0,0.0,0.0,0.0,0.0,0.0,0.0,0.0,0.0,0.0,0.0,0.0,0.0,0.0,0.0,0.0,0.0,0.0,0.0,0.0,0.0,0.0,0.0,0.0,0.0,0.0,0.0,0.0,0.0,0.0,0.0,0.0,0.0,0.0,0.0,0.0,0.0,0.0,0.0,0.0,0.0,0.0,0.0,0.0,0.0,0.0,0.0,0.0,0.0,0.0,0.0,0.0,0.0,0.0,0.0,0.0,0.0,0.0,0.0,0.0,0.0,0.0,0.0,0.0,0.0,0.0,0.0,0.0,0.0,0.0,0.0,0.0,0.0,0.0,0.0,0.0,0.0,0.0,0.0,0.0,0.0,0.0,0.0,0.0,0.0,0.0,0.0,0.0,0.0,0.0,0.0,0.0,0.0,0.0,0.0,0.0,0.0,0.0,0.0,0.0,0.0,0.0,0.0,0.0,0.0,0.0,0.0,0.0,0.0,0.0,0.0,0.0,0.0,0.0,0.0,0.0,0.0,0.0,0.0,0.0,0.0,0.0,0.0,0.0,0.0,0.0,0.0,0.0,0.0,0.0,0.0,0.0,0.0,0.0,0.0,0.0,0.0,0.0,0.0,0.0,0.0,0.0,0.0,0.0,0.0,0.0,0.0,0.0,0.0,0.0,0.0,0.0,0.0,0.0,0.0,0.0,0.0,0.0,0.0,0.0,0.0,0.0,0.0,0.0,0.0,0.0,0.0,0.0,0.0,0.0,0.0,0.0,0.0,0.0,0.0,0.0,0.0,0.0,0.0,0.0,0.0,0.0,0.0,0.0,0.0,0.0,0.0,0.0,0.0,0.0,0.0,0.0,0.0,0.0,0.0,0.0,0.0,0.0,0.0,0.0,0.0,0.0,0.0,0.0,0.0,0.0,0.0,0.0,0.0,0.0,0.0,0.0,0.0,0.0,0.0,0.0,0.0,0.0,0.0,0.0,0.0,0.0,0.0,0.0,0.0,0.0,0.0,0.0,0.0,0.0,0.0,0.0,0.0,0.0,0.0,0.0,0.0,0.0,0.0,0.0,0.0,0.0,0.0,0.0,0.0,0.0,0.0,0.0,0.0,0.0,0.0,0.0,0.0,0.0,0.0,0.0,0.0,0.0,0.0,0.0,0.0,0.0,0.0,0.0,0.0,0.0,0.0,0.0,0.0,0.0,0.0,0.0,0.0,0.0,0.0,0.0,0.0,0.0,0.0,0.0,0.0,0.0,0.0,0.0,0.0,0.0,0.0,0.0,0.0,0.0,0.0,0.0,0.0,0.0,0.0,0.0,0.0,0.0,0.0,0.0,0.0,0.0,0.0,0.0,0.0,0.0,0.0,0.0,0.0,0.0,0.0,0.0,0.0,0.0,0.0,0.0,0.0,0.0,0.0,0.0,0.0,0.0,0.0,0.0,0.0,0.0,0.0,0.0,0.0,0.0,0.0,0.0,0.0,0.0,0.0,0.0,0.0,0.0,0.0,0.0,0.0,0.0,0.0,0.0,0.0,0.0,0.0,0.0,0.0,0.0,0.0,0.0,0.0,0.0,0.0,0.0,0.0,0.0,0.0,0.0,0.0,0.0,0.0,0.0,0.0,0.0,0.0,0.0,0.0,0.0,0.0,0.0,0.0,0.0,0.0,0.0,0.0,0.0,0.0,0.0,0.0,0.0,0.0,0.0,0.0,0.0,0.0,0.0,4.1464,0.0,0.0,0.0,0.0,0.0,0.0,0.0,0.0,0.0,0.0,0.0,0.0,0.0,0.0,0.0,0.0,0.0,0.0,0.0,0.0,0.0,0.0,0.0,0.0,0.0,0.0,0.0,0.0,0.0,0.0,0.0,0.0,0.0,0.0,0.0,0.0,0.0,0.0,0.0,0.0,0.0,0.0,0.0,0.0,0.0,0.0,0.0,0.0,0.0,0.0,0.0,0.0,0.0,0.0,0.0,0.0,0.0,0.0,0.0,0.0,0.0,0.0,0.0,0.0,0.0,0.0,0.0,0.0,0.0,0.0,0.0,0.0,0.0,0.0,0.0,0.0,0.0,0.0,0.0,0.0,0.0,0.0,0.0,0.0,0.0,0.0,0.0,0.0,0.0,0.0,0.0,0.0,0.0,0.0,0.0,0.0,0.0,0.0,0.0,0.0,0.0,0.0,0.0,0.0,0.0,0.0,0.0,0.0,0.0,0.0,4.402,4.3982,4.3652,4.2876,4.1612,0.0,0.0,0.0,0.0,0.0,0.0,0.0,0.0,0.0,0.0,0.0,0.0,0.0,0.0,0.0,0.0,0.0,0.0,0.0,0.0,0.0,0.0,0.0,0.0,0.0,0.0,0.0,0.0,0.0,0.0,0.0,0.0,0.0,0.0,0.0,0.0,0.0,0.0,0.0,0.0,0.0,0.0,0.0,0.0,0.0,0.0,0.0,0.0,0.0,0.0,0.0,0.0,0.0,0.0,0.0,0.0,0.0,0.0,0.0,0.0,0.0,0.0,0.0,0.0,0.0,0.0,0.0,0.0,0.0,0.0,0.0,0.0,0.0,0.0,0.0,0.0,0.0,0.0,0.0,0.0,0.0,0.0,0.0,0.0,0.0,0.0,0.0,0.0,0.0,0.0,0.0,0.0,0.0,0.0,0.0,0.0,0.0,0.0,0.0,0.0,0.0,0.0,0.0,0.0,0.0,0.0,0.0,0.0,0.0,0.0,0.0,0.0,4.4577,4.3801,4.2207,0.0,0.0,0.0,0.0,0.0,0.0,0.0,0.0,0.0,0.0,0.0,0.0,0.0,0.0,0.0,0.0,0.0,0.0,0.0,0.0,0.0,0.0,0.0,0.0,0.0,0.0,0.0,0.0,0.0,0.0,0.0,0.0,0.0,0.0,0.0,0.0,0.0,0.0,0.0,0.0,0.0,0.0,0.0,0.0,0.0,0.0,0.0,0.0,0.0,0.0,0.0,0.0,0.0,0.0,0.0,0.0,0.0,0.0,0.0,0.0,0.0,0.0,0.0,0.0,0.0,0.0,0.0,0.0,0.0,0.0,0.0,0.0,0.0,0.0,0.0,0.0,0.0,0.0,0.0,0.0,0.0,0.0,0.0,0.0,0.0,0.0,0.0,0.0,0.0,0.0,0.0,0.0,0.0,0.0,0.0,0.0,0.0,0.0,0.0,0.0,0.0,0.0,0.0,0.0,0.0,0.0,0.0,0.0,0.0,0.0,4.4729,4.6215,4.6257,0.0,4.3875,0.0,0.0,0.0,0.0,0.0,0.0,0.0,0.0,0.0,0.0,0.0,0.0,0.0,0.0,0.0,0.0,0.0,0.0,0.0,0.0,0.0,0.0,0.0,0.0,0.0,0.0,0.0,0.0,0.0,0.0,0.0,0.0,0.0,0.0,0.0,0.0,0.0,0.0,0.0,0.0,0.0,0.0,0.0,0.0,0.0,0.0,0.0,0.0,0.0,0.0,0.0,0.0,0.0,0.0,0.0,0.0,0.0,0.0,0.0,0.0,0.0,0.0,0.0,0.0,0.0,0.0,0.0,0.0,0.0,0.0,0.0,0.0,0.0,0.0,0.0,0.0,0.0,0.0,0.0,0.0,0.0,0.0,0.0,0.0,0.0,0.0,0.0,0.0,0.0,0.0,0.0,0.0,0.0,0.0,0.0,0.0,0.0,0.0,0.0,0.0,0.0,0.0,0.0,0.0,0.0,0.0,0.0,0.0,0.0,0.0,4.5811,4.6475,4.5551,4.4692,0.0,0.0,0.0,0.0,0.0,0.0,0.0,0.0,0.0,0.0,0.0,0.0,0.0,0.0,0.0,0.0,0.0,0.0,0.0,0.0,0.0,0.0,0.0,0.0,0.0,0.0,0.0,0.0,0.0,0.0,0.0,0.0,0.0,0.0,0.0,0.0,0.0,0.0,0.0,0.0,0.0,0.0,0.0,0.0,0.0,0.0,0.0,0.0,0.0,0.0,0.0,0.0,0.0,0.0,0.0,0.0,0.0,0.0,0.0,0.0,0.0,0.0,0.0,0.0,0.0,0.0,0.0,0.0,0.0,0.0,0.0,0.0,0.0,0.0,0.0,0.0,0.0,0.0,0.0,0.0,0.0,0.0,0.0,0.0,0.0,0.0,0.0,0.0,0.0,0.0,0.0,0.0,0.0,0.0,0.0,0.0,0.0,0.0,0.0,0.0,0.0,0.0,0.0,0.0,0.0,0.0,0.0,0.0,0.0,0.0,4.6104,0.0,4.6777,4.5877,4.4614,4.3061,0.0,0.0,0.0,0.0,0.0,0.0,0.0,0.0,0.0,0.0,0.0,0.0,0.0,0.0,0.0,0.0,0.0,0.0,0.0,0.0,0.0,0.0,0.0,0.0,0.0,0.0,0.0,0.0,0.0,0.0,0.0,0.0,0.0,0.0,0.0,0.0,0.0,0.0,0.0,0.0,0.0,0.0,0.0,0.0,0.0,0.0,0.0,0.0,0.0,0.0,0.0,0.0,0.0,0.0,0.0,0.0,0.0,0.0,0.0,0.0,0.0,0.0,0.0,0.0,0.0,0.0,0.0,0.0,0.0,0.0,0.0,0.0,0.0,0.0,0.0,0.0,0.0,0.0,0.0,0.0,0.0,0.0,0.0,0.0,0.0,0.0,0.0,0.0,0.0,0.0,0.0,0.0,0.0,0.0,0.0,0.0,0.0,0.0,0.0,0.0,0.0,0.0,0.0,0.0,0.0,0.0,0.0,0.0,0.0,4.7223,4.6888,4.7664,4.8291,4.6141,0.0,0.0,0.0,0.0,0.0,0.0,0.0,0.0,0.0,0.0,0.0,0.0,0.0,0.0,0.0,0.0,0.0,0.0,0.0,0.0,0.0,0.0,0.0,0.0,0.0,0.0,0.0,0.0,0.0,0.0,0.0,0.0,0.0,0.0,0.0,0.0,0.0,0.0,0.0,0.0,0.0,0.0,0.0,0.0,0.0,0.0,0.0,0.0,0.0,0.0,0.0,0.0,0.0,0.0,0.0,0.0,0.0,0.0,0.0,0.0,0.0,0.0,0.0,0.0,0.0,0.0,0.0,0.0,0.0,0.0,0.0,0.0,0.0,0.0,0.0,0.0,0.0,0.0,0.0,0.0,0.0,0.0,0.0,0.0,0.0,0.0,0.0,0.0,0.0,0.0,0.0,0.0,0.0,0.0,0.0,0.0,0.0,0.0,0.0,0.0,0.0,0.0,0.0,0.0,0.0,0.0,0.0,0.0,0.0,4.5732,4.6211,4.7668,4.9856,4.7293,4.5068,0.0,0.0,0.0,0.0,0.0,0.0,0.0,0.0,0.0,0.0,0.0,0.0,0.0,0.0,0.0,0.0,0.0,0.0,0.0,0.0,0.0,0.0,0.0,0.0,0.0,0.0,0.0,0.0,0.0,0.0,0.0,0.0,0.0,0.0,0.0,0.0,0.0,0.0,0.0,0.0,0.0,0.0,0.0,0.0,0.0,0.0,0.0,0.0,0.0,0.0,0.0,0.0,0.0,0.0,0.0,0.0,0.0,0.0,0.0,0.0,0.0,0.0,0.0,0.0,0.0,0.0,0.0,0.0,0.0,0.0,0.0,0.0,0.0,0.0,0.0,0.0,0.0,0.0,0.0,0.0,0.0,0.0,0.0,0.0,0.0,0.0,0.0,0.0,0.0,0.0,0.0,0.0,0.0,0.0,0.0,0.0,0.0,0.0,0.0,0.0,0.0,0.0,0.0,0.0,0.0,0.0,0.0,0.0,0.0,4.5584,0.0,4.8779,0.0,4.6958,4.4362,0.0,0.0,0.0,0.0,0.0,0.0,0.0,0.0,0.0,0.0,0.0,0.0,0.0,0.0,0.0,0.0,0.0,0.0,0.0,0.0,0.0,0.0,0.0,0.0,0.0,0.0,0.0,0.0,0.0,0.0,0.0,0.0,0.0,0.0,0.0,0.0,0.0,0.0,0.0,0.0,0.0,0.0,0.0,0.0,0.0,0.0,0.0,0.0,0.0,0.0,0.0,0.0,0.0,0.0,0.0,0.0,0.0,0.0,0.0,0.0,0.0,0.0,0.0,0.0,0.0,0.0,0.0,0.0,0.0,0.0,0.0,0.0,0.0,0.0,0.0,0.0,0.0,0.0,0.0,0.0,0.0,0.0,0.0,0.0,0.0,0.0,0.0,0.0,0.0,0.0,0.0,0.0,0.0,0.0,0.0,0.0,0.0,0.0,0.0,0.0,0.0,0.0,0.0,0.0,0.0,0.0,0.0,0.0,4.5621,4.8704,5.0376,5.019,4.7924,4.7664,4.4246,0.0,0.0,0.0,0.0,0.0,0.0,0.0,0.0,0.0,0.0,0.0,0.0,0.0,0.0,0.0,0.0,0.0,0.0,0.0,0.0,0.0,0.0,0.0,0.0,0.0,0.0,0.0,0.0,0.0,0.0,0.0,0.0,0.0,0.0,0.0,0.0,0.0,0.0,0.0,0.0,0.0,0.0,0.0,0.0,0.0,0.0,0.0,0.0,0.0,0.0,0.0,0.0,0.0,0.0,0.0,0.0,0.0,0.0,0.0,0.0,0.0,0.0,0.0,0.0,0.0,0.0,0.0,0.0,0.0,0.0,0.0,0.0,0.0,0.0,0.0,0.0,0.0,0.0,0.0,0.0,0.0,0.0,0.0,0.0,0.0,0.0,0.0,0.0,0.0,0.0,0.0,0.0,0.0,0.0,0.0,0.0,0.0,0.0,0.0,0.0,0.0,0.0,0.0,0.0,0.0,0.0,0.0,0.0,0.0,4.7293,4.9373,5.0966,5.1751,4.811,4.5513,0.0,0.0,0.0,0.0,0.0,0.0,0.0,0.0,0.0,0.0,0.0,0.0,0.0,0.0,0.0,0.0,0.0,0.0,0.0,0.0,0.0,0.0,0.0,0.0,0.0,0.0,0.0,0.0,0.0,0.0,0.0,0.0,0.0,0.0,0.0,0.0,0.0,0.0,0.0,0.0,0.0,0.0,0.0,0.0,0.0,0.0,0.0,0.0,0.0,0.0,0.0,0.0,0.0,0.0,0.0,0.0,0.0,0.0,0.0,0.0,0.0,0.0,0.0,0.0,0.0,0.0,0.0,0.0,0.0,0.0,0.0,0.0,0.0,0.0,0.0,0.0,0.0,0.0,0.0,0.0,0.0,0.0,0.0,0.0,0.0,0.0,0.0,0.0,0.0,0.0,0.0,0.0,0.0,0.0,0.0,0.0,0.0,0.0,0.0,0.0,0.0,0.0,0.0,0.0,0.0,0.0,0.0,0.0,0.0,5.1193,5.3125,5.4532,5.5164,5.0822,4.7776,4.629,0.0,0.0,0.0,0.0,0.0,0.0,0.0,0.0,0.0,0.0,0.0,0.0,0.0,0.0,0.0,0.0,0.0,0.0,0.0,0.0,0.0,0.0,0.0,0.0,0.0,0.0,0.0,0.0,0.0,0.0,0.0,0.0,0.0,0.0,0.0,0.0,0.0,0.0,0.0,0.0,0.0,0.0,0.0,0.0,0.0,0.0,0.0,0.0,0.0,0.0,0.0,0.0,0.0,0.0,0.0,0.0,0.0,0.0,0.0,0.0,0.0,0.0,0.0,0.0,0.0,0.0,0.0,0.0,0.0,0.0,0.0,0.0,0.0,0.0,0.0,0.0,0.0,0.0,0.0,0.0,0.0,0.0,0.0,0.0,0.0,0.0,0.0,0.0,0.0,0.0,0.0,0.0,0.0,0.0,0.0,0.0,0.0,0.0,0.0,0.0,0.0,0.0,0.0,0.0,0.0,0.0,0.0,0.0,5.899,6.1033,6.0927,5.8433,5.5572,5.1152,0.0,0.0,0.0,0.0,0.0,0.0,0.0,0.0,0.0,0.0,0.0,0.0,0.0,0.0,0.0,0.0,0.0,0.0,0.0,0.0,0.0,0.0,0.0,0.0,0.0,0.0,0.0,0.0,0.0,0.0,0.0,0.0,0.0,0.0,0.0,0.0,0.0,0.0,0.0,0.0,0.0,0.0,0.0,0.0,0.0,0.0,0.0,0.0,0.0,0.0,0.0,0.0,0.0,0.0,0.0,0.0,0.0,0.0,0.0,0.0,0.0,0.0,0.0,0.0,0.0,0.0,0.0,0.0,0.0,0.0,0.0,0.0,0.0,0.0,0.0,0.0,0.0,0.0,0.0,0.0,0.0,0.0,0.0,0.0,0.0,0.0,0.0,0.0,0.0,0.0,0.0,0.0,0.0,0.0,0.0,0.0,0.0,0.0,0.0,0.0,0.0,0.0,0.0,0.0,0.0,0.0,0.0,0.0,0.0,6.3219,6.9589,7.118,6.741,6.0922,5.6055,0.0,0.0,0.0,0.0,0.0,0.0,0.0,0.0,0.0,0.0,0.0,0.0,0.0,0.0,0.0,0.0,0.0,0.0,0.0,0.0,0.0,0.0,0.0,0.0,0.0,0.0,0.0,0.0,0.0,0.0,0.0,0.0,0.0,0.0,0.0,0.0,0.0,0.0,0.0,0.0,0.0,0.0,0.0,0.0,0.0,0.0,0.0,0.0,0.0,0.0,0.0,0.0,0.0,0.0,0.0,0.0,0.0,0.0,0.0,0.0,0.0,0.0,0.0,0.0,0.0,0.0,0.0,0.0,0.0,0.0,0.0,0.0,0.0,0.0,0.0,0.0,0.0,0.0,0.0,0.0,0.0,0.0,0.0,0.0,0.0,0.0,0.0,0.0,0.0,0.0,0.0,0.0,0.0,0.0,0.0,0.0,0.0,0.0,0.0,0.0,0.0,0.0,0.0,0.0,0.0,0.0,0.0,0.0,6.263,6.7874,7.6611,8.0022,7.7638,6.8642,6.1436,0.0,0.0,0.0,0.0,0.0,0.0,0.0,0.0,0.0,0.0,0.0,0.0,0.0,0.0,0.0,0.0,0.0,0.0,0.0,0.0,0.0,0.0,0.0,0.0,0.0,0.0,0.0,0.0,0.0,0.0,0.0,0.0,0.0,0.0,0.0,0.0,0.0,0.0,0.0,0.0,0.0,0.0,0.0,0.0,0.0,0.0,0.0,0.0,0.0,0.0,0.0,0.0,0.0,0.0,0.0,0.0,0.0,0.0,0.0,0.0,0.0,0.0,0.0,0.0,0.0,0.0,0.0,0.0,0.0,0.0,0.0,0.0,0.0,0.0,0.0,0.0,0.0,0.0,0.0,0.0,0.0,0.0,0.0,0.0,0.0,0.0,0.0,0.0,0.0,0.0,0.0,0.0,0.0,0.0,0.0,0.0,0.0,0.0,0.0,0.0,0.0,0.0,0.0,0.0,0.0,0.0,0.0,0.0,6.6865,7.2791,8.2073,8.6932,8.6635,7.6598,6.6636,0.0,0.0,0.0,0.0,0.0,0.0,0.0,0.0,0.0,0.0,0.0,0.0,0.0,0.0,0.0,0.0,0.0,0.0,0.0,0.0,0.0,0.0,0.0,0.0,0.0,0.0,0.0,0.0,0.0,0.0,0.0,0.0,0.0,0.0,0.0,0.0,0.0,0.0,0.0,0.0,0.0,0.0,0.0,0.0,0.0,0.0,0.0,0.0,0.0,0.0,0.0,0.0,0.0,0.0,0.0,0.0,0.0,0.0,0.0,0.0,0.0,0.0,0.0,0.0,0.0,0.0,0.0,0.0,0.0,0.0,0.0,0.0,0.0,0.0,0.0,0.0,0.0,0.0,0.0,0.0,0.0,0.0,0.0,0.0,0.0,0.0,0.0,0.0,0.0,0.0,0.0,0.0,0.0,0.0,0.0,0.0,0.0,0.0,0.0,0.0,0.0,0.0,0.0,0.0,0.0,0.0,0.0,0.0,6.9911,7.6915,8.4079,8.7832,8.7795,7.7503,6.8846,0.0,0.0,0.0,0.0,0.0,0.0,0.0,0.0,0.0,0.0,0.0,0.0,0.0,0.0,0.0,0.0,0.0,0.0,0.0,0.0,0.0,0.0,0.0,0.0,0.0,0.0,0.0,0.0,0.0,0.0,0.0,0.0,0.0,0.0,0.0,0.0,0.0,0.0,0.0,0.0,0.0,0.0,0.0,0.0,0.0,0.0,0.0,0.0,4.4399,0.0,0.0,0.0,0.0,0.0,0.0,0.0,0.0,0.0,0.0,0.0,0.0,0.0,0.0,0.0,0.0,0.0,0.0,0.0,0.0,0.0,0.0,0.0,0.0,0.0,0.0,0.0,0.0,0.0,0.0,0.0,0.0,0.0,0.0,0.0,0.0,0.0,0.0,0.0,0.0,0.0,0.0,0.0,0.0,0.0,0.0,0.0,0.0,0.0,0.0,0.0,0.0,0.0,0.0,0.0,0.0,0.0,0.0,0.0,7.2586,7.9881,8.642,8.9575,8.8873,8.1036,7.2892,0.0,0.0,0.0,0.0,0.0,0.0,0.0,0.0,0.0,0.0,0.0,0.0,0.0,0.0,0.0,0.0,0.0,0.0,0.0,0.0,0.0,0.0,0.0,0.0,0.0,0.0,0.0,0.0,0.0,0.0,0.0,0.0,0.0,0.0,0.0,0.0,0.0,0.0,0.0,0.0,0.0,0.0,0.0,0.0,0.0,0.0,0.0,0.0,0.0,0.0,0.0,0.0,0.0,0.0,0.0,0.0,0.0,0.0,0.0,0.0,0.0,0.0,0.0,0.0,0.0,0.0,0.0,0.0,0.0,0.0,0.0,0.0,0.0,0.0,0.0,0.0,0.0,0.0,0.0,0.0,0.0,0.0,0.0,0.0,0.0,0.0,0.0,0.0,0.0,0.0,0.0,0.0,0.0,0.0,0.0,0.0,0.0,0.0,0.0,0.0,0.0,0.0,0.0,0.0,0.0,0.0,0.0,6.611,7.474,8.2927,8.8729,9.1247,9.0247,8.4838,7.6989,6.678,0.0,0.0,0.0,0.0,0.0,0.0,0.0,0.0,0.0,0.0,0.0,0.0,0.0,0.0,0.0,0.0,0.0,0.0,0.0,0.0,0.0,0.0,0.0,0.0,0.0,0.0,0.0,0.0,0.0,0.0,0.0,0.0,0.0,0.0,0.0,0.0,0.0,0.0,4.0643,4.3206,0.0,0.0,0.0,0.0,0.0,0.0,0.0,0.0,4.5328,0.0,0.0,0.0,0.0,0.0,0.0,0.0,0.0,0.0,0.0,0.0,0.0,0.0,0.0,0.0,0.0,0.0,0.0,0.0,0.0,0.0,0.0,0.0,0.0,0.0,0.0,0.0,0.0,0.0,0.0,0.0,0.0,0.0,0.0,0.0,0.0,0.0,0.0,0.0,0.0,0.0,0.0,0.0,0.0,0.0,0.0,0.0,0.0,0.0,0.0,0.0,0.0,0.0,0.0,0.0,0.0,6.6079,6.8673,7.578,8.7757,9.0353,9.1124,9.021,8.5378,7.8037,6.8253,0.0,0.0,0.0,0.0,0.0,0.0,0.0,0.0,0.0,0.0,0.0,0.0,0.0,0.0,0.0,0.0,0.0,0.0,0.0,0.0,0.0,0.0,0.0,0.0,0.0,0.0,0.0,0.0,0.0,0.0,0.0,0.0,0.0,0.0,0.0,0.0,0.0,0.0,0.0,4.8774,4.9852,0.0,0.0,0.0,0.0,0.0,0.0,0.0,0.0,4.7074,0.0,0.0,0.0,0.0,0.0,0.0,0.0,0.0,0.0,0.0,0.0,0.0,0.0,0.0,0.0,0.0,0.0,0.0,0.0,0.0,0.0,0.0,0.0,0.0,0.0,0.0,0.0,0.0,0.0,0.0,0.0,0.0,0.0,0.0,0.0,0.0,0.0,0.0,0.0,0.0,0.0,0.0,0.0,0.0,0.0,0.0,0.0,0.0,0.0,0.0,0.0,0.0,0.0,0.0,0.0,6.559,7.2124,7.9812,8.8804,9.1012,9.1321,8.9906,8.359,7.6123,0.0,0.0,0.0,0.0,0.0,0.0,0.0,0.0,0.0,0.0,0.0,0.0,0.0,0.0,0.0,0.0,0.0,0.0,0.0,0.0,0.0,0.0,0.0,0.0,0.0,0.0,0.0,0.0,0.0,0.0,0.0,0.0,0.0,0.0,0.0,0.0,0.0,0.0,0.0,0.0,5.1486,5.3381,5.717,0.0,0.0,0.0,0.0,0.0,0.0,4.9554,4.8551,0.0,0.0,0.0,0.0,0.0,0.0,0.0,0.0,0.0,0.0,0.0,0.0,0.0,0.0,0.0,0.0,0.0,0.0,0.0,0.0,0.0,0.0,0.0,0.0,0.0,0.0,0.0,0.0,0.0,0.0,0.0,0.0,0.0,0.0,0.0,0.0,0.0,0.0,0.0,0.0,0.0,0.0,0.0,0.0,0.0,0.0,0.0,0.0,0.0,0.0,0.0,0.0,0.0,0.0,0.0,6.4096,7.4384,8.2806,8.8951,9.1262,9.1485,8.9613,8.2005,7.4278,0.0,0.0,0.0,0.0,0.0,0.0,0.0,0.0,0.0,0.0,0.0,0.0,0.0,0.0,0.0,0.0,0.0,0.0,0.0,0.0,0.0,0.0,0.0,0.0,0.0,0.0,0.0,0.0,0.0,0.0,0.0,0.0,0.0,0.0,0.0,0.0,0.0,0.0,0.0,0.0,0.0,5.7276,6.1256,5.7281,0.0,0.0,0.0,0.0,5.1556,5.2861,0.0,0.0,0.0,0.0,0.0,0.0,0.0,0.0,0.0,0.0,0.0,0.0,0.0,0.0,0.0,0.0,0.0,0.0,0.0,0.0,0.0,0.0,0.0,0.0,0.0,0.0,0.0,0.0,0.0,0.0,0.0,0.0,0.0,0.0,0.0,0.0,0.0,0.0,0.0,0.0,0.0,0.0,0.0,0.0,0.0,0.0,0.0,0.0,0.0,0.0,0.0,0.0,0.0,0.0,0.0,0.0,6.5383,7.3104,8.1226,8.9435,9.1367,9.1345,8.9687,8.2547,7.4852,0.0,0.0,0.0,0.0,0.0,0.0,0.0,0.0,0.0,0.0,0.0,0.0,0.0,0.0,0.0,0.0,0.0,0.0,0.0,0.0,0.0,0.0,0.0,0.0,0.0,0.0,0.0,0.0,0.0,0.0,0.0,0.0,0.0,0.0,0.0,0.0,0.0,0.0,0.0,0.0,0.0,6.1919,6.0396,5.8947,5.7435,0.0,0.0,5.8316,6.0513,6.3962,0.0,0.0,0.0,0.0,0.0,0.0,0.0,0.0,0.0,0.0,0.0,0.0,0.0,0.0,0.0,0.0,0.0,0.0,0.0,0.0,0.0,0.0,0.0,0.0,0.0,0.0,0.0,0.0,0.0,0.0,0.0,0.0,0.0,0.0,0.0,0.0,0.0,0.0,0.0,0.0,0.0,0.0,0.0,0.0,0.0,0.0,0.0,0.0,0.0,0.0,0.0,0.0,0.0,0.0,0.0,5.8995,6.6464,7.6648,8.4735,9.0281,9.144,9.1158,8.9532,8.027,7.2288,0.0,0.0,0.0,0.0,0.0,0.0,0.0,0.0,0.0,0.0,0.0,0.0,0.0,0.0,0.0,0.0,0.0,0.0,0.0,0.0,0.0,0.0,0.0,0.0,0.0,0.0,0.0,0.0,0.0,0.0,0.0,0.0,0.0,0.0,0.0,0.0,0.0,0.0,0.0,0.0,0.0,0.0,6.4668,6.4476,0.0,0.0,0.0,6.2582,6.185,0.0,0.0,0.0,0.0,0.0,0.0,0.0,0.0,0.0,0.0,0.0,0.0,0.0,0.0,0.0,0.0,0.0,0.0,0.0,0.0,0.0,0.0,0.0,0.0,0.0,0.0,0.0,0.0,0.0,0.0,0.0,0.0,0.0,0.0,0.0,0.0,0.0,0.0,0.0,0.0,0.0,0.0,0.0,0.0,0.0,0.0,0.0,0.0,0.0,0.0,0.0,0.0,0.0,0.0,0.0,0.0,0.0,6.6936,7.9446,8.7616,9.1018,9.1554,9.1253,8.9886,8.0013,0.0,0.0,0.0,0.0,0.0,0.0,0.0,0.0,0.0,0.0,0.0,0.0,0.0,0.0,0.0,0.0,0.0,0.0,0.0,0.0,0.0,0.0,0.0,0.0,0.0,0.0,0.0,3.0849,0.0,0.0,0.0,0.0,0.0,0.0,0.0,0.0,0.0,0.0,0.0,0.0,0.0,0.0,6.5336,6.7565,6.8753,6.9348,0.0,0.0,6.6822,6.5682,7.0283,7.0054,0.0,0.0,0.0,0.0,0.0,0.0,0.0,0.0,0.0,0.0,0.0,0.0,0.0,0.0,0.0,0.0,0.0,0.0,0.0,0.0,0.0,0.0,0.0,0.0,0.0,0.0,0.0,0.0,0.0,0.0,0.0,0.0,0.0,0.0,0.0,0.0,0.0,0.0,0.0,0.0,0.0,0.0,0.0,0.0,0.0,0.0,0.0,0.0,0.0,0.0,0.0,0.0,0.0,0.0,0.0,6.6853,7.9283,8.7755,9.1565,9.1776,9.1776,9.1592,8.4389,7.6012,0.0,0.0,0.0,0.0,0.0,0.0,0.0,0.0,0.0,0.0,0.0,0.0,0.0,0.0,0.0,0.0,0.0,0.0,0.0,0.0,0.0,0.0,0.0,0.0,0.0,0.0,0.0,0.0,0.0,0.0,0.0,0.0,0.0,0.0,0.0,0.0,0.0,0.0,0.0,0.0,0.0,6.6859,6.6265,6.949,7.3254,0.0,0.0,7.2059,7.6425,8.1813,8.0245,6.4451,0.0,0.0,0.0,0.0,0.0,0.0,0.0,0.0,0.0,0.0,0.0,0.0,0.0,0.0,0.0,0.0,0.0,0.0,0.0,0.0,0.0,0.0,0.0,0.0,0.0,0.0,0.0,0.0,0.0,0.0,0.0,0.0,0.0,0.0,0.0,0.0,0.0,0.0,0.0,0.0,0.0,0.0,0.0,0.0,0.0,0.0,0.0,0.0,0.0,0.0,0.0,0.0,0.0,6.2377,6.7343,8.0485,8.9014,9.2427,9.3088,9.284,9.1849,8.5738,7.7921,0.0,0.0,0.0,0.0,0.0,0.0,0.0,0.0,0.0,0.0,0.0,0.0,0.0,0.0,0.0,0.0,0.0,0.0,0.0,0.0,0.0,0.0,0.0,0.0,0.0,0.0,0.0,0.0,4.1876,4.1653,3.8934,0.0,0.0,0.0,0.0,0.0,0.0,0.0,0.0,0.0,0.0,6.8982,7.3632,7.6567,0.0,0.0,7.8499,7.705,7.7473,7.8922,7.6017,6.4302,5.9436,0.0,0.0,0.0,0.0,0.0,0.0,0.0,0.0,0.0,0.0,0.0,0.0,0.0,0.0,0.0,0.0,0.0,0.0,0.0,0.0,0.0,0.0,0.0,0.0,0.0,0.0,0.0,0.0,0.0,0.0,0.0,0.0,0.0,0.0,0.0,0.0,0.0,0.0,0.0,0.0,0.0,0.0,0.0,0.0,0.0,0.0,0.0,0.0,0.0,0.0,0.0,0.0,6.2805,6.77,8.124,8.9895,9.3418,9.3734,9.3422,9.2446,8.6975,7.9817,0.0,0.0,0.0,0.0,0.0,0.0,0.0,0.0,0.0,0.0,0.0,0.0,0.0,0.0,0.0,0.0,0.0,0.0,0.0,0.0,0.0,0.0,0.0,0.0,0.0,0.0,0.0,0.0,4.477,4.3544,3.8904,0.0,0.0,0.0,0.0,0.0,0.0,0.0,0.0,0.0,0.0,7.1812,7.7243,7.9658,8.0891,8.0891,7.8915,7.7236,7.6804,7.6176,7.2838,6.443,0.0,0.0,0.0,0.0,0.0,0.0,0.0,0.0,0.0,0.0,0.0,0.0,0.0,0.0,0.0,0.0,0.0,0.0,0.0,0.0,0.0,0.0,0.0,0.0,0.0,0.0,0.0,0.0,0.0,0.0,3.8287,0.0,0.0,0.0,0.0,0.0,0.0,0.0,0.0,0.0,0.0,0.0,0.0,0.0,0.0,0.0,0.0,0.0,0.0,0.0,0.0,0.0,0.0,6.2786,6.7767,8.1183,9.0116,9.4023,9.3343,9.3283,9.3967,8.8476,8.202,7.4777,0.0,0.0,0.0,0.0,0.0,0.0,0.0,0.0,0.0,0.0,0.0,0.0,0.0,0.0,0.0,0.0,0.0,0.0,0.0,0.0,0.0,0.0,0.0,0.0,0.0,0.0,4.0579,4.195,4.1315,0.0,0.0,0.0,0.0,0.0,0.0,0.0,0.0,0.0,0.0,6.7434,7.5355,7.4865,7.6841,7.858,7.858,7.3842,7.1465,7.5335,7.5642,7.307,0.0,0.0,0.0,0.0,0.0,0.0,0.0,0.0,0.0,0.0,0.0,0.0,0.0,0.0,0.0,0.0,0.0,0.0,0.0,0.0,0.0,0.0,0.0,0.0,0.0,0.0,0.0,4.7164,4.5734,0.0,0.0,0.0,0.0,0.0,0.0,0.0,0.0,0.0,0.0,0.0,5.5871,5.7689,0.0,0.0,0.0,0.0,0.0,0.0,0.0,0.0,0.0,0.0,0.0,0.0,6.1955,6.7882,8.0524,8.8895,9.2247,9.3089,9.3114,9.2381,8.9385,8.2481,7.117,0.0,0.0,0.0,0.0,0.0,0.0,0.0,0.0,0.0,0.0,0.0,0.0,0.0,0.0,0.0,0.0,0.0,0.0,0.0,0.0,0.0,0.0,0.0,0.0,0.0,4.1683,0.0,0.0,0.0,0.0,0.0,0.0,0.0,0.0,0.0,0.0,0.0,5.4012,6.1028,6.7162,7.2226,7.5649,7.7749,7.9865,0.0,0.0,0.0,0.0,0.0,0.0,0.0,0.0,0.0,0.0,0.0,0.0,0.0,0.0,6.3162,5.1507,5.0652,5.1806,5.2016,0.0,0.0,0.0,0.0,0.0,0.0,0.0,0.0,0.0,0.0,0.0,0.0,0.0,0.0,5.213,0.0,5.0345,0.0,0.0,0.0,0.0,0.0,0.0,0.0,0.0,5.8045,6.1545,6.3173,6.4978,6.4777,0.0,6.0932,5.5326,0.0,0.0,0.0,0.0,0.0,0.0,0.0,0.0,6.197,6.8219,8.008,8.7736,9.0509,9.1835,9.2001,9.0997,8.8385,8.1764,7.0902,6.4112,5.7754,0.0,0.0,0.0,0.0,0.0,0.0,0.0,0.0,0.0,0.0,0.0,0.0,0.0,0.0,0.0,0.0,0.0,0.0,0.0,0.0,0.0,0.0,0.0,4.4808,0.0,0.0,0.0,0.0,0.0,0.0,0.0,0.0,0.0,4.8399,5.3534,5.9786,6.6385,7.038,7.3383,7.5283,0.0,0.0,0.0,0.0,0.0,0.0,0.0,6.8939,6.6529,6.5771,6.5917,6.7397,7.1321,7.3544,7.1418,0.0,0.0,6.0759,5.9716,6.0808,6.1042,6.2579,6.3887,6.4045,6.6106,6.7817,0.0,0.0,0.0,0.0,0.0,0.0,0.0,0.0,5.6901,5.6512,0.0,5.5973,0.0,0.0,0.0,0.0,0.0,5.2965,0.0,0.0,6.7993,7.1823,7.043,7.1287,7.1001,6.9587,6.87,6.5215,5.9253,5.2061,0.0,0.0,0.0,0.0,0.0,0.0,6.2862,6.9211,7.9951,8.6698,8.8995,8.9705,9.0035,9.008,8.5609,8.0308,7.4208,6.9991,6.4607,5.7711,5.1955,0.0,0.0,0.0,0.0,0.0,0.0,0.0,0.0,0.0,0.0,0.0,0.0,0.0,0.0,0.0,0.0,0.0,0.0,0.0,0.0,4.7474,0.0,0.0,0.0,0.0,0.0,0.0,0.0,0.0,0.0,0.0,5.4739,6.1123,6.7511,7.1192,0.0,0.0,0.0,0.0,7.7318,7.3045,7.1451,7.1333,7.23,7.3974,7.4948,7.4183,0.0,0.0,7.7213,7.7327,7.709,7.3956,7.7436,7.8608,7.3934,7.1593,7.0332,6.95,7.016,7.0303,6.9774,7.2842,7.4989,6.6591,0.0,0.0,0.0,0.0,5.9469,6.2794,6.7963,6.7409,6.6292,6.4819,6.3249,0.0,0.0,0.0,0.0,0.0,0.0,6.1114,6.5375,6.9627,7.3105,7.6026,7.6818,7.6695,7.5775,7.443,7.2084,6.8734,6.4964,5.7003,4.531,0.0,0.0,0.0,0.0,6.4891,7.145,8.0013,8.5309,8.711,8.8371,8.874,8.8236,8.482,8.1354,7.797,7.5107,7.0342,6.3374,5.9538,0.0,0.0,0.0,0.0,0.0,0.0,0.0,0.0,0.0,0.0,0.0,0.0,0.0,0.0,0.0,0.0,0.0,0.0,0.0,4.4956,4.804,4.8291,0.0,0.0,0.0,0.0,0.0,0.0,0.0,0.0,0.0,6.6131,6.6562,6.7487,0.0,0.0,7.1948,7.0411,7.4136,7.7775,7.9742,7.9367,0.0,8.2218,8.0255,7.857,7.8901,8.2982,8.6012,8.5699,8.7131,8.8122,8.7184,8.715,8.6679,8.5479,8.26,8.0021,7.8657,7.9711,8.0984,8.089,8.2538,8.4022,7.7292,7.036,6.561,6.4885,6.6955,6.7275,7.0301,7.4923,7.443,7.3426,7.2067,7.066,6.643,6.019,5.7733,0.0,0.0,0.0,6.651,7.1774,7.3594,7.6461,8.0086,8.0936,8.0902,8.0155,7.8936,7.7327,7.5372,7.2485,6.5886,5.5839,0.0,0.0,5.4852,6.1682,6.787,7.3372,8.0075,8.4178,8.5385,8.688,8.7329,8.6501,8.4454,8.2281,8.0005,7.828,7.4833,6.9364,6.5382,6.0094,0.0,0.0,0.0,0.0,0.0,0.0,0.0,0.0,0.0,0.0,0.0,3.7934,3.3218,0.0,0.0,0.0,4.3695,4.7081,4.9381,5.1311,0.0,0.0,0.0,0.0,0.0,0.0,0.0,5.8277,6.45,6.9876,7.3332,7.3053,7.3237,7.5181,7.5181,7.4799,7.4367,0.0,8.0501,8.3345,8.331,8.3747,8.5942,8.4699,8.3783,8.4907,8.7712,8.9981,9.0615,9.1867,9.2728,9.2677,9.1608,9.049,9.029,8.8534,8.6745,8.5039,8.6092,8.7187,8.6852,8.8037,8.9167,8.6144,8.4673,7.5648,7.2923,7.4647,7.5337,7.6924,7.8982,7.8982,7.8488,7.7753,7.7546,7.4246,6.8635,6.529,0.0,6.8049,6.9508,7.2888,7.7718,7.9109,8.0902,8.2971,8.3661,8.3661,8.2971,8.2293,8.1224,7.9626,7.6234,7.2933,6.9784,6.5723,6.3402,6.3126,6.7231,7.136,7.5156,8.0132,8.3178,8.4178,8.5557,8.5949,8.5225,8.435,8.2868,8.0695,7.9833,7.8019,7.4965,6.9837,6.4848,6.0012,0.0,0.0,0.0,0.0,0.0,0.0,0.0,0.0,0.0,0.0,0.0,0.0,0.0,0.0,0.0,5.1801,0.0,5.6393,5.6298,0.0,0.0,0.0,5.3813,5.6551,6.0786,6.4388,6.6693,0.0,0.0,7.7301,7.9741,8.2303,8.4883,8.4198,8.3157,8.2287,8.3437,8.469,8.4804,8.497,8.527,8.6608,8.7954,8.9435,9.0789,9.2155,9.2575,9.2599,9.2513,9.2597,9.2764,9.19,9.1074,9.0303,9.0667,9.0805,8.9165,8.9454,8.9748,8.9002,8.9858,9.0458,8.8467,8.7605,8.5259,8.3225,8.1592,8.1764,8.2845,8.4328,8.3845,8.3156,8.2281,8.0557,7.8028,7.5005,7.474,7.5326,7.6557,7.7488,7.9212,8.1523,8.1902,8.2661,8.3718,8.3937,8.3902,8.373,8.3557,8.3006,8.2074,8.1178,7.8603,7.4626,7.397,7.1118,6.6265,6.9301,7.3164,7.7522,7.9925,8.2661,8.5661,8.6109,8.5949,8.5225,8.3868,8.235,8.0649,7.9339,7.7785,7.5853,7.2856,6.9276,6.4953,5.5862,0.0,0.0,0.0,0.0,0.0,0.0,0.0,0.0,0.0,4.4412,3.6539,0.0,4.6452,0.0,5.3356,5.8323,5.9614,5.9133,0.0,0.0,5.8783,5.9295,6.5174,6.6856,6.8167,6.9813,7.4412,7.828,8.0431,8.2818,8.549,8.8367,8.5078,8.2188,8.1973,8.548,8.7971,8.8052,9.027,9.2319,9.1626,9.2213,9.2631,9.3139,9.3377,9.3507,9.3495,9.2861,9.2589,9.3209,9.2063,9.1244,9.157,9.1344,9.0825,9.0395,9.0175,8.9914,8.9583,8.9861,9.0117,8.9937,8.9502,8.8881,8.7605,8.604,8.6053,8.6536,8.726,8.688,8.626,8.5419,8.3488,8.1764,8.027,8.0695,8.1109,8.1523,8.1936,8.2764,8.3914,8.4259,8.4799,8.5488,8.5523,8.5523,8.5488,8.4833,8.4316,8.3914,8.3557,8.2109,7.966,8.0028,7.8005,7.3774,7.3212,7.4281,7.6833,7.9695,8.2799,8.6144,8.5984,8.4811,8.2707,8.1523,7.935,7.6189,7.5257,7.3981,7.2108,7.0187,6.7634,6.4269,5.7094,5.1499,0.0,0.0,0.0,0.0,0.0,0.0,0.0,0.0,0.0,0.0,0.0,5.0116,5.0729,5.7719,6.227,6.2335,6.2853,6.4154,6.6564,6.5526,6.6735,7.2038,7.3243,7.4373,7.6247,7.941,8.2226,8.4155,8.6225,8.8089,8.9788,8.7675,8.6111,8.6617,8.8703,9.0119,9.0474,9.2033,9.3073,9.2511,9.2485,9.245,9.2485,9.2438,9.245,9.2438,9.2018,9.184,9.2265,9.1559,9.0961,9.1495,9.1234,9.0812,9.0775,9.0576,9.0347,9.0205,9.0192,9.0351,9.0799,9.0661,8.9433,8.8881,8.8881,8.8881,8.8777,8.8605,8.8708,8.8226,8.7316,8.6053,8.5052,8.4281,8.4316,8.4316,8.4281,8.4281,8.473,8.5501,8.6156,8.6777,8.7385,8.742,8.7351,8.7225,8.5949,8.5328,8.5328,8.4626,8.4109,8.373,8.373,8.2902,8.1109,7.7304,7.5328,7.5408,7.9798,8.335,8.5915,8.519,8.2983,7.9385,7.8327,7.5441,7.0553,7.0059,6.9059,6.7093,6.5635,6.4083,6.2324,5.7107,5.3107,0.0,4.6963,0.0,0.0,0.0,0.0,0.0,0.0,0.0,0.0,5.3637,5.4995,5.7313,6.3418,6.6767,6.5682,6.7457,6.9592,7.187,7.2763,7.4376,7.7331,7.9086,8.0831,8.298,8.4549,8.5973,8.7258,8.9009,8.9871,8.9798,9.0229,9.07,9.1893,9.1493,9.1402,9.2084,9.138,9.1109,9.1001,9.0917,9.0931,9.0878,9.0935,9.0799,9.0896,9.0878,9.0839,9.0878,9.0878,9.0812,9.0812,9.0812,9.0799,9.0799,9.0761,9.0761,9.0743,9.073,9.0799,9.0799,9.0765,9.0502,9.0385,9.0385,9.0385,8.9709,8.8639,8.9226,8.8696,8.7385,8.7109,8.6557,8.5902,8.588,8.5868,8.588,8.588,8.6247,8.6971,8.7109,8.7247,8.742,8.742,8.7075,8.6523,8.6213,8.6087,8.6122,8.5937,8.4639,8.2281,8.2224,8.0833,7.8201,0.0,0.0,0.0,8.1592,8.3868,8.435,8.3121,8.0902,7.7718,7.5706,0.0,6.969,6.831,6.7448,6.6989,6.6162,0.0,0.0,0.0,0.0,0.0,0.0,0.0,0.0,0.0,0.0,0.0,5.8086,5.6226,5.463,5.8536,6.2421,6.5272,6.8601,7.121,7.2737,7.3778,7.5123,7.687,7.7204,7.8252,8.0702,8.1738,8.2697,8.3715,8.4676,8.5808,8.7246,8.8291,8.911,8.9653,9.0361,9.0901,9.1124,9.1648,9.179,9.1238,9.0909,9.0799,9.0799,9.0799,9.0799,9.0799,9.0799,9.0799,9.0799,9.0799,9.0799,9.0799,9.0799,9.0799,9.0799,9.0799,9.0799,9.0799,9.0799,9.0799,9.0799,9.0799,9.0799,9.0799,0.0,9.0433,9.0247,0.0,9.026,8.9812,8.9191,8.995,8.9398,8.8019,8.7984,8.7363,8.6294,8.6294,8.6294,8.6294,8.6294,8.6695,8.7385,8.742,8.7627,8.7971,8.7592,8.7178,8.6846,8.6454,8.6294,8.6294,8.6294,8.5535,8.4052,8.4006,8.3247,8.1764,8.2086,8.173,8.0626,8.2488,8.4006,8.5052,8.4052,8.1833,7.8454,7.6109,0.0,0.0,0.0,0.0,0.0,0.0,0.0,0.0,0.0,0.0,6.2884,6.0618,5.9716,6.0877,6.15,6.3214,6.6412,6.7017,6.5532,6.1634,6.5687,6.9381,7.1631,7.3712,7.5341,7.6515,7.7598,7.8756,7.9972,8.0444,8.1251,8.2651,8.3235,8.3742,8.4488,8.5282,8.6191,8.7247,8.8467,8.9226,8.9674,9.0329,9.0799,9.0839,9.1234,9.1316,9.0857,9.0799,9.0799,9.0799,9.0799,9.0799,9.0799,9.0799,9.0799,9.0799,9.0799,9.0799,9.0799,9.0799,9.0799,9.0799,9.0799,9.0799,9.0799,9.0799,9.0799,9.0799,9.0799,9.1041,9.111,9.0972,9.0502,9.0109,8.9916,9.0054,9.0019,8.995,0.0,0.0,0.0,8.8777,8.8019,8.6742,8.6557,8.6557,8.6708,8.642,8.6777,8.7592,8.7454,8.7812,8.8536,8.7915,8.7523,8.7351,8.6799,8.642,8.6329,8.6294,8.6294,8.6294,8.6294,8.6294,8.6294,8.6294,8.5419,8.3764,8.3419,8.4213,8.6006,8.5363,8.3259,7.9603,7.7281,7.3764,6.8921,6.7275,6.593,6.4678,6.4609,6.5058,6.6024,6.5989,6.6359,6.7413,6.7472,6.8083,6.9428,7.0266,7.1405,7.2981,7.496,7.4305,7.0059,7.2712,7.5265,7.675,7.8108,7.8983,7.9189,8.0396,8.1454,8.2143,8.288,8.3569,8.4121,8.4488,8.4937,8.5535,8.6294,8.6971,8.7799,8.8902,8.9778,8.995,9.0433,9.0799,9.0799,9.0852,9.0891,9.0812,9.0799,9.0799,9.0799,9.0799,9.0799,9.0799,9.0799,9.0799,9.0799,9.0799,9.0799,9.0799,9.0799,9.0799,9.0799,9.0799,9.0799,9.0799,9.0799,9.0916,9.1144,9.1123,9.1399,9.2399,9.1895,9.2399,9.1882,9.0709,9.1364,9.1295,9.0661,9.0765,9.0316,8.9571,8.9536,8.9088,8.8238,8.7558,8.7627,8.8191,8.6915,8.7053,8.8364,8.773,8.7812,8.857,8.8467,8.8088,8.742,8.7294,8.6902,8.6363,8.6294,8.6294,8.6294,8.6294,8.6294,8.6294,8.6294,8.6467,8.673,8.5535,8.5018,8.5328,8.4557,8.2661,7.9626,7.7339,7.4522,7.1153,6.969,6.8724,6.8517,6.8483,6.9404,7.1381,7.0922,7.1474,7.3405,7.3626,7.4029,7.4891,7.566,7.704,7.9109,8.0247,7.9419,7.6315,7.7048,7.8371,7.9833,8.0778,8.1595,8.219,8.3006,8.3523,8.373,8.4432,8.4915,8.5156,8.6144,8.6868,8.704,8.7812,8.8501,8.9122,8.9536,8.9985,9.0454,9.0696,9.0799,9.0799,9.0799,9.0799,9.0799,9.0799,9.0799,9.0799,9.0799,9.0799,9.0799,9.0799,9.0799,9.0799,9.0799,9.0799,9.0799,9.0799,9.0799,9.0799,9.0799,9.0834,9.0834,9.0903,9.1226,9.2261,9.2123,9.1882,9.2882,9.264,9.2951,9.2709,9.2054,9.2433,9.2399,9.2019,9.1606,9.0778,8.9743,8.9709,8.9295,8.8605,8.8226,8.8226,8.8583,8.7846,8.8157,8.9088,8.8398,8.8467,8.9122,8.879,8.8398,8.8053,8.8053,8.7661,8.6937,8.6902,8.6695,8.6329,8.6294,8.6294,8.6329,8.6695,8.688,8.6799,8.6536,8.6605,8.7031,8.6708,8.5626,8.3799,8.1592,7.9557,7.7741,7.5844,7.4854,7.4843,7.4809,7.5499,7.6878,7.6637,7.712,7.8534,7.8626,7.8798,7.9143,7.9867,8.0902,8.2316,8.319,8.3087,8.1672,8.1109,8.1281,8.2316,8.2799,8.3316,8.4087,8.4811,8.5419,8.5799,8.657,8.7018,8.7087,8.757,8.8053,8.8122,8.8743,8.9329,8.9674,9.0054,9.0398,9.0765,9.0799,9.0799,9.0799,9.0799,9.0799,9.0799,9.0799,9.0799,9.0799,9.0799,9.0799,9.0799,9.0799,9.0799,9.0799,9.0799,9.0799,9.0799,9.0799,9.0799,9.0799,9.0799,9.0972,9.1399,9.1468,9.1847,9.2295,9.2205,9.2171,9.3503,9.3365,9.3537,9.3537,9.3365,9.3192,9.3123,9.3054,9.2481,9.1571,9.0502,9.0123,8.964,8.9122,8.8915,8.8915,8.9053,8.8743,8.8984,8.9571,8.895,8.8984,8.9605,8.9088,8.8846,8.8846,8.8859,8.8433,8.7743,8.7661,8.7385,8.688,8.6811,8.6811,8.6846,8.7385,8.7467,8.7122,8.7639,8.8157,8.857,8.8915,8.8708,8.7868,8.604,8.4695,8.3868,8.2074,8.104,8.104,8.104,8.1281,8.1833,8.1902,8.2109,8.2523,8.2742,8.2914,8.3087,8.3592,8.4247,8.4971,8.5604,8.5949,8.588,8.488,8.4328,8.4695,8.4786,8.5109,8.588,8.6467,8.7053,8.7639,8.8226,8.8467,8.857,8.8743,8.8846,8.8915,8.9502,8.995,9.004,9.0454,9.0765,9.0765,9.0799,9.0799,9.0799,9.0903,9.1041,9.0834,9.0799,9.0799,9.0799,9.0799,9.0799,9.0799,9.0799,9.0799,9.0799,9.0799,9.0799,9.0799,9.0799,9.0799,9.0799,9.0799,9.1006,9.1433,9.1537,9.1709,9.1998,9.224,9.2412,9.4792,9.4344,9.4861,9.4792,9.4137,9.3434,9.3158,9.3158,9.302,9.2964,9.2606,9.133,9.0696,9.0502,8.9937,9.0019,9.0467,8.9226,8.9088,8.9674,8.895,8.9019,8.9778,8.9674,8.9605,8.964,8.964,8.9295,8.857,8.8467,8.8433,8.8398,8.8398,8.8329,8.8364,8.8433,8.8777,8.9364,8.9467,8.9191,8.8708,8.9916,9.0247,8.9502,8.8605,8.7812,8.6902,8.6144,8.5673,8.5661,8.5557,8.5626,8.5695,8.573,8.5488,8.4949,8.5501,8.6144,8.6764,8.6937,8.7225,8.8088,8.8122,8.8191,8.8238,8.8122,8.7777,8.7247,8.7075,8.7329,8.8169,8.8295,8.8398,8.8639,8.8674,8.8618,8.8846,8.9191,8.9605,8.9605,9.0398,9.0709,9.0743,9.0834,9.0834,9.095,9.1041,9.1075,9.111,9.1537,9.164,9.1075,9.0834,9.0834,9.0799,9.0799,9.0799,9.0799,9.0799,9.0799,9.0799,9.0799,9.0799,9.0799,9.0799,9.0799,9.0799,9.0799,9.0834,9.1144,9.1261,9.1192,9.1847,9.233,9.2744,9.5241,9.4965,9.5275,9.5241,9.4896,9.462,9.4468,9.4434,9.3999,9.3827,9.3689,9.264,9.2157,9.2123,9.1847,9.1882,9.2123,9.1537,9.1399,9.1675,9.1399,9.1433,9.1675,9.1709,9.1709,9.1675,9.1261,9.064,8.9881,8.9019,8.8618,8.8618,8.8618,8.8618,8.8605,8.9019,8.9204,8.9053,8.9916,9.0019,8.9467,9.026,9.0674,9.0316,8.964,8.9122,8.8743,8.8053,8.7674,8.7674,8.7639,8.7674,8.7674,8.7674,8.7536,8.7272,8.7514,8.7812,8.8088,8.8088,8.826,8.8583,8.9019,8.926,8.9329,9.0054,9.026,8.9467,8.8639,8.8433,8.9122,8.9273,8.9605,9.0295,9.0192,9.0213,9.1192,9.1088,9.1192,9.164,9.1985,9.195,9.164,9.1502,9.1502,9.1571,9.1847,9.2088,9.2157,9.2468,9.2468,9.2192,9.1813,9.1295,9.0937,9.0799,9.0799,9.0799,9.0799,9.0799,9.0799,9.0799,9.0799,9.0799,9.0799,9.0799,9.0799,9.0834,9.0881,9.1157,9.1502,9.1606,9.1916,9.1847,9.1778,9.5724,9.5689,9.5724,9.5827,9.6,9.5793,9.5724,9.5586,9.493,9.4585,9.4551,9.3999,9.3744,9.3675,9.3296,9.3123,9.3123,9.3123,9.3123,9.3123,9.3123,9.3089,9.3123,9.3123,9.3123,9.302,9.255,9.1882,9.111,9.0364,8.964,8.9295,8.9398,8.9398,8.926,8.9778,8.9743,8.9364,9.0295,9.0523,9.0157,9.0523,9.0799,9.073,9.0295,9.0075,9.0295,8.9812,8.9549,8.9536,8.9536,8.9398,8.9226,8.9226,8.9191,8.9157,8.8984,8.9088,8.948,8.9536,8.9605,8.9847,9.0364,9.064,9.0812,9.1675,9.1985,9.1454,9.0467,9.0123,9.0226,9.0502,9.117,9.2102,9.1744,9.195,9.2813,9.2571,9.2468,9.302,9.2916,9.2916,9.2433,9.2295,9.2309,9.2364,9.2744,9.3123,9.3158,9.3227,9.3365,9.3158,9.2778,9.2261,9.1364,9.0903,9.0834,9.0799,9.0799,9.0799,9.0799,9.0799,9.0799,9.0799,9.0799,9.0799,9.0799,9.0834,9.0881,9.1433,9.1675,9.1606,9.1537,9.1157,9.0903,9.6448,9.6448,9.6434,9.6862,9.7518,9.6779,9.6483,9.6414,9.5689,9.5379,9.5331,9.5241,9.5275,9.5103,9.3896,9.3158,9.3158,9.3227,9.3261,9.3261,9.3227,9.3158,9.3123,9.3123,9.3158,9.3296,9.3171,9.2688,9.2033,9.2516,9.2157,9.0812,9.1364,9.1433,9.0847,9.0765,9.0743,9.0674,9.0799,9.0799,9.0743,9.0765,9.0868,9.0868,9.073,9.1054,9.1675,9.1813,9.1744,9.1778,9.1688,9.1433,9.0765,9.0696,9.0709,9.0674,9.0075,9.0329,9.1537,9.1722,9.1985,9.264,9.2606,9.2847,9.264,9.2882,9.2951,9.2951,9.2778,9.2537,9.2019,9.2261,9.2709,9.2985,9.2985,9.2985,9.3158,9.3192,9.3089,9.3192,9.3227,9.3192,9.3054,9.3054,9.3068,9.3068,9.3123,9.3261,9.3434,9.3861,9.3896,9.362,9.362,9.3654,9.2274,9.1606,9.111,9.0834,9.0868,9.0834,9.0799,9.0799,9.0799,9.0799,9.0799,9.0799,9.0799,9.0799,9.0799,9.1006,9.1041,9.1006,9.1157,9.0937,9.0799,9.7276,9.7276,9.7276,9.7449,9.7656,9.738,9.7276,9.7207,9.6434,9.6089,9.602,9.562,9.5413,9.5379,9.5331,9.502,9.4606,9.4572,9.4585,9.4572,9.4572,9.4572,9.4572,9.4572,9.4585,9.4516,9.4103,9.3468,9.2826,9.2985,9.2847,9.2433,9.2537,9.2537,9.233,9.2261,9.2054,9.1606,9.1571,9.1316,9.0937,9.1295,9.1571,9.1537,9.1088,9.0937,9.1226,9.1226,9.1226,9.1226,9.1709,9.1882,9.1675,9.2019,9.2261,9.2261,9.2019,9.2123,9.2606,9.2709,9.2813,9.3054,9.3123,9.3158,9.3192,9.3551,9.3654,9.3399,9.4103,9.4192,9.3585,9.3261,9.3296,9.3723,9.3447,9.3537,9.4192,9.4172,9.4034,9.4378,9.4206,9.3896,9.3861,9.3847,9.3861,9.393,9.4275,9.4482,9.4585,9.4861,9.4827,9.462,9.4413,9.4137,9.3689,9.2813,9.2123,9.1385,9.1041,9.1075,9.1075,9.0868,9.0799,9.0799,9.0799,9.0799,9.0799,9.0799,9.0799,9.0799,9.0799,9.0799,9.0799,9.0799,9.0799,9.8035,9.8035,9.8035,9.8222,9.838,9.8138,9.8069,9.798,9.7242,9.6759,9.6469,9.6207,9.6,9.5931,9.6538,9.6655,9.6138,9.5896,9.5758,9.5744,9.5758,9.562,9.5448,9.5641,9.562,9.5379,9.4896,9.424,9.362,9.3758,9.3572,9.3123,9.333,9.333,9.3158,9.3123,9.2813,9.2433,9.233,9.2054,9.1675,9.2054,9.233,9.2261,9.1813,9.1523,9.1537,9.1523,9.1385,9.1364,9.2171,9.2606,9.2447,9.2826,9.3123,9.3123,9.3089,9.3227,9.3434,9.3468,9.3606,9.3813,9.3847,9.3847,9.3882,9.433,9.4309,9.4227,9.4689,9.5137,9.4723,9.4158,9.4054,9.4482,9.4172,9.4227,9.5206,9.493,9.4896,9.5137,9.493,9.4689,9.4654,9.4654,9.4654,9.4654,9.5137,9.5379,9.5413,9.5413,9.5413,9.5379,9.4965,9.4585,9.4309,9.3827,9.3158,9.2433,9.1675,9.1606,9.1399,9.1123,9.0868,9.0834,9.0799,9.0799,9.0799,9.0799,9.0799,9.0799,9.0799,9.0799,9.0799,9.0799,9.0868,9.8794,9.8794,9.8828,9.9173,9.9587,9.907,9.8794,9.869,9.8035,9.7345,9.6931,9.7311,9.7104,9.6793,9.7345,9.7656,9.7483,9.6931,9.6586,9.6503,9.6517,9.6172,9.5689,9.6227,9.6207,9.562,9.5413,9.4999,9.4447,9.4861,9.4537,9.3585,9.3985,9.3985,9.3192,9.333,9.3227,9.3123,9.3123,9.3054,9.3089,9.3054,9.3158,9.3192,9.3089,9.3054,9.3089,9.302,9.2606,9.224,9.3378,9.3861,9.3296,9.3261,9.3227,9.3296,9.3227,9.3585,9.424,9.4378,9.4723,9.5275,9.54,9.5365,9.5275,9.5344,9.5344,9.5206,9.5344,9.5448,9.5448,9.5413,9.5331,9.5379,9.5172,9.5206,9.5344,9.5379,9.5413,9.5448,9.5379,9.5379,9.5413,9.531,9.5241,9.5275,9.5344,9.5413,9.5413,9.5413,9.5413,9.5413,9.5275,9.4999,9.4896,9.4758,9.4137,9.3503,9.2744,9.2261,9.195,9.1675,9.1261,9.1144,9.0868,9.0868,9.111,9.1075,9.0834,9.0799,9.0799,9.0972,9.1075,9.1157,9.1054,9.9553,9.9553,9.9553,9.9691,9.9863,9.9656,9.9553,9.9484,9.8759,9.8311,9.8069,9.7794,9.7552,9.7552,9.8104,9.8449,9.8449,9.8173,9.7828,9.7414,9.7345,9.7207,9.7035,9.7207,9.7207,9.6828,9.5862,9.5586,9.5758,9.5537,9.5089,9.4827,9.4917,9.4917,9.4675,9.4675,9.4482,9.3999,9.393,9.3675,9.3227,9.3654,9.4137,9.4585,9.4206,9.4137,9.462,9.3675,9.302,9.2744,9.3758,9.4413,9.4606,9.4689,9.4675,9.4689,9.4675,9.502,9.5689,9.5813,9.6138,9.6759,9.6966,9.669,9.6227,9.6172,9.5917,9.5606,9.5848,9.6158,9.6227,9.669,9.6483,9.5517,9.5413,9.5482,9.5551,9.5482,9.5655,9.6,9.571,9.5641,9.5931,9.5862,9.5551,9.5517,9.5482,9.5448,9.5413,9.5448,9.5413,9.5413,9.5379,9.5344,9.5206,9.5103,9.4827,9.4296,9.3654,9.3033,9.2688,9.2205,9.1778,9.1537,9.1226,9.1123,9.1364,9.1399,9.1213,9.111,9.1282,9.1433,9.1571,9.1606,9.1606,9.9883,9.9883,9.9883,9.9883,9.9883,9.9883,9.9883,9.9849,9.94,9.9055,9.8759,9.8621,9.8345,9.8311,9.8863,9.9208,9.9208,9.9193,9.8966,9.8518,9.8173,9.7966,9.7759,9.769,9.769,9.7552,9.6724,9.6517,9.6897,9.6517,9.6241,9.6241,9.6241,9.6055,9.5862,9.5793,9.5448,9.4827,9.4723,9.4447,9.4172,9.4447,9.5068,9.5586,9.5103,9.5137,9.5655,9.4848,9.3951,9.3434,9.3861,9.4723,9.5655,9.5793,9.5931,9.6207,9.6276,9.6483,9.6883,9.6931,9.7138,9.7587,9.769,9.7483,9.7035,9.6966,9.669,9.6448,9.669,9.6966,9.7035,9.7345,9.7173,9.6414,9.631,9.6241,9.6241,9.6241,9.6414,9.6759,9.6586,9.6552,9.6655,9.6621,9.6276,9.6241,9.6,9.5827,9.5744,9.5586,9.5517,9.5448,9.5379,9.5379,9.5379,9.5379,9.5379,9.4999,9.4551,9.3999,9.3551,9.2895,9.2399,9.2364,9.2123,9.1813,9.195,9.2054,9.1985,9.195,9.1847,9.2157,9.2399,9.2399,9.2399,9.9883,9.9883,9.9883,9.9952,10.0021,10.0021,10.0139,10.009,9.9987,9.9622,9.9277,9.9518,9.9415,9.9104,9.9504,9.9829,9.9952,9.9952,10.0036,9.9829,9.938,9.8725,9.8138,9.7966,9.7966,9.7966,9.769,9.7621,9.7725,9.7518,9.7704,9.7483,9.7414,9.7311,9.669,9.6586,9.6276,9.5758,9.5586,9.5586,9.5551,9.5551,9.5931,9.6621,9.6034,9.5965,9.6586,9.6448,9.5468,9.3847,9.4344,9.5241,9.6276,9.6572,9.6897,9.7449,9.7621,9.7656,9.7725,9.7897,9.7931,9.8049,9.8173,9.7808,9.7794,9.7725,9.7621,9.7449,9.7621,9.7759,9.7759,9.7931,9.7897,9.7828,9.7552,9.7483,9.7621,9.7552,9.7552,9.7656,9.7725,9.7704,9.769,9.7621,9.7518,9.7414,9.6931,9.6641,9.6483,9.6207,9.5689,9.5586,9.5689,9.5517,9.5551,9.5413,9.5413,9.5275,9.4999,9.4689,9.4275,9.3654,9.3206,9.3137,9.2951,9.2675,9.2537,9.2675,9.2571,9.233,9.2502,9.2985,9.3158,9.3206,9.3206,9.9883,9.9883,9.9883,10.0243,10.0726,10.0809,10.1105,10.1484,10.0967,10.0657,10.0464,10.0036,9.9898,9.9642,9.9849,10.0208,10.0657,10.076,10.1105,10.1415,10.0829,10.007,9.9311,9.8759,9.8794,9.9055,9.8311,9.7966,9.8414,9.8035,9.7794,9.769,9.7794,9.7656,9.7414,9.738,9.7311,9.7104,9.7069,9.7035,9.7035,9.7035,9.7449,9.8035,9.7449,9.7483,9.8035,9.7656,9.7207,9.6586,9.6055,9.6345,9.7242,9.7414,9.7552,9.7759,9.7828,9.8,9.8518,9.9035,9.9297,9.938,9.9774,9.9691,9.8587,9.8518,9.8242,9.7966,9.8138,9.8518,9.8587,9.8966,9.9242,9.9173,9.8518,9.7931,9.7794,9.769,9.7897,9.8345,9.8069,9.8104,9.8276,9.8138,9.7828,9.7759,9.7587,9.738,9.7276,9.7104,9.6655,9.631,9.6207,9.5896,9.5655,9.5482,9.5413,9.5413,9.5275,9.5241,9.4861,9.4447,9.4137,9.3965,9.362,9.3309,9.3344,9.3482,9.3158,9.2916,9.3399,9.393,9.3965,9.3965,9.3999,10.0864,10.0864,10.0864,10.114,10.1519,10.1568,10.1795,10.2071,10.176,10.1553,10.145,10.1105,10.0864,10.0849,10.0883,10.1105,10.1519,10.1553,10.1795,10.2036,10.1726,10.0933,10.0036,9.9415,9.9518,9.9745,9.907,9.8932,9.9139,9.8828,9.8656,9.869,9.8621,9.8483,9.8173,9.8138,9.8,9.7759,9.769,9.769,9.769,9.769,9.8311,9.8863,9.8587,9.8587,9.9449,9.9035,9.838,9.7759,9.7276,9.7345,9.8069,9.8483,9.8621,9.8656,9.9173,9.9725,9.9829,10.045,10.0829,10.0933,10.1346,10.1071,10.0484,10.0208,9.9932,9.9395,9.9587,9.9553,9.9449,9.9932,10.0174,9.9898,9.9691,9.9277,9.8725,9.869,9.8828,9.9035,9.8932,9.8725,9.9193,9.8828,9.869,9.8587,9.8414,9.8242,9.8104,9.7897,9.7621,9.7207,9.6966,9.6759,9.6448,9.6241,9.6034,9.5931,9.5724,9.5655,9.5448,9.5137,9.4861,9.4585,9.424,9.4034,9.4034,9.4103,9.4103,9.4089,9.4516,9.4654,9.4689,9.4585,9.462,10.2224,10.2209,10.2209,10.2243,10.2312,10.2312,10.2416,10.245,10.2381,10.2312,10.2243,10.2209,10.1967,10.2224,10.1898,10.2209,10.2312,10.2312,10.2312,10.2381,10.2209,10.1622,10.0519,10.0332,10.0297,10.0312,10.0125,9.9987,9.9952,9.9898,9.9814,9.9676,9.9711,9.9518,9.9035,9.8932,9.8552,9.8207,9.8173,9.8311,9.8345,9.838,9.8932,10.0001,9.9794,9.9967,10.0657,10.045,9.9622,9.8276,9.8118,9.8587,9.9208,9.9849,10.009,10.0312,10.1071,10.1588,10.1415,10.176,10.2174,10.2071,10.214,10.2243,10.1967,10.1795,10.1553,10.0967,10.112,10.0622,10.0312,10.0726,10.0898,10.0657,10.1381,10.1346,10.0539,10.0056,10.0021,10.0001,9.9967,9.9883,9.9883,9.9883,9.9814,9.9311,9.9104,9.8966,9.8828,9.8656,9.8311,9.7897,9.7759,9.7725,9.738,9.7035,9.6828,9.6655,9.6345,9.6172,9.6034,9.5758,9.5482,9.5172,9.4792,9.4585,9.4551,9.462,9.4792,9.4827,9.4896,9.5137,9.531,9.5137,9.5068,10.2224,10.2224,10.2224,10.2554,10.3002,10.3071,10.3416,10.3899,10.3313,10.3071,10.2933,10.2485,10.2278,10.2278,10.2381,10.2519,10.3037,10.3071,10.3071,10.3071,10.3071,10.2588,10.1829,10.1726,10.1691,10.1519,10.1071,10.0864,10.076,10.0346,9.9918,10.0001,10.009,9.9863,9.976,9.976,9.9607,9.9435,9.9415,9.9691,10.0001,9.9656,10.0105,10.145,10.1484,10.1622,10.1829,10.1795,10.1553,10.1174,10.076,10.0706,10.1209,10.1519,10.1622,10.1691,10.1933,10.2174,10.214,10.2588,10.2795,10.245,10.2795,10.283,10.2243,10.2312,10.2174,10.1864,10.1465,10.1154,10.0933,10.1519,10.1691,10.1726,10.1967,10.2174,10.1691,10.1174,10.0795,10.0726,10.0312,9.9918,9.9952,10.0056,10.0021,9.9898,9.9829,9.9691,9.9518,9.9346,9.9001,9.8587,9.8552,9.8483,9.8173,9.7794,9.7449,9.7207,9.6897,9.6759,9.6621,9.6345,9.6069,9.5724,9.5344,9.5241,9.5413,9.5344,9.5551,9.5413,9.5413,9.5724,9.5896,9.5724,9.5724,10.3278,10.3293,10.3293,10.3485,10.383,10.388,10.4106,10.4348,10.4087,10.3865,10.3796,10.3416,10.3278,10.3278,10.3278,10.3554,10.3796,10.3865,10.3865,10.3865,10.3865,10.3658,10.3382,10.3175,10.3002,10.2312,10.1829,10.1622,10.145,10.1209,10.1071,10.0967,10.0967,10.1071,10.0967,10.0933,10.1002,10.0898,10.0622,10.0829,10.1346,10.0898,10.1174,10.2519,10.3037,10.3278,10.3293,10.3278,10.3278,10.3175,10.2914,10.2672,10.2692,10.2726,10.2726,10.2761,10.314,10.3002,10.3037,10.3382,10.3727,10.3313,10.3658,10.3589,10.3397,10.3278,10.3037,10.2761,10.2347,10.2036,10.1691,10.2278,10.2554,10.2416,10.2879,10.3086,10.2657,10.1795,10.1278,10.1346,10.0967,10.0864,10.0795,10.076,10.0622,10.0691,10.0588,10.0415,9.9794,9.9656,9.9622,9.938,9.9346,9.9208,9.8897,9.8483,9.8035,9.7725,9.7414,9.7345,9.7311,9.6966,9.6621,9.6379,9.6241,9.6517,9.6655,9.6483,9.6379,9.6621,9.6724,9.6655,9.6724,9.6966,9.6931,10.4486,10.4486,10.4486,10.4486,10.4486,10.4451,10.4451,10.4501,10.4486,10.4382,10.4486,10.4486,10.4244,10.4417,10.4382,10.4451,10.4451,10.4466,10.4348,10.4348,10.4348,10.4279,10.4244,10.4141,10.3761,10.2623,10.2416,10.2381,10.2347,10.2243,10.1898,10.2105,10.214,10.1933,10.2071,10.2174,10.2002,10.1913,10.1534,10.1622,10.2105,10.1691,10.2002,10.3037,10.3914,10.4259,10.4244,10.4279,10.4451,10.4624,10.4658,10.4451,10.4141,10.3677,10.3746,10.383,10.4539,10.4539,10.4298,10.4539,10.4865,10.483,10.4693,10.4658,10.4624,10.4363,10.4003,10.3692,10.3347,10.3106,10.2519,10.3037,10.314,10.3017,10.3845,10.4052,10.3451,10.2278,10.2002,10.2105,10.176,10.1484,10.1691,10.1795,10.1622,10.145,10.1312,10.1036,10.0415,10.0036,10.007,9.9814,9.9691,9.9622,9.938,9.9242,9.8759,9.8518,9.8138,9.8138,9.8173,9.8138,9.7897,9.7483,9.7414,9.7518,9.7483,9.7242,9.7345,9.7794,9.7725,9.738,9.7656,9.8207,9.8,10.4486,10.4486,10.4486,10.4486,10.4486,10.4486,10.4486,10.4486,10.4486,10.4486,10.4486,10.4486,10.4486,10.4486,10.4486,10.4486,10.4486,10.4486,10.4486,10.4486,10.4486,10.4486,10.4486,10.4486,10.4279,10.4037,10.352,10.314,10.2968,10.2554,10.25,10.2278,10.2347,10.2347,10.2381,10.2209,10.2416,10.2485,10.2224,10.2416,10.2795,10.2657,10.2588,10.3554,10.4279,10.457,10.4555,10.4555,10.4796,10.5352,10.5421,10.6007,10.6367,10.5781,10.5559,10.5835,10.5973,10.5904,10.5835,10.6076,10.6283,10.6214,10.5731,10.5386,10.5248,10.4884,10.452,10.4313,10.4141,10.3934,10.3244,10.3727,10.4141,10.419,10.419,10.4432,10.4106,10.3485,10.2899,10.3037,10.2554,10.214,10.2519,10.2672,10.2431,10.2209,10.2071,10.1691,10.1071,10.076,10.0657,10.0277,9.9849,9.9849,9.978,9.9711,9.9538,9.9435,9.9228,9.9193,9.9262,9.9484,9.9311,9.8587,9.8104,9.7966,9.7897,9.7931,9.8,9.8276,9.8104,9.7966,9.8311,9.869,9.838,10.4486,10.4486,10.4486,10.4486,10.4486,10.4486,10.4486,10.4486,10.4486,10.4486,10.4486,10.4486,10.4486,10.4486,10.4486,10.4486,10.4486,10.4486,10.4486,10.4486,10.4486,10.4486,10.4486,10.4486,10.4486,10.4382,10.4072,10.3899,10.3899,10.3623,10.3328,10.3382,10.3382,10.3382,10.3382,10.3466,10.3347,10.3313,10.3071,10.3175,10.3934,10.3815,10.4194,10.4505,10.4815,10.5022,10.5057,10.5057,10.5229,10.5593,10.5973,10.68,10.7317,10.7386,10.6938,10.718,10.6957,10.6716,10.6716,10.6681,10.6647,10.6662,10.6352,10.5973,10.5662,10.5264,10.4919,10.4624,10.4501,10.4363,10.3968,10.4294,10.4451,10.4486,10.4486,10.4486,10.4417,10.4106,10.3934,10.3761,10.3244,10.3071,10.35,10.35,10.3224,10.3002,10.283,10.2347,10.1775,10.1553,10.1381,10.0829,10.0415,10.0228,10.0228,10.0263,10.0277,10.0228,10.0159,10.0159,10.0021,10.007,9.9794,9.9242,9.8897,9.8587,9.8863,9.9021,9.8883,9.8828,9.9173,9.9346,9.9139,9.9035,9.8828,10.4486,10.4486,10.4486,10.4486,10.4486,10.4486,10.4486,10.4486,10.4486,10.4486,10.4486,10.4486,10.4486,10.4486,10.4486,10.4486,10.4486,10.4486,10.4486,10.4486,10.4486,10.4486,10.4486,10.4486,10.4486,10.4486,10.4432,10.4486,10.4382,10.4313,10.4451,10.4382,10.4535,10.4604,10.4432,10.4486,10.4658,10.452,10.4175,10.421,10.4934,10.5505,10.5835,10.5835,10.5835,10.58,10.58,10.5835,10.5973,10.6283,10.6681,10.7317,10.7973,10.8111,10.8111,10.8007,10.7474,10.7233,10.7198,10.7267,10.7421,10.7421,10.7111,10.6662,10.6179,10.5869,10.5317,10.483,10.4535,10.4501,10.4382,10.4486,10.4486,10.4486,10.4486,10.4486,10.4486,10.4382,10.4348,10.4141,10.3796,10.3796,10.4087,10.4121,10.3845,10.3742,10.3554,10.314,10.2623,10.245,10.2174,10.1484,10.1002,10.076,10.0726,10.0829,10.0898,10.0967,10.0933,10.0933,10.0657,10.0415,10.0139,9.9967,9.9622,9.9449,9.9814,9.9883,9.9538,9.9622,10.0381,10.045,9.976,9.9622,9.9622,10.4486,10.4486,10.4486,10.4486,10.4486,10.4486,10.4486,10.4486,10.4486,10.4486,10.4486,10.4486,10.4486,10.4486,10.4486,10.4486,10.4486,10.4486,10.4486,10.4486,10.4486,10.4486,10.4486,10.4486,10.4589,10.4624,10.4589,10.4486,10.4693,10.4693,10.4555,10.4658,10.5057,10.5195,10.4727,10.4953,10.5455,10.5421,10.5352,10.5628,10.6214,10.6455,10.6593,10.6593,10.6593,10.6578,10.6593,10.6612,10.6835,10.7421,10.7628,10.8111,10.8731,10.8869,10.8869,10.8869,10.8766,10.8731,10.8559,10.8456,10.8456,10.8318,10.8076,10.7766,10.718,10.6214,10.5509,10.5524,10.4934,10.4535,10.4486,10.4486,10.4486,10.4486,10.4486,10.4486,10.4486,10.4486,10.4486,10.4486,10.4106,10.421,10.4382,10.4432,10.4432,10.4397,10.4259,10.3796,10.3416,10.314,10.2899,10.2209,10.1657,10.1381,10.1278,10.1381,10.145,10.1588,10.1588,10.1588,10.1346,10.1105,10.1002,10.0795,10.045,10.0139,10.0139,10.0105,9.9952,10.0021,10.0277,10.0208,9.9918,10.0001,10.0139,10.4486,10.4486,10.4486,10.4486,10.4486,10.4486,10.4486,10.4486,10.4486,10.4486,10.4486,10.4486,10.4486,10.4486,10.4486,10.4486,10.4486,10.4486,10.4486,10.4486,10.4486,10.4486,10.4486,10.452,10.4624,10.5091,10.5195,10.5505,10.5471,10.5298,10.5126,10.516,10.5386,10.549,10.4988,10.5003,10.5264,10.5559,10.5957,10.6352,10.6716,10.7095,10.7386,10.7371,10.7386,10.7386,10.7371,10.7386,10.749,10.7973,10.8214,10.8662,10.8904,10.9007,10.9007,10.9007,10.8973,10.8973,10.8973,10.9007,10.9007,10.8973,10.8662,10.8352,10.7766,10.6593,10.5612,10.5578,10.4919,10.4555,10.4486,10.4486,10.4486,10.4486,10.4486,10.4486,10.4486,10.4486,10.4486,10.4486,10.4486,10.4486,10.4486,10.4501,10.4501,10.4466,10.4417,10.421,10.383,10.352,10.3244,10.2933,10.2416,10.2002,10.1933,10.1933,10.1967,10.2071,10.2051,10.2036,10.2002,10.1864,10.176,10.1726,10.1519,10.114,10.0691,10.0277,10.0021,9.9952,9.9883,9.9952,9.9987,10.0001,10.0105,10.4486,10.4486,10.4486,10.4486,10.4486,10.4486,10.4486,10.4486,10.4486,10.4486,10.4486,10.4486,10.4486,10.4486,10.4486,10.4486,10.4486,10.4486,10.4486,10.4486,10.452,10.4624,10.4796,10.4899,10.5195,10.5869,10.5869,10.6111,10.6336,10.6336,10.6076,10.5647,10.5543,10.5421,10.5298,10.5367,10.5628,10.6352,10.7026,10.7336,10.749,10.7904,10.8111,10.818,10.818,10.818,10.818,10.818,10.818,10.8318,10.8662,10.8938,10.9007,10.9007,10.9007,10.9076,10.9214,10.9249,10.9111,10.9007,10.9007,10.9007,10.8973,10.8697,10.818,10.68,10.5888,10.5957,10.5003,10.4624,10.4486,10.4486,10.4486,10.4486,10.4486,10.4486,10.4486,10.4486,10.4486,10.4486,10.4486,10.4486,10.4486,10.4486,10.4486,10.4486,10.4486,10.452,10.4313,10.3968,10.383,10.3623,10.3451,10.3071,10.2968,10.2864,10.2761,10.2657,10.2623,10.2741,10.2899,10.2726,10.2519,10.245,10.2416,10.1933,10.1346,10.0726,10.0125,9.9987,9.9918,10.009,10.0174,10.0208,10.0415,10.4486,10.4486,10.4486,10.4486,10.4486,10.4486,10.4486,10.4486,10.4486,10.4486,10.4486,10.4486,10.4486,10.4486,10.4486,10.4486,10.4486,10.4486,10.4486,10.4486,10.4555,10.4934,10.5229,10.5524,10.5904,10.6509,10.6662,10.6681,10.6854,10.7352,10.6662,10.5819,10.6042,10.5333,10.5367,10.6057,10.6678,10.7421,10.8111,10.8559,10.8593,10.8766,10.88,10.8869,10.8869,10.8938,10.8904,10.8904,10.8835,10.88,10.9042,10.9007,10.9042,10.9145,10.918,10.9111,10.9628,10.9525,10.918,10.9111,10.9007,10.9007,10.8904,10.8766,10.8456,10.7371,10.6716,10.644,10.5471,10.4761,10.4589,10.4486,10.4486,10.4486,10.452,10.4658,10.4624,10.4535,10.4501,10.4486,10.4486,10.4486,10.4486,10.4486,10.4486,10.4486,10.4796,10.4865,10.4865,10.4624,10.4555,10.4451,10.4417,10.4279,10.4244,10.4072,10.3692,10.3623,10.3658,10.383,10.4072,10.3761,10.3244,10.314,10.3071,10.2554,10.2105,10.1657,10.1071,10.0228,10.0056,10.0588,10.0967,10.1174,10.145,10.4486,10.4486,10.4486,10.4486,10.4486,10.4486,10.4486,10.4486,10.4486,10.4486,10.4486,10.4486,10.4486,10.4486,10.4486,10.4486,10.4486,10.4486,10.452,10.4693,10.4919,10.5317,10.5681,10.6199,10.6662,10.7283,10.7455,10.7766,10.818,10.8076,10.7662,10.7145,10.6938,10.6904,10.6988,10.6938,10.749,10.7973,10.8593,10.9007,10.9007,10.9007,10.9007,10.9007,10.9007,10.9007,10.9042,10.9525,10.9352,10.9249,10.9456,10.9352,10.9249,10.9456,10.9387,10.918,10.98,10.9662,10.9283,10.9283,10.9318,10.8421,10.8318,10.8352,10.8387,10.7302,10.713,10.6766,10.5973,10.5022,10.5126,10.4796,10.4486,10.4486,10.4555,10.4727,10.4727,10.4589,10.4796,10.4899,10.4658,10.4486,10.4486,10.4486,10.4486,10.452,10.4899,10.516,10.5195,10.5333,10.5333,10.5229,10.5195,10.4934,10.4865,10.4693,10.452,10.452,10.4555,10.4486,10.4486,10.4451,10.4003,10.3899,10.3727,10.3347,10.3002,10.2692,10.2071,10.1243,10.1174,10.1484,10.1829,10.2105,10.2347,10.4486,10.4486,10.4486,10.4486,10.4486,10.4486,10.4486,10.4486,10.4486,10.4486,10.4486,10.4486,10.4486,10.4486,10.4486,10.4486,10.4486,10.452,10.4658,10.4919,10.5317,10.5819,10.6302,10.6869,10.7455,10.8042,10.8249,10.8524,10.88,10.8456,10.8249,10.818,10.818,10.7973,10.7455,10.78,10.7973,10.8352,10.8662,10.9007,10.9007,10.9007,10.9007,10.9007,10.9007,10.9007,10.9111,10.9387,10.9594,10.949,10.9559,10.9716,10.9731,10.9731,10.9628,10.9662,10.9697,10.9766,10.9421,10.9318,10.9368,10.8559,10.8387,10.8214,10.78,10.718,10.6923,10.6766,10.5904,10.5283,10.5333,10.4761,10.4486,10.4486,10.4486,10.4624,10.4693,10.4693,10.5057,10.5333,10.4953,10.4589,10.4953,10.4953,10.4796,10.483,10.5091,10.5402,10.549,10.5766,10.6179,10.6076,10.5938,10.5643,10.5298,10.5195,10.5057,10.4934,10.4865,10.4555,10.4486,10.4555,10.4555,10.4279,10.4141,10.4106,10.3899,10.3554,10.2933,10.2258,10.2312,10.2416,10.2623,10.2899,10.3106,10.4486,10.4486,10.4486,10.4486,10.4486,10.4486,10.4486,10.4486,10.4486,10.4486,10.4486,10.4486,10.4486,10.4486,10.4486,10.4486,10.457,10.4589,10.4865,10.5386,10.5904,10.6593,10.7283,10.7869,10.8145,10.88,10.8869,10.8835,10.9007,10.8869,10.8835,10.8869,10.8697,10.8302,10.7026,10.7559,10.8249,10.8869,10.8973,10.9007,10.9007,10.9007,10.9007,10.9007,10.9007,10.9007,10.9076,10.9318,10.9525,10.9628,10.9456,10.9766,11.0421,10.9662,10.9559,10.992,11.0058,10.9816,10.9145,10.9076,10.8938,10.8697,10.8456,10.8387,10.7869,10.7249,10.6716,10.6766,10.5574,10.4899,10.4673,10.457,10.4535,10.452,10.452,10.4865,10.4988,10.4919,10.5298,10.5869,10.5264,10.4761,10.5248,10.5524,10.5229,10.5195,10.5352,10.5593,10.5835,10.6317,10.6835,10.6869,10.6697,10.6386,10.6042,10.5766,10.5593,10.5421,10.5298,10.516,10.5003,10.5072,10.4968,10.4658,10.4589,10.4624,10.4555,10.4382,10.3727,10.3106,10.3175,10.3313,10.3485,10.3623,10.3761,10.4486,10.4486,10.4486,10.4486,10.4486,10.4486,10.4486,10.4486,10.4486,10.4486,10.4486,10.4486,10.4486,10.4486,10.4486,10.452,10.4589,10.5126,10.5524,10.5681,10.6509,10.7249,10.7938,10.8387,10.8731,10.8938,10.9007,10.9007,10.9007,10.9007,10.9007,10.9007,10.8973,10.8716,10.8421,10.8559,10.88,10.8973,10.9007,10.9007,10.9007,10.9042,10.9042,10.9042,10.9076,10.9042,10.9042,10.9318,10.9559,10.9628,10.9421,10.9835,11.018,10.9456,10.9628,10.9731,10.9731,10.98,10.9249,10.8973,10.8731,10.8524,10.8352,10.8283,10.7835,10.7697,10.7352,10.6973,10.6179,10.5678,10.5402,10.4796,10.4604,10.4658,10.485,10.5559,10.58,10.5524,10.5628,10.6352,10.6298,10.585,10.6042,10.6233,10.6057,10.5953,10.6111,10.6248,10.649,10.7042,10.7559,10.7559,10.7455,10.7111,10.6819,10.6593,10.6371,10.6283,10.6248,10.6214,10.6042,10.5712,10.5574,10.5402,10.5264,10.5126,10.5022,10.4865,10.4417,10.4037,10.421,10.4072,10.4003,10.4106,10.4244,10.4486,10.4486,10.4486,10.4486,10.4486,10.4486,10.4486,10.4486,10.4486,10.4486,10.4486,10.4486,10.4486,10.4486,10.4486,10.4761,10.4899,10.5317,10.6248,10.6386,10.7317,10.7973,10.8387,10.8731,10.8904,10.9007,10.9007,10.9007,10.9007,10.9007,10.9007,10.9007,10.9007,10.8938,10.8904,10.8938,10.8973,10.9007,10.9007,10.918,10.9352,10.9456,10.9421,10.9456,10.9421,10.9318,10.9249,10.9387,10.9628,10.9525,10.9559,10.9835,10.9766,10.9628,10.9731,10.9594,10.9456,10.9525,10.9111,10.9007,10.8766,10.849,10.8283,10.8145,10.7973,10.7835,10.7593,10.7283,10.6992,10.6543,10.5938,10.5244,10.5072,10.5126,10.5402,10.6095,10.6371,10.6076,10.6317,10.7007,10.7111,10.6819,10.6681,10.6854,10.6904,10.6904,10.6938,10.7007,10.7076,10.7524,10.8042,10.818,10.8214,10.8007,10.7697,10.7386,10.7214,10.7145,10.7042,10.6923,10.6612,10.6248,10.6179,10.6145,10.5973,10.5815,10.554,10.5279,10.5195,10.5229,10.5367,10.5091,10.4624,10.4589,10.4693,10.4486,10.4486,10.4486,10.4486,10.4486,10.4486,10.4486,10.4486,10.4486,10.4486,10.4486,10.4486,10.4486,10.4486,10.4486,10.4865,10.5471,10.5628,10.6524,10.7421,10.7938,10.8421,10.8731,10.8973,10.9007,10.9007,10.9007,10.9007,10.9007,10.9007,10.9007,10.9007,10.9007,10.9007,10.9007,10.9007,10.9007,10.9007,10.9042,10.9249,10.9525,10.9904,10.9904,10.9938,10.9954,10.9697,10.9456,10.9214,10.949,10.949,10.9421,11.0042,11.0145,10.9731,10.9731,10.9628,10.9352,10.9145,10.9042,10.9007,10.9007,10.88,10.8869,10.8559,10.8283,10.8111,10.7869,10.7455,10.7076,10.6854,10.6509,10.6179,10.5869,10.5938,10.6007,10.6405,10.6716,10.6904,10.7214,10.7455,10.7352,10.7214,10.7317,10.7455,10.7697,10.7593,10.7593,10.7697,10.7731,10.7628,10.818,10.8731,10.8766,10.8869,10.8559,10.8111,10.8007,10.7904,10.7543,10.7371,10.7061,10.6957,10.7007,10.6973,10.6766,10.649,10.6111,10.6179,10.6386,10.6421,10.6179,10.5904,10.5402,10.5141,10.5106,10.4486,10.4486,10.4486,10.4486,10.4486,10.4486,10.4486,10.4486,10.4486,10.4486,10.4486,10.4486,10.4486,10.4486,10.4486,10.4953,10.5559,10.6214,10.6973,10.7697,10.8387,10.8731,10.8938,10.9007,10.9007,10.9007,10.9007,10.9007,10.9007,10.9007,10.9007,10.9007,10.9007,10.9007,10.9007,10.9007,10.9007,10.9007,10.9007,10.9249,10.9559,10.9904,11.0042,11.0196,11.0196,10.9938,10.9697,10.918,10.9318,10.918,10.9145,10.9421,10.9387,10.9214,10.9214,10.9249,10.9111,10.9007,10.9007,10.9007,10.9007,10.9007,10.9007,10.8973,10.8731,10.8524,10.8249,10.7835,10.7524,10.7455,10.7164,10.6835,10.6697,10.675,10.6869,10.7111,10.7421,10.7628,10.7938,10.8145,10.8007,10.8007,10.8076,10.818,10.8352,10.8249,10.8214,10.8318,10.8249,10.8076,10.8249,10.8835,10.9007,10.9007,10.9007,10.8628,10.8662,10.8628,10.8249,10.8042,10.8145,10.8076,10.7973,10.7731,10.7421,10.7042,10.6612,10.6819,10.7198,10.6819,10.6593,10.6421,10.6179,10.5953,10.5781,10.4486,10.4486,10.4486,10.4486,10.4486,10.4486,10.4486,10.4486,10.4486,10.4486,10.4486,10.4486,10.4486,10.4486,10.4555,10.5057,10.6061,10.6474,10.7249,10.8352,10.8766,10.8904,10.9007,10.9007,10.9007,10.9007,10.9007,10.9007,10.9007,10.9007,10.9007,10.9007,10.9007,10.9007,10.9007,10.9007,10.9007,10.9007,10.9042,10.918,10.949,10.9835,11.0042,11.0145,11.0196,11.0092,10.9766,10.918,10.9042,10.9007,10.9007,10.9007,10.9042,10.9007,10.9007,10.9042,10.9042,10.9007,10.9007,10.9007,10.9007,10.9007,10.9007,10.9007,10.8973,10.8835,10.8662,10.8421,10.8318,10.818,10.7766,10.7421,10.7509,10.7612,10.78,10.8007,10.8145,10.8283,10.8559,10.8869,10.8904,10.8869,10.8938,10.9007,10.8973,10.8766,10.8628,10.8662,10.849,10.818,10.8387,10.8869,10.8973,10.9007,10.9007,10.9007,10.8938,10.8904,10.88,10.8731,10.9007,10.8904,10.8559,10.8283,10.8042,10.7731,10.7559,10.7662,10.7869,10.7524,10.7421,10.7524,10.7283,10.6766,10.6628,10.4486,10.4486,10.4486,10.4486,10.4486,10.4486,10.4486,10.4486,10.4486,10.4486,10.4486,10.4486,10.4486,10.4486,10.452,10.5348,10.6179,10.6681,10.7524,10.8938,10.8938,10.9007,10.9007,10.9007,10.9007,10.9007,10.9007,10.9007,10.9007,10.9007,10.9007,10.9007,10.9007,10.9007,10.9007,10.9007,10.9007,10.9007,10.9042,10.918,10.9697,11.0042,11.0145,11.0111,11.0076,10.9938,10.9352,10.9076,10.9007,10.9007,10.9007,10.9007,10.9007,10.9007,10.9007,10.9007,10.9007,10.9007,10.9007,10.9007,10.9007,10.9007,10.9007,10.9007,10.9007,10.9007,10.8835,10.88,10.8697,10.8662,10.8352,10.8145,10.8145,10.8249,10.8352,10.849,10.8593,10.8697,10.88,10.9007,10.9007,10.9007,10.9007,10.9007,10.9007,10.8973,10.8973,10.8938,10.8766,10.8421,10.8559,10.8904,10.8973,10.9007,10.9007,10.9007,10.9007,10.9007,10.9007,10.9007,10.9007,10.9007,10.9007,10.8731,10.8456,10.8697,10.8662,10.8593,10.849,10.8524,10.8524,10.88,10.8456,10.7697,10.7559,10.4486,10.4486,10.4486,10.4486,10.4486,10.4486,10.4486,10.4486,10.4486,10.4486,10.4486,10.4486,10.4486,10.4486,10.4501,10.5313,10.6421,10.6785,10.7647,10.8593,10.9007,10.9007,10.9007,10.9007,10.9007,10.9007,10.9007,10.9007,10.9007,10.9007,10.9007,10.9007,10.9007,10.9007,10.9007,10.9007,10.9007,10.9007,10.9042,10.9076,10.9352,10.9869,11.0145,11.0111,11.0042,11.0007,10.9559,10.9249,10.9111,10.9007,10.9007,10.9007,10.9007,10.9007,10.9007,10.9007,10.9007,10.9007,10.9007,10.9007,10.9007,10.9007,10.9007,10.9007,10.9007,10.9007,10.9007,10.9007,10.9007,10.9007,10.8973,10.88,10.8697,10.8766,10.88,10.8904,10.8973,10.9007,10.9007,10.9007,10.9007,10.9007,10.9007,10.9007,10.9007,10.9007,10.9007,10.8973,10.8973,10.8766,10.8731,10.8973,10.8973,10.9007,10.9007,10.9007,10.9007,10.9007,10.9007,10.9007,10.9007,10.9007,10.9007,10.9007,10.8938,10.9007,10.9007,10.8938,10.8938,10.9007,10.9007,10.9007,10.9007,10.8421,10.8456,10.3485,10.352,10.3845,10.4175,10.4451,10.4486,10.4486,10.4486,10.4486,10.4486,10.4486,10.4486,10.4486,10.4486,10.4501,10.5298,10.6474,10.6681,10.7697,10.8593,10.9007,10.9007,10.9007,10.9007,10.9007,10.9007,10.9007,10.9007,10.9007,10.9007,10.9007,10.9007,10.9007,10.9007,10.9007,10.9007,10.9007,10.9007,10.9007,10.9007,10.9007,10.9421,10.9662,10.9628,10.9662,10.9662,10.9525,10.918,10.9111,10.9007,10.9007,10.9007,10.9007,10.9007,10.9007,10.9007,10.9007,10.9007,10.9007,10.9007,10.9007,10.9007,10.9007,10.9007,10.9007,10.9007,10.9007,10.9007,10.9007,10.9007,10.9007,10.8904,10.8869,10.8904,10.8938,10.8973,10.9007,10.9007,10.9007,10.9007,10.9007,10.9007,10.9007,10.9007,10.9007,10.9007,10.9007,10.9007,10.9007,10.9007,10.9007,10.9007,10.9007,10.9007,10.9007,10.9007,10.9007,10.9007,10.9007,10.9007,10.9007,10.9007,10.9007,10.9007,10.9007,10.9007,10.9007,10.9007,10.9007,10.9007,10.9007,10.9007,10.9042,10.9076,10.8973,10.2312,10.245,10.3071,10.3776,10.4417,10.4486,10.4486,10.4486,10.4486,10.4486,10.4486,10.4486,10.4486,10.4486,10.4555,10.5574,10.6317,10.6612,10.7662,10.8662,10.8973,10.9007,10.9007,10.9007,10.9007,10.9007,10.9007,10.9007,10.9007,10.9007,10.9007,10.9007,10.9007,10.9007,10.9007,10.9007,10.9007,10.9007,10.9007,10.9007,10.9007,10.9007,10.9076,10.9042,10.9007,10.9007,10.9007,10.9007,10.9007,10.9007,10.9007,10.9007,10.9007,10.9007,10.9007,10.9007,10.9007,10.9007,10.9007,10.9007,10.9007,10.9007,10.9007,10.9007,10.9007,10.9007,10.9007,10.9007,10.9007,10.9007,10.9007,10.9007,10.9007,10.9007,10.9007,10.9007,10.9007,10.9007,10.9007,10.9007,10.9007,10.9007,10.9007,10.9007,10.9007,10.9007,10.9007,10.9007,10.9007,10.9007,10.9007,10.9007,10.9007,10.9007,10.9007,10.9076,10.9076,10.9007,10.9007,10.9007,10.9007,10.9007,10.9007,10.9007,10.9007,10.9007,10.9007,10.9007,10.9007,10.9145,10.9368,10.9456,10.9421,10.9421,10.918,10.2554,10.3106,10.3244,10.3761,10.4417,10.4486,10.4486,10.4486,10.4486,10.4486,10.4486,10.4486,10.4486,10.4486,10.4486,10.5264,10.6336,10.6612,10.7662,10.88,10.8973,10.9007,10.9007,10.9007,10.9007,10.9007,10.9007,10.9007,10.9007,10.9007,10.9007,10.9007,10.9007,10.9007,10.9007,10.9007,10.9007,10.9007,10.9007,10.9007,10.9007,10.9007,10.9007,10.9007,10.9007,10.9007,10.9007,10.9007,10.9007,10.9007,10.9007,10.9007,10.9007,10.9007,10.9007,10.9007,10.9007,10.9007,10.9007,10.9007,10.9007,10.9007,10.9007,10.9007,10.9007,10.9007,10.9007,10.9007,10.9007,10.9007,10.9007,10.9007,10.9007,10.9007,10.9007,10.9007,10.9007,10.9007,10.9007,10.9007,10.9007,10.9007,10.9007,10.9007,10.9007,10.9007,10.9007,10.9007,10.9007,10.9007,10.9042,10.9111,10.9145,10.9007,10.9007,10.918,10.918,10.9076,10.918,10.9456,10.9456,10.9042,10.9007,10.9265,10.9111,10.9007,10.9007,10.9007,10.9352,10.9559,10.9869,11.0007,10.9938,10.9869,10.9731]},{"header":{"parameterUnit":"m.s-1","parameterCategory":1,"la1":31.0,"la2":29.5877,"lo1":-88.7671,"lo2":-86.6584,"dy":0.0162,"dx":0.0185,"nx":115,"ny":88,"refTime":"2026-03-10T12:00:00:Z","depth":0,"parameterNumber":3,"parameterNumberName":"V-component_of_WINDS"},"data":[0.0,0.0,0.0,0.0,0.0,0.0,0.0,0.0,0.0,0.0,0.0,0.0,0.0,0.0,0.0,0.0,0.0,0.0,0.0,0.0,0.0,0.0,0.0,0.0,0.0,0.0,0.0,0.0,0.0,0.0,0.0,0.0,0.0,0.0,0.0,0.0,0.0,0.0,0.0,0.0,0.0,0.0,0.0,0.0,0.0,0.0,0.0,0.0,0.0,0.0,0.0,0.0,0.0,0.0,0.0,0.0,0.0,0.0,0.0,0.0,0.0,0.0,0.0,0.0,0.0,0.0,0.0,0.0,0.0,0.0,0.0,0.0,0.0,0.0,0.0,0.0,0.0,0.0,0.0,0.0,0.0,0.0,0.0,0.0,0.0,0.0,0.0,0.0,0.0,0.0,0.0,0.0,0.0,0.0,0.0,0.0,0.0,0.0,0.0,0.0,0.0,0.0,0.0,0.0,0.0,0.0,0.0,0.0,0.0,0.0,0.0,0.0,0.0,0.0,0.0,0.0,0.0,0.0,0.0,0.0,0.0,0.0,0.0,0.0,0.0,0.0,0.0,0.0,0.0,0.0,0.0,0.0,0.0,0.0,0.0,0.0,0.0,0.0,0.0,0.0,0.0,0.0,0.0,0.0,0.0,0.0,0.0,0.0,0.0,0.0,0.0,0.0,0.0,0.0,0.0,0.0,0.0,0.0,0.0,0.0,0.0,0.0,0.0,0.0,0.0,0.0,0.0,0.0,0.0,0.0,0.0,0.0,0.0,0.0,0.0,0.0,0.0,0.0,0.0,0.0,0.0,0.0,0.0,0.0,0.0,0.0,0.0,0.0,0.0,0.0,0.0,0.0,0.0,0.0,0.0,0.0,0.0,0.0,0.0,0.0,0.0,0.0,0.0,0.0,0.0,0.0,0.0,0.0,0.0,0.0,0.0,0.0,0.0,0.0,0.0,0.0,0.0,0.0,0.0,0.0,0.0,0.0,0.0,0.0,0.0,0.0,0.0,0.0,0.0,0.0,0.0,0.0,0.0,0.0,0.0,0.0,0.0,0.0,0.0,0.0,0.0,0.0,0.0,0.0,0.0,0.0,0.0,0.0,0.0,0.0,0.0,0.0,0.0,0.0,0.0,0.0,0.0,0.0,0.0,0.0,0.0,0.0,0.0,0.0,0.0,0.0,0.0,0.0,0.0,0.0,0.0,0.0,0.0,0.0,0.0,0.0,0.0,0.0,0.0,0.0,0.0,0.0,0.0,0.0,0.0,0.0,0.0,0.0,0.0,0.0,0.0,0.0,0.0,0.0,0.0,0.0,0.0,0.0,0.0,0.0,0.0,0.0,0.0,0.0,0.0,0.0,0.0,0.0,0.0,0.0,0.0,0.0,0.0,0.0,0.0,0.0,0.0,0.0,0.0,0.0,0.0,0.0,0.0,0.0,0.0,0.0,0.0,0.0,0.0,0.0,0.0,0.0,0.0,0.0,0.0,0.0,0.0,0.0,0.0,0.0,0.0,0.0,0.0,0.0,0.0,0.0,0.0,0.0,0.0,0.0,0.0,0.0,0.0,0.0,0.0,0.0,0.0,0.0,0.0,0.0,0.0,0.0,0.0,0.0,0.0,0.0,0.0,0.0,0.0,0.0,0.0,0.0,0.0,0.0,0.0,0.0,0.0,0.0,0.0,0.0,0.0,0.0,0.0,0.0,0.0,0.0,0.0,0.0,0.0,0.0,0.0,0.0,0.0,0.0,0.0,0.0,0.0,0.0,0.0,0.0,0.0,0.0,0.0,0.0,0.0,0.0,0.0,0.0,0.0,0.0,0.0,0.0,0.0,0.0,0.0,0.0,0.0,0.0,0.0,0.0,0.0,0.0,0.0,0.0,0.0,0.0,0.0,0.0,0.0,0.0,0.0,0.0,0.0,0.0,0.0,0.0,0.0,0.0,0.0,0.0,0.0,0.0,0.0,0.0,0.0,0.0,0.0,0.0,0.0,0.0,0.0,0.0,0.0,0.0,0.0,0.0,0.0,0.0,0.0,0.0,0.0,0.0,0.0,0.0,0.0,0.0,0.0,0.0,0.0,0.0,0.0,0.0,0.0,0.0,0.0,0.0,0.0,0.0,0.0,0.0,0.0,0.0,0.0,0.0,0.0,0.0,0.0,0.0,0.0,0.0,0.0,0.0,0.0,0.0,0.0,0.0,0.0,0.0,0.0,0.0,0.0,0.0,0.0,0.0,0.0,0.0,0.0,0.0,0.0,0.0,0.0,0.0,0.0,0.0,0.0,0.0,0.0,0.0,0.0,0.0,0.0,0.0,0.0,0.0,0.0,0.0,0.0,0.0,0.0,0.0,0.0,0.0,0.0,0.0,0.0,0.0,0.0,0.0,0.0,0.0,0.0,0.0,0.0,0.0,0.0,0.0,0.0,0.0,0.0,0.0,0.0,0.0,0.0,0.0,0.0,0.0,0.0,0.0,0.0,0.0,0.0,0.0,0.0,0.0,0.0,0.0,0.0,0.0,0.0,0.0,0.0,0.0,0.0,0.0,0.0,0.0,0.0,0.0,0.0,0.0,0.0,0.0,0.0,0.0,0.0,0.0,0.0,0.0,0.0,0.0,0.0,0.0,0.0,0.0,0.0,0.0,0.0,0.0,0.0,0.0,0.0,0.0,0.0,0.0,0.0,0.0,0.0,0.0,0.0,0.0,0.0,0.0,0.0,0.0,0.0,0.0,0.0,0.0,0.0,0.0,0.0,0.0,0.0,0.0,0.0,0.0,0.0,0.0,0.0,0.0,0.0,0.0,0.0,0.0,0.0,0.0,0.0,0.0,0.0,0.0,0.0,0.0,0.0,0.0,0.0,0.0,0.0,0.0,0.0,0.0,0.0,0.0,0.0,0.0,0.0,0.0,0.0,0.0,0.0,0.0,0.0,0.0,0.0,0.0,0.0,0.0,0.0,0.0,0.0,0.0,0.0,0.0,0.0,0.0,0.0,0.0,0.0,0.0,0.0,0.0,0.0,0.0,0.0,0.0,0.0,0.0,0.0,0.0,0.0,0.0,0.0,0.0,0.0,0.0,0.0,0.0,0.0,0.0,0.0,0.0,0.0,0.0,0.0,0.0,0.0,0.0,0.0,0.0,0.0,0.0,0.0,0.0,0.0,0.0,0.0,0.0,0.0,0.0,0.0,0.0,0.0,0.0,0.0,0.0,0.0,0.0,0.0,0.0,0.0,0.0,0.0,0.0,0.0,0.0,0.0,0.0,0.0,0.0,0.0,0.0,0.0,0.0,0.0,0.0,0.0,0.0,0.0,0.0,0.0,0.0,0.0,0.0,0.0,0.0,0.0,0.0,0.0,0.0,0.0,0.0,0.0,0.0,0.0,0.0,0.0,0.0,0.0,0.0,0.0,0.0,0.0,0.0,0.0,0.0,0.0,0.0,0.0,0.0,0.0,0.0,0.0,0.0,0.0,0.0,0.0,0.0,0.0,0.0,0.0,0.0,0.0,0.0,0.0,0.0,0.0,0.0,0.0,0.0,0.0,0.0,0.0,0.0,0.0,0.0,0.0,0.0,0.0,0.0,0.0,0.0,0.0,0.0,0.0,0.0,0.0,0.0,0.0,0.0,0.0,0.0,0.0,0.0,0.0,0.0,0.0,0.0,0.0,0.0,0.0,0.0,0.0,0.0,0.0,0.0,0.0,0.0,0.0,0.0,0.0,0.0,0.0,0.0,0.0,0.0,0.0,0.0,0.0,0.0,0.0,0.0,0.0,0.0,0.0,0.0,0.0,0.0,0.0,0.0,0.0,0.0,0.0,0.0,0.0,0.0,0.0,0.0,0.0,0.0,0.0,0.0,0.0,0.0,0.0,0.0,0.0,0.0,0.0,0.0,0.0,0.0,0.0,0.0,0.0,0.0,0.0,0.0,0.0,0.0,0.0,0.0,0.0,0.0,0.0,0.0,0.0,0.0,0.0,0.0,0.0,0.0,0.0,0.0,0.0,0.0,0.0,0.0,0.0,0.0,0.0,0.0,0.0,0.0,0.0,0.0,0.0,0.0,0.0,0.0,0.0,0.0,0.0,0.0,0.0,0.0,0.0,0.0,0.0,0.0,0.0,0.0,0.0,0.0,0.0,0.0,0.0,0.0,0.0,0.0,0.0,0.0,0.0,0.0,0.0,0.0,0.0,0.0,0.0,0.0,0.0,0.0,0.0,0.0,0.0,0.0,0.0,0.0,0.0,0.0,0.0,0.0,0.0,0.0,0.0,0.0,0.0,0.0,1.346,0.0,0.0,0.0,0.0,0.0,0.0,0.0,0.0,0.0,0.0,0.0,0.0,0.0,0.0,0.0,0.0,0.0,0.0,0.0,0.0,0.0,0.0,0.0,0.0,0.0,0.0,0.0,0.0,0.0,0.0,0.0,0.0,0.0,0.0,0.0,0.0,0.0,0.0,0.0,0.0,0.0,0.0,0.0,0.0,0.0,0.0,0.0,0.0,0.0,0.0,0.0,0.0,0.0,0.0,0.0,0.0,0.0,0.0,0.0,0.0,0.0,0.0,0.0,0.0,0.0,0.0,0.0,0.0,0.0,0.0,0.0,0.0,0.0,0.0,0.0,0.0,0.0,0.0,0.0,0.0,0.0,0.0,0.0,0.0,0.0,0.0,0.0,0.0,0.0,0.0,0.0,0.0,0.0,0.0,0.0,0.0,0.0,0.0,0.0,0.0,0.0,0.0,0.0,0.0,0.0,0.0,0.0,0.0,0.0,0.0,1.4316,1.4304,1.4183,1.3918,1.3508,0.0,0.0,0.0,0.0,0.0,0.0,0.0,0.0,0.0,0.0,0.0,0.0,0.0,0.0,0.0,0.0,0.0,0.0,0.0,0.0,0.0,0.0,0.0,0.0,0.0,0.0,0.0,0.0,0.0,0.0,0.0,0.0,0.0,0.0,0.0,0.0,0.0,0.0,0.0,0.0,0.0,0.0,0.0,0.0,0.0,0.0,0.0,0.0,0.0,0.0,0.0,0.0,0.0,0.0,0.0,0.0,0.0,0.0,0.0,0.0,0.0,0.0,0.0,0.0,0.0,0.0,0.0,0.0,0.0,0.0,0.0,0.0,0.0,0.0,0.0,0.0,0.0,0.0,0.0,0.0,0.0,0.0,0.0,0.0,0.0,0.0,0.0,0.0,0.0,0.0,0.0,0.0,0.0,0.0,0.0,0.0,0.0,0.0,0.0,0.0,0.0,0.0,0.0,0.0,0.0,0.0,0.0,0.0,0.0,0.0,0.0,0.0,1.4497,1.4232,1.3701,0.0,0.0,0.0,0.0,0.0,0.0,0.0,0.0,0.0,0.0,0.0,0.0,0.0,0.0,0.0,0.0,0.0,0.0,0.0,0.0,0.0,0.0,0.0,0.0,0.0,0.0,0.0,0.0,0.0,0.0,0.0,0.0,0.0,0.0,0.0,0.0,0.0,0.0,0.0,0.0,0.0,0.0,0.0,0.0,0.0,0.0,0.0,0.0,0.0,0.0,0.0,0.0,0.0,0.0,0.0,0.0,0.0,0.0,0.0,0.0,0.0,0.0,0.0,0.0,0.0,0.0,0.0,0.0,0.0,0.0,0.0,0.0,0.0,0.0,0.0,0.0,0.0,0.0,0.0,0.0,0.0,0.0,0.0,0.0,0.0,0.0,0.0,0.0,0.0,0.0,0.0,0.0,0.0,0.0,0.0,0.0,0.0,0.0,0.0,0.0,0.0,0.0,0.0,0.0,0.0,0.0,0.0,0.0,0.0,0.0,1.4533,1.5016,1.5016,0.0,1.4256,0.0,0.0,0.0,0.0,0.0,0.0,0.0,0.0,0.0,0.0,0.0,0.0,0.0,0.0,0.0,0.0,0.0,0.0,0.0,0.0,0.0,0.0,0.0,0.0,0.0,0.0,0.0,0.0,0.0,0.0,0.0,0.0,0.0,0.0,0.0,0.0,0.0,0.0,0.0,0.0,0.0,0.0,0.0,0.0,0.0,0.0,0.0,0.0,0.0,0.0,0.0,0.0,0.0,0.0,0.0,0.0,0.0,0.0,0.0,0.0,0.0,0.0,0.0,0.0,0.0,0.0,0.0,0.0,0.0,0.0,0.0,0.0,0.0,0.0,0.0,0.0,0.0,0.0,0.0,0.0,0.0,0.0,0.0,0.0,0.0,0.0,0.0,0.0,0.0,0.0,0.0,0.0,0.0,0.0,0.0,0.0,0.0,0.0,0.0,0.0,0.0,0.0,0.0,0.0,0.0,0.0,0.0,0.0,0.0,0.0,1.4871,1.5101,1.4787,1.4521,0.0,0.0,0.0,0.0,0.0,0.0,0.0,0.0,0.0,0.0,0.0,0.0,0.0,0.0,0.0,0.0,0.0,0.0,0.0,0.0,0.0,0.0,0.0,0.0,0.0,0.0,0.0,0.0,0.0,0.0,0.0,0.0,0.0,0.0,0.0,0.0,0.0,0.0,0.0,0.0,0.0,0.0,0.0,0.0,0.0,0.0,0.0,0.0,0.0,0.0,0.0,0.0,0.0,0.0,0.0,0.0,0.0,0.0,0.0,0.0,0.0,0.0,0.0,0.0,0.0,0.0,0.0,0.0,0.0,0.0,0.0,0.0,0.0,0.0,0.0,0.0,0.0,0.0,0.0,0.0,0.0,0.0,0.0,0.0,0.0,0.0,0.0,0.0,0.0,0.0,0.0,0.0,0.0,0.0,0.0,0.0,0.0,0.0,0.0,0.0,0.0,0.0,0.0,0.0,0.0,0.0,0.0,0.0,0.0,0.0,1.498,0.0,1.5185,1.492,1.4509,1.3978,0.0,0.0,0.0,0.0,0.0,0.0,0.0,0.0,0.0,0.0,0.0,0.0,0.0,0.0,0.0,0.0,0.0,0.0,0.0,0.0,0.0,0.0,0.0,0.0,0.0,0.0,0.0,0.0,0.0,0.0,0.0,0.0,0.0,0.0,0.0,0.0,0.0,0.0,0.0,0.0,0.0,0.0,0.0,0.0,0.0,0.0,0.0,0.0,0.0,0.0,0.0,0.0,0.0,0.0,0.0,0.0,0.0,0.0,0.0,0.0,0.0,0.0,0.0,0.0,0.0,0.0,0.0,0.0,0.0,0.0,0.0,0.0,0.0,0.0,0.0,0.0,0.0,0.0,0.0,0.0,0.0,0.0,0.0,0.0,0.0,0.0,0.0,0.0,0.0,0.0,0.0,0.0,0.0,0.0,0.0,0.0,0.0,0.0,0.0,0.0,0.0,0.0,0.0,0.0,0.0,0.0,0.0,0.0,0.0,1.5329,1.5221,1.5487,1.5705,1.4992,0.0,0.0,0.0,0.0,0.0,0.0,0.0,0.0,0.0,0.0,0.0,0.0,0.0,0.0,0.0,0.0,0.0,0.0,0.0,0.0,0.0,0.0,0.0,0.0,0.0,0.0,0.0,0.0,0.0,0.0,0.0,0.0,0.0,0.0,0.0,0.0,0.0,0.0,0.0,0.0,0.0,0.0,0.0,0.0,0.0,0.0,0.0,0.0,0.0,0.0,0.0,0.0,0.0,0.0,0.0,0.0,0.0,0.0,0.0,0.0,0.0,0.0,0.0,0.0,0.0,0.0,0.0,0.0,0.0,0.0,0.0,0.0,0.0,0.0,0.0,0.0,0.0,0.0,0.0,0.0,0.0,0.0,0.0,0.0,0.0,0.0,0.0,0.0,0.0,0.0,0.0,0.0,0.0,0.0,0.0,0.0,0.0,0.0,0.0,0.0,0.0,0.0,0.0,0.0,0.0,0.0,0.0,0.0,0.0,1.4859,1.5029,1.5474,1.6199,1.5366,1.463,0.0,0.0,0.0,0.0,0.0,0.0,0.0,0.0,0.0,0.0,0.0,0.0,0.0,0.0,0.0,0.0,0.0,0.0,0.0,0.0,0.0,0.0,0.0,0.0,0.0,0.0,0.0,0.0,0.0,0.0,0.0,0.0,0.0,0.0,0.0,0.0,0.0,0.0,0.0,0.0,0.0,0.0,0.0,0.0,0.0,0.0,0.0,0.0,0.0,0.0,0.0,0.0,0.0,0.0,0.0,0.0,0.0,0.0,0.0,0.0,0.0,0.0,0.0,0.0,0.0,0.0,0.0,0.0,0.0,0.0,0.0,0.0,0.0,0.0,0.0,0.0,0.0,0.0,0.0,0.0,0.0,0.0,0.0,0.0,0.0,0.0,0.0,0.0,0.0,0.0,0.0,0.0,0.0,0.0,0.0,0.0,0.0,0.0,0.0,0.0,0.0,0.0,0.0,0.0,0.0,0.0,0.0,0.0,0.0,1.4811,0.0,1.5849,0.0,1.5258,1.4401,0.0,0.0,0.0,0.0,0.0,0.0,0.0,0.0,0.0,0.0,0.0,0.0,0.0,0.0,0.0,0.0,0.0,0.0,0.0,0.0,0.0,0.0,0.0,0.0,0.0,0.0,0.0,0.0,0.0,0.0,0.0,0.0,0.0,0.0,0.0,0.0,0.0,0.0,0.0,0.0,0.0,0.0,0.0,0.0,0.0,0.0,0.0,0.0,0.0,0.0,0.0,0.0,0.0,0.0,0.0,0.0,0.0,0.0,0.0,0.0,0.0,0.0,0.0,0.0,0.0,0.0,0.0,0.0,0.0,0.0,0.0,0.0,0.0,0.0,0.0,0.0,0.0,0.0,0.0,0.0,0.0,0.0,0.0,0.0,0.0,0.0,0.0,0.0,0.0,0.0,0.0,0.0,0.0,0.0,0.0,0.0,0.0,0.0,0.0,0.0,0.0,0.0,0.0,0.0,0.0,0.0,0.0,0.0,1.4823,1.5825,1.6368,1.6308,1.5572,1.5487,1.4377,0.0,0.0,0.0,0.0,0.0,0.0,0.0,0.0,0.0,0.0,0.0,0.0,0.0,0.0,0.0,0.0,0.0,0.0,0.0,0.0,0.0,0.0,0.0,0.0,0.0,0.0,0.0,0.0,0.0,0.0,0.0,0.0,0.0,0.0,0.0,0.0,0.0,0.0,0.0,0.0,0.0,0.0,0.0,0.0,0.0,0.0,0.0,0.0,0.0,0.0,0.0,0.0,0.0,0.0,0.0,0.0,0.0,0.0,0.0,0.0,0.0,0.0,0.0,0.0,0.0,0.0,0.0,0.0,0.0,0.0,0.0,0.0,0.0,0.0,0.0,0.0,0.0,0.0,0.0,0.0,0.0,0.0,0.0,0.0,0.0,0.0,0.0,0.0,0.0,0.0,0.0,0.0,0.0,0.0,0.0,0.0,0.0,0.0,0.0,0.0,0.0,0.0,0.0,0.0,0.0,0.0,0.0,0.0,0.0,1.5366,1.6042,1.6575,1.6815,1.5632,1.4775,0.0,0.0,0.0,0.0,0.0,0.0,0.0,0.0,0.0,0.0,0.0,0.0,0.0,0.0,0.0,0.0,0.0,0.0,0.0,0.0,0.0,0.0,0.0,0.0,0.0,0.0,0.0,0.0,0.0,0.0,0.0,0.0,0.0,0.0,0.0,0.0,0.0,0.0,0.0,0.0,0.0,0.0,0.0,0.0,0.0,0.0,0.0,0.0,0.0,0.0,0.0,0.0,0.0,0.0,0.0,0.0,0.0,0.0,0.0,0.0,0.0,0.0,0.0,0.0,0.0,0.0,0.0,0.0,0.0,0.0,0.0,0.0,0.0,0.0,0.0,0.0,0.0,0.0,0.0,0.0,0.0,0.0,0.0,0.0,0.0,0.0,0.0,0.0,0.0,0.0,0.0,0.0,0.0,0.0,0.0,0.0,0.0,0.0,0.0,0.0,0.0,0.0,0.0,0.0,0.0,0.0,0.0,0.0,0.0,1.6634,1.7261,1.7735,1.794,1.6513,1.5523,1.504,0.0,0.0,0.0,0.0,0.0,0.0,0.0,0.0,0.0,0.0,0.0,0.0,0.0,0.0,0.0,0.0,0.0,0.0,0.0,0.0,0.0,0.0,0.0,0.0,0.0,0.0,0.0,0.0,0.0,0.0,0.0,0.0,0.0,0.0,0.0,0.0,0.0,0.0,0.0,0.0,0.0,0.0,0.0,0.0,0.0,0.0,0.0,0.0,0.0,0.0,0.0,0.0,0.0,0.0,0.0,0.0,0.0,0.0,0.0,0.0,0.0,0.0,0.0,0.0,0.0,0.0,0.0,0.0,0.0,0.0,0.0,0.0,0.0,0.0,0.0,0.0,0.0,0.0,0.0,0.0,0.0,0.0,0.0,0.0,0.0,0.0,0.0,0.0,0.0,0.0,0.0,0.0,0.0,0.0,0.0,0.0,0.0,0.0,0.0,0.0,0.0,0.0,0.0,0.0,0.0,0.0,0.0,0.0,1.9185,1.9849,1.9796,1.9004,1.8073,1.6636,0.0,0.0,0.0,0.0,0.0,0.0,0.0,0.0,0.0,0.0,0.0,0.0,0.0,0.0,0.0,0.0,0.0,0.0,0.0,0.0,0.0,0.0,0.0,0.0,0.0,0.0,0.0,0.0,0.0,0.0,0.0,0.0,0.0,0.0,0.0,0.0,0.0,0.0,0.0,0.0,0.0,0.0,0.0,0.0,0.0,0.0,0.0,0.0,0.0,0.0,0.0,0.0,0.0,0.0,0.0,0.0,0.0,0.0,0.0,0.0,0.0,0.0,0.0,0.0,0.0,0.0,0.0,0.0,0.0,0.0,0.0,0.0,0.0,0.0,0.0,0.0,0.0,0.0,0.0,0.0,0.0,0.0,0.0,0.0,0.0,0.0,0.0,0.0,0.0,0.0,0.0,0.0,0.0,0.0,0.0,0.0,0.0,0.0,0.0,0.0,0.0,0.0,0.0,0.0,0.0,0.0,0.0,0.0,0.0,2.0579,2.259,2.3128,2.1964,1.9813,1.823,0.0,0.0,0.0,0.0,0.0,0.0,0.0,0.0,0.0,0.0,0.0,0.0,0.0,0.0,0.0,0.0,0.0,0.0,0.0,0.0,0.0,0.0,0.0,0.0,0.0,0.0,0.0,0.0,0.0,0.0,0.0,0.0,0.0,0.0,0.0,0.0,0.0,0.0,0.0,0.0,0.0,0.0,0.0,0.0,0.0,0.0,0.0,0.0,0.0,0.0,0.0,0.0,0.0,0.0,0.0,0.0,0.0,0.0,0.0,0.0,0.0,0.0,0.0,0.0,0.0,0.0,0.0,0.0,0.0,0.0,0.0,0.0,0.0,0.0,0.0,0.0,0.0,0.0,0.0,0.0,0.0,0.0,0.0,0.0,0.0,0.0,0.0,0.0,0.0,0.0,0.0,0.0,0.0,0.0,0.0,0.0,0.0,0.0,0.0,0.0,0.0,0.0,0.0,0.0,0.0,0.0,0.0,0.0,2.0369,2.2054,2.4869,2.6001,2.5249,2.2345,1.9999,0.0,0.0,0.0,0.0,0.0,0.0,0.0,0.0,0.0,0.0,0.0,0.0,0.0,0.0,0.0,0.0,0.0,0.0,0.0,0.0,0.0,0.0,0.0,0.0,0.0,0.0,0.0,0.0,0.0,0.0,0.0,0.0,0.0,0.0,0.0,0.0,0.0,0.0,0.0,0.0,0.0,0.0,0.0,0.0,0.0,0.0,0.0,0.0,0.0,0.0,0.0,0.0,0.0,0.0,0.0,0.0,0.0,0.0,0.0,0.0,0.0,0.0,0.0,0.0,0.0,0.0,0.0,0.0,0.0,0.0,0.0,0.0,0.0,0.0,0.0,0.0,0.0,0.0,0.0,0.0,0.0,0.0,0.0,0.0,0.0,0.0,0.0,0.0,0.0,0.0,0.0,0.0,0.0,0.0,0.0,0.0,0.0,0.0,0.0,0.0,0.0,0.0,0.0,0.0,0.0,0.0,0.0,0.0,2.1746,2.3607,2.6642,2.8246,2.8149,2.4911,2.1692,0.0,0.0,0.0,0.0,0.0,0.0,0.0,0.0,0.0,0.0,0.0,0.0,0.0,0.0,0.0,0.0,0.0,0.0,0.0,0.0,0.0,0.0,0.0,0.0,0.0,0.0,0.0,0.0,0.0,0.0,0.0,0.0,0.0,0.0,0.0,0.0,0.0,0.0,0.0,0.0,0.0,0.0,0.0,0.0,0.0,0.0,0.0,0.0,0.0,0.0,0.0,0.0,0.0,0.0,0.0,0.0,0.0,0.0,0.0,0.0,0.0,0.0,0.0,0.0,0.0,0.0,0.0,0.0,0.0,0.0,0.0,0.0,0.0,0.0,0.0,0.0,0.0,0.0,0.0,0.0,0.0,0.0,0.0,0.0,0.0,0.0,0.0,0.0,0.0,0.0,0.0,0.0,0.0,0.0,0.0,0.0,0.0,0.0,0.0,0.0,0.0,0.0,0.0,0.0,0.0,0.0,0.0,0.0,2.2737,2.4945,2.7294,2.8512,2.85,2.5159,2.2349,0.0,0.0,0.0,0.0,0.0,0.0,0.0,0.0,0.0,0.0,0.0,0.0,0.0,0.0,0.0,0.0,0.0,0.0,0.0,0.0,0.0,0.0,0.0,0.0,0.0,0.0,0.0,0.0,0.0,0.0,0.0,0.0,0.0,0.0,0.0,0.0,0.0,0.0,0.0,0.0,0.0,0.0,0.0,0.0,0.0,0.0,0.0,0.0,1.4413,0.0,0.0,0.0,0.0,0.0,0.0,0.0,0.0,0.0,0.0,0.0,0.0,0.0,0.0,0.0,0.0,0.0,0.0,0.0,0.0,0.0,0.0,0.0,0.0,0.0,0.0,0.0,0.0,0.0,0.0,0.0,0.0,0.0,0.0,0.0,0.0,0.0,0.0,0.0,0.0,0.0,0.0,0.0,0.0,0.0,0.0,0.0,0.0,0.0,0.0,0.0,0.0,0.0,0.0,0.0,0.0,0.0,0.0,0.0,2.3606,2.5931,2.8053,2.9213,2.9225,2.6673,2.3926,0.0,0.0,0.0,0.0,0.0,0.0,0.0,0.0,0.0,0.0,0.0,0.0,0.0,0.0,0.0,0.0,0.0,0.0,0.0,0.0,0.0,0.0,0.0,0.0,0.0,0.0,0.0,0.0,0.0,0.0,0.0,0.0,0.0,0.0,0.0,0.0,0.0,0.0,0.0,0.0,0.0,0.0,0.0,0.0,0.0,0.0,0.0,0.0,0.0,0.0,0.0,0.0,0.0,0.0,0.0,0.0,0.0,0.0,0.0,0.0,0.0,0.0,0.0,0.0,0.0,0.0,0.0,0.0,0.0,0.0,0.0,0.0,0.0,0.0,0.0,0.0,0.0,0.0,0.0,0.0,0.0,0.0,0.0,0.0,0.0,0.0,0.0,0.0,0.0,0.0,0.0,0.0,0.0,0.0,0.0,0.0,0.0,0.0,0.0,0.0,0.0,0.0,0.0,0.0,0.0,0.0,0.0,2.154,2.4307,2.692,2.891,3.0006,3.0169,2.8361,2.5597,2.188,0.0,0.0,0.0,0.0,0.0,0.0,0.0,0.0,0.0,0.0,0.0,0.0,0.0,0.0,0.0,0.0,0.0,0.0,0.0,0.0,0.0,0.0,0.0,0.0,0.0,0.0,0.0,0.0,0.0,0.0,0.0,0.0,0.0,0.0,0.0,0.0,0.0,0.0,1.3206,1.4039,0.0,0.0,0.0,0.0,0.0,0.0,0.0,0.0,1.4714,0.0,0.0,0.0,0.0,0.0,0.0,0.0,0.0,0.0,0.0,0.0,0.0,0.0,0.0,0.0,0.0,0.0,0.0,0.0,0.0,0.0,0.0,0.0,0.0,0.0,0.0,0.0,0.0,0.0,0.0,0.0,0.0,0.0,0.0,0.0,0.0,0.0,0.0,0.0,0.0,0.0,0.0,0.0,0.0,0.0,0.0,0.0,0.0,0.0,0.0,0.0,0.0,0.0,0.0,0.0,0.0,2.151,2.2375,2.4645,2.8488,2.9849,3.0379,3.0156,2.8593,2.6158,2.2899,0.0,0.0,0.0,0.0,0.0,0.0,0.0,0.0,0.0,0.0,0.0,0.0,0.0,0.0,0.0,0.0,0.0,0.0,0.0,0.0,0.0,0.0,0.0,0.0,0.0,0.0,0.0,0.0,0.0,0.0,0.0,0.0,0.0,0.0,0.0,0.0,0.0,0.0,0.0,1.5862,1.6213,0.0,0.0,0.0,0.0,0.0,0.0,0.0,0.0,1.5281,0.0,0.0,0.0,0.0,0.0,0.0,0.0,0.0,0.0,0.0,0.0,0.0,0.0,0.0,0.0,0.0,0.0,0.0,0.0,0.0,0.0,0.0,0.0,0.0,0.0,0.0,0.0,0.0,0.0,0.0,0.0,0.0,0.0,0.0,0.0,0.0,0.0,0.0,0.0,0.0,0.0,0.0,0.0,0.0,0.0,0.0,0.0,0.0,0.0,0.0,0.0,0.0,0.0,0.0,0.0,2.1371,2.3761,2.6391,2.931,3.059,3.1138,3.093,2.8757,2.6327,0.0,0.0,0.0,0.0,0.0,0.0,0.0,0.0,0.0,0.0,0.0,0.0,0.0,0.0,0.0,0.0,0.0,0.0,0.0,0.0,0.0,0.0,0.0,0.0,0.0,0.0,0.0,0.0,0.0,0.0,0.0,0.0,0.0,0.0,0.0,0.0,0.0,0.0,0.0,0.0,1.6744,1.7361,1.8593,0.0,0.0,0.0,0.0,0.0,0.0,1.6116,1.579,0.0,0.0,0.0,0.0,0.0,0.0,0.0,0.0,0.0,0.0,0.0,0.0,0.0,0.0,0.0,0.0,0.0,0.0,0.0,0.0,0.0,0.0,0.0,0.0,0.0,0.0,0.0,0.0,0.0,0.0,0.0,0.0,0.0,0.0,0.0,0.0,0.0,0.0,0.0,0.0,0.0,0.0,0.0,0.0,0.0,0.0,0.0,0.0,0.0,0.0,0.0,0.0,0.0,0.0,0.0,2.1039,2.4889,2.7908,2.9979,3.1313,3.1864,3.1651,2.8914,2.6394,0.0,0.0,0.0,0.0,0.0,0.0,0.0,0.0,0.0,0.0,0.0,0.0,0.0,0.0,0.0,0.0,0.0,0.0,0.0,0.0,0.0,0.0,0.0,0.0,0.0,0.0,0.0,0.0,0.0,0.0,0.0,0.0,0.0,0.0,0.0,0.0,0.0,0.0,0.0,0.0,0.0,1.8645,1.9922,1.8629,0.0,0.0,0.0,0.0,1.6783,1.7191,0.0,0.0,0.0,0.0,0.0,0.0,0.0,0.0,0.0,0.0,0.0,0.0,0.0,0.0,0.0,0.0,0.0,0.0,0.0,0.0,0.0,0.0,0.0,0.0,0.0,0.0,0.0,0.0,0.0,0.0,0.0,0.0,0.0,0.0,0.0,0.0,0.0,0.0,0.0,0.0,0.0,0.0,0.0,0.0,0.0,0.0,0.0,0.0,0.0,0.0,0.0,0.0,0.0,0.0,0.0,0.0,2.1996,2.5016,2.7944,3.074,3.1963,3.2263,3.1677,2.9257,2.6644,0.0,0.0,0.0,0.0,0.0,0.0,0.0,0.0,0.0,0.0,0.0,0.0,0.0,0.0,0.0,0.0,0.0,0.0,0.0,0.0,0.0,0.0,0.0,0.0,0.0,0.0,0.0,0.0,0.0,0.0,0.0,0.0,0.0,0.0,0.0,0.0,0.0,0.0,0.0,0.0,0.0,2.0156,1.966,1.9189,1.8662,0.0,0.0,1.8983,1.968,2.0821,0.0,0.0,0.0,0.0,0.0,0.0,0.0,0.0,0.0,0.0,0.0,0.0,0.0,0.0,0.0,0.0,0.0,0.0,0.0,0.0,0.0,0.0,0.0,0.0,0.0,0.0,0.0,0.0,0.0,0.0,0.0,0.0,0.0,0.0,0.0,0.0,0.0,0.0,0.0,0.0,0.0,0.0,0.0,0.0,0.0,0.0,0.0,0.0,0.0,0.0,0.0,0.0,0.0,0.0,0.0,2.0278,2.2703,2.672,2.9746,3.1638,3.2577,3.2785,3.2228,2.8894,2.6043,0.0,0.0,0.0,0.0,0.0,0.0,0.0,0.0,0.0,0.0,0.0,0.0,0.0,0.0,0.0,0.0,0.0,0.0,0.0,0.0,0.0,0.0,0.0,0.0,0.0,0.0,0.0,0.0,0.0,0.0,0.0,0.0,0.0,0.0,0.0,0.0,0.0,0.0,0.0,0.0,0.0,0.0,2.1051,2.1008,0.0,0.0,0.0,2.0391,2.0115,0.0,0.0,0.0,0.0,0.0,0.0,0.0,0.0,0.0,0.0,0.0,0.0,0.0,0.0,0.0,0.0,0.0,0.0,0.0,0.0,0.0,0.0,0.0,0.0,0.0,0.0,0.0,0.0,0.0,0.0,0.0,0.0,0.0,0.0,0.0,0.0,0.0,0.0,0.0,0.0,0.0,0.0,0.0,0.0,0.0,0.0,0.0,0.0,0.0,0.0,0.0,0.0,0.0,0.0,0.0,0.0,0.0,2.3252,2.8182,3.1323,3.2483,3.3069,3.3213,3.2743,2.9147,0.0,0.0,0.0,0.0,0.0,0.0,0.0,0.0,0.0,0.0,0.0,0.0,0.0,0.0,0.0,0.0,0.0,0.0,0.0,0.0,0.0,0.0,0.0,0.0,0.0,0.0,0.0,0.9977,0.0,0.0,0.0,0.0,0.0,0.0,0.0,0.0,0.0,0.0,0.0,0.0,0.0,0.0,2.1268,2.1994,2.2381,2.2574,0.0,0.0,2.1752,2.1341,2.2857,2.2804,0.0,0.0,0.0,0.0,0.0,0.0,0.0,0.0,0.0,0.0,0.0,0.0,0.0,0.0,0.0,0.0,0.0,0.0,0.0,0.0,0.0,0.0,0.0,0.0,0.0,0.0,0.0,0.0,0.0,0.0,0.0,0.0,0.0,0.0,0.0,0.0,0.0,0.0,0.0,0.0,0.0,0.0,0.0,0.0,0.0,0.0,0.0,0.0,0.0,0.0,0.0,0.0,0.0,0.0,0.0,2.3838,2.8637,3.1859,3.327,3.3375,3.3375,3.3309,3.0715,2.769,0.0,0.0,0.0,0.0,0.0,0.0,0.0,0.0,0.0,0.0,0.0,0.0,0.0,0.0,0.0,0.0,0.0,0.0,0.0,0.0,0.0,0.0,0.0,0.0,0.0,0.0,0.0,0.0,0.0,0.0,0.0,0.0,0.0,0.0,0.0,0.0,0.0,0.0,0.0,0.0,0.0,2.1764,2.1571,2.2642,2.3824,0.0,0.0,2.3457,2.4809,2.6558,2.6073,2.0961,0.0,0.0,0.0,0.0,0.0,0.0,0.0,0.0,0.0,0.0,0.0,0.0,0.0,0.0,0.0,0.0,0.0,0.0,0.0,0.0,0.0,0.0,0.0,0.0,0.0,0.0,0.0,0.0,0.0,0.0,0.0,0.0,0.0,0.0,0.0,0.0,0.0,0.0,0.0,0.0,0.0,0.0,0.0,0.0,0.0,0.0,0.0,0.0,0.0,0.0,0.0,0.0,0.0,2.2665,2.4324,2.922,3.2398,3.3641,3.3881,3.3762,3.3402,3.1233,2.8385,0.0,0.0,0.0,0.0,0.0,0.0,0.0,0.0,0.0,0.0,0.0,0.0,0.0,0.0,0.0,0.0,0.0,0.0,0.0,0.0,0.0,0.0,0.0,0.0,0.0,0.0,0.0,0.0,1.3581,1.3509,1.265,0.0,0.0,0.0,0.0,0.0,0.0,0.0,0.0,0.0,0.0,2.2435,2.3925,2.4878,0.0,0.0,2.5506,2.5035,2.5126,2.5596,2.4676,2.0912,1.933,0.0,0.0,0.0,0.0,0.0,0.0,0.0,0.0,0.0,0.0,0.0,0.0,0.0,0.0,0.0,0.0,0.0,0.0,0.0,0.0,0.0,0.0,0.0,0.0,0.0,0.0,0.0,0.0,0.0,0.0,0.0,0.0,0.0,0.0,0.0,0.0,0.0,0.0,0.0,0.0,0.0,0.0,0.0,0.0,0.0,0.0,0.0,0.0,0.0,0.0,0.0,0.0,2.2859,2.4599,2.9544,3.2719,3.4002,3.4842,3.4784,3.3705,3.306,3.0564,0.0,0.0,0.0,0.0,0.0,0.0,0.0,0.0,0.0,0.0,0.0,0.0,0.0,0.0,0.0,0.0,0.0,0.0,0.0,0.0,0.0,0.0,0.0,0.0,0.0,0.0,0.0,0.0,1.4533,1.4135,1.2617,0.0,0.0,0.0,0.0,0.0,0.0,0.0,0.0,0.0,0.0,2.3333,2.5074,2.5858,2.6234,2.6234,2.5617,2.5096,2.4909,2.482,2.3842,2.1149,0.0,0.0,0.0,0.0,0.0,0.0,0.0,0.0,0.0,0.0,0.0,0.0,0.0,0.0,0.0,0.0,0.0,0.0,0.0,0.0,0.0,0.0,0.0,0.0,0.0,0.0,0.0,0.0,0.0,0.0,1.4925,0.0,0.0,0.0,0.0,0.0,0.0,0.0,0.0,0.0,0.0,0.0,0.0,0.0,0.0,0.0,0.0,0.0,0.0,0.0,0.0,0.0,0.0,2.2911,2.4644,2.9699,3.2911,3.4396,3.6416,3.6569,3.455,3.6789,3.471,2.754,0.0,0.0,0.0,0.0,0.0,0.0,0.0,0.0,0.0,0.0,0.0,0.0,0.0,0.0,0.0,0.0,0.0,0.0,0.0,0.0,0.0,0.0,0.0,0.0,0.0,0.0,1.3148,1.3605,1.3412,0.0,0.0,0.0,0.0,0.0,0.0,0.0,0.0,0.0,0.0,2.189,2.4439,2.4303,2.4921,2.5509,2.5509,2.4037,2.3263,2.45,2.4943,2.4383,0.0,0.0,0.0,0.0,0.0,0.0,0.0,0.0,0.0,0.0,0.0,0.0,0.0,0.0,0.0,0.0,0.0,0.0,0.0,0.0,0.0,0.0,0.0,0.0,0.0,0.0,0.0,2.0645,1.9222,0.0,0.0,0.0,0.0,0.0,0.0,0.0,0.0,0.0,0.0,0.0,2.5003,2.6481,0.0,0.0,0.0,0.0,0.0,0.0,0.0,0.0,0.0,0.0,0.0,0.0,2.5485,2.719,3.3225,3.7106,3.8505,3.9724,3.9765,3.859,3.904,3.64,3.0279,0.0,0.0,0.0,0.0,0.0,0.0,0.0,0.0,0.0,0.0,0.0,0.0,0.0,0.0,0.0,0.0,0.0,0.0,0.0,0.0,0.0,0.0,0.0,0.0,0.0,1.3544,0.0,0.0,0.0,0.0,0.0,0.0,0.0,0.0,0.0,0.0,0.0,1.7566,1.9866,2.1843,2.3576,2.4922,2.5661,2.648,0.0,0.0,0.0,0.0,0.0,0.0,0.0,0.0,0.0,0.0,0.0,0.0,0.0,0.0,2.2677,1.8145,1.775,1.8234,1.8579,0.0,0.0,0.0,0.0,0.0,0.0,0.0,0.0,0.0,0.0,0.0,0.0,0.0,0.0,2.4447,0.0,2.253,0.0,0.0,0.0,0.0,0.0,0.0,0.0,0.0,2.7106,2.9027,3.0153,3.1626,3.1769,0.0,3.0028,2.7265,0.0,0.0,0.0,0.0,0.0,0.0,0.0,0.0,2.7247,2.9331,3.5262,3.9005,4.0268,4.17,4.1806,4.0515,3.9467,3.7424,3.4271,2.9154,2.5187,0.0,0.0,0.0,0.0,0.0,0.0,0.0,0.0,0.0,0.0,0.0,0.0,0.0,0.0,0.0,0.0,0.0,0.0,0.0,0.0,0.0,0.0,0.0,1.4545,0.0,0.0,0.0,0.0,0.0,0.0,0.0,0.0,0.0,1.5755,1.7394,1.9516,2.183,2.3187,2.4309,2.5281,0.0,0.0,0.0,0.0,0.0,0.0,0.0,2.4032,2.3233,2.315,2.3322,2.3825,2.5497,2.6473,2.5576,0.0,0.0,2.174,2.1293,2.172,2.1992,2.2565,2.3312,2.4344,2.4634,2.5187,0.0,0.0,0.0,0.0,0.0,0.0,0.0,0.0,2.8486,2.8214,0.0,2.6829,0.0,0.0,0.0,0.0,0.0,2.6048,0.0,0.0,3.4855,3.7314,3.5404,3.7159,3.7702,3.6951,3.6456,3.4607,3.134,2.5673,0.0,0.0,0.0,0.0,0.0,0.0,2.8317,3.1246,3.5937,3.8742,3.9827,4.2487,4.2794,4.046,3.8592,3.8144,3.8991,3.409,2.9763,2.6433,2.2946,0.0,0.0,0.0,0.0,0.0,0.0,0.0,0.0,0.0,0.0,0.0,0.0,0.0,0.0,0.0,0.0,0.0,0.0,0.0,0.0,1.544,0.0,0.0,0.0,0.0,0.0,0.0,0.0,0.0,0.0,0.0,1.7984,1.9952,2.216,2.3842,0.0,0.0,0.0,0.0,2.6694,2.5307,2.4777,2.4758,2.5071,2.6082,2.6725,2.6429,0.0,0.0,2.7699,2.8073,2.8154,2.6598,2.8232,2.8781,2.7116,2.6124,2.5707,2.5705,2.5949,2.657,2.8346,2.867,2.9185,3.543,0.0,0.0,0.0,0.0,3.16,3.3169,3.5592,3.5302,3.4234,3.265,3.1599,0.0,0.0,0.0,0.0,0.0,0.0,3.0888,3.3625,3.5692,3.7727,3.9814,4.0657,4.0806,4.029,3.9575,3.8328,3.6474,3.3908,2.9575,2.3697,0.0,0.0,0.0,0.0,3.2508,3.5018,4.0084,4.3203,4.4056,4.5453,4.5674,4.4686,4.3043,4.1928,4.1403,3.7754,3.4261,3.1081,2.8518,0.0,0.0,0.0,0.0,0.0,0.0,0.0,0.0,0.0,0.0,0.0,0.0,0.0,0.0,0.0,0.0,0.0,0.0,0.0,1.4594,1.5595,1.5705,0.0,0.0,0.0,0.0,0.0,0.0,0.0,0.0,0.0,2.2589,2.2656,2.297,0.0,0.0,2.4774,2.4675,2.6094,2.7518,2.863,2.852,0.0,2.9595,2.8938,2.8427,2.8547,3.0126,3.1279,3.1112,3.3201,3.4214,3.2056,3.4659,3.6431,3.4103,3.1269,3.0467,3.2732,3.2839,3.2925,3.5067,3.5782,3.6289,4.1097,3.7411,3.4862,3.4477,3.5577,3.5724,3.7355,3.9811,3.9575,3.8631,3.7266,3.6587,3.4306,3.0896,2.9694,0.0,0.0,0.0,3.4577,3.8163,3.8311,3.9909,4.2582,4.3063,4.3045,4.2619,4.1999,4.1115,4.0049,3.849,3.5009,2.969,0.0,0.0,2.7949,3.2345,3.5685,3.789,4.2185,4.4788,4.543,4.6195,4.6434,4.5993,4.4934,4.3779,4.2568,4.056,3.795,3.4654,3.2398,2.8804,0.0,0.0,0.0,0.0,0.0,0.0,0.0,0.0,0.0,0.0,0.0,1.2566,1.0773,0.0,0.0,0.0,1.4303,1.5511,1.6269,1.7028,0.0,0.0,0.0,0.0,0.0,0.0,0.0,2.044,2.2761,2.5131,2.7281,2.6454,2.5822,2.63,2.63,2.6327,2.6609,0.0,3.0524,3.1837,3.2685,3.3491,3.4314,3.3845,3.3505,3.3955,3.4938,3.5785,3.6094,3.7789,3.8468,3.7562,3.8915,4.0407,3.9699,3.6955,3.535,3.7667,3.7601,3.7825,4.0011,4.0237,4.0489,4.5834,4.5021,4.0196,3.8748,3.9665,4.0031,4.0874,4.1996,4.1996,4.176,4.1396,4.1286,3.9503,3.6494,3.4715,0.0,3.6182,3.6934,3.873,4.1378,4.2091,4.3045,4.4146,4.4512,4.4512,4.4146,4.3756,4.3188,4.2366,4.0508,3.8728,3.708,3.4899,3.3689,3.3543,3.5724,3.7943,4.004,4.2663,4.4256,4.4788,4.5522,4.57,4.5315,4.4879,4.409,4.2935,4.2476,4.0723,3.7427,3.5105,3.2068,2.8064,0.0,0.0,0.0,0.0,0.0,0.0,0.0,0.0,0.0,0.0,0.0,0.0,0.0,0.0,0.0,1.7411,0.0,1.9194,1.9471,0.0,0.0,0.0,1.9238,2.0165,2.2012,2.3535,2.4398,0.0,0.0,3.1921,3.1085,3.0389,3.0842,3.0438,3.0215,3.0434,3.2788,3.4701,3.4937,3.6753,3.83,3.856,3.9188,3.9702,4.0214,4.1181,4.1005,4.1046,4.1432,4.153,4.1059,4.1368,4.1956,4.377,4.2369,4.1323,4.087,4.0708,4.1285,4.3229,4.271,4.2813,4.7039,4.658,4.5333,4.4251,4.3412,4.3503,4.405,4.4838,4.4581,4.4215,4.3779,4.2861,4.1543,3.9907,3.974,4.0052,4.0733,4.1228,4.2146,4.3375,4.3577,4.398,4.4572,4.4659,4.4641,4.4549,4.4457,4.4164,4.3668,4.3191,4.1794,3.9705,3.9357,3.7814,3.5211,3.6824,3.8876,4.1247,4.2553,4.398,4.5577,4.5815,4.57,4.5315,4.4623,4.3815,4.2938,4.2241,4.1169,3.9723,3.8205,3.5775,3.2208,2.7681,0.0,0.0,0.0,0.0,0.0,0.0,0.0,0.0,0.0,1.5238,1.2303,0.0,1.6151,0.0,2.0032,2.1915,2.2697,2.2644,0.0,0.0,2.4161,2.4864,2.5755,2.7842,2.9551,3.0469,3.2331,3.4113,3.5627,3.6118,3.673,3.7652,3.4887,3.3389,3.5218,3.5653,3.6579,3.8286,3.8667,3.9039,4.0735,4.1146,4.1454,4.1468,4.1605,4.1601,4.1627,4.3024,4.3606,4.2263,4.4437,4.5835,4.5002,4.5636,4.6402,4.6214,4.4653,4.3854,4.6169,4.6313,4.6413,4.7852,4.7589,4.7259,4.658,4.5778,4.5755,4.6012,4.6397,4.6195,4.5865,4.5448,4.4421,4.3503,4.2736,4.2935,4.3155,4.3375,4.3595,4.4035,4.4618,4.4801,4.5118,4.5485,4.5503,4.5503,4.5485,4.5136,4.4861,4.4618,4.4457,4.3687,4.2384,4.2608,4.1503,3.9226,3.8953,3.9522,4.088,4.2402,4.4054,4.5834,4.5718,4.5095,4.3976,4.3375,4.2219,4.051,4.0015,3.9336,3.8366,3.7319,3.5631,3.3212,2.9484,2.6099,0.0,0.0,0.0,0.0,0.0,0.0,0.0,0.0,0.0,0.0,0.0,1.9962,2.1452,2.3357,2.5021,2.6199,2.668,2.7314,2.8233,2.896,2.9799,3.0834,3.2371,3.3673,3.4647,3.5902,3.7446,3.9326,3.9409,4.0406,4.3128,4.0651,3.8621,3.9018,3.9522,4.0566,4.1949,4.258,4.3216,4.4498,4.4641,4.4624,4.4641,4.4649,4.4624,4.4649,4.5597,4.604,4.5094,4.6683,4.7921,4.6808,4.7399,4.8286,4.8107,4.7057,4.6563,4.7679,4.7956,4.8072,4.8311,4.8237,4.7552,4.7259,4.7259,4.7259,4.7204,4.7112,4.7167,4.691,4.6457,4.5755,4.5223,4.4843,4.4861,4.4861,4.4843,4.4843,4.5081,4.5462,4.581,4.614,4.6494,4.6512,4.6476,4.6379,4.57,4.537,4.537,4.5026,4.4751,4.4549,4.4549,4.4109,4.3155,4.1158,4.0132,4.0148,4.2457,4.4347,4.5682,4.5297,4.4123,4.2237,4.1647,4.0086,3.7464,3.7227,3.6695,3.565,3.4899,3.4073,3.3138,3.0384,2.7922,0.0,2.3816,0.0,0.0,0.0,0.0,0.0,0.0,0.0,0.0,2.4162,2.5045,2.6081,2.7247,2.8556,3.0041,3.1232,3.229,3.3228,3.3809,3.4509,3.5471,3.6329,3.721,3.8145,3.8754,4.0233,4.2795,4.2039,4.2956,4.6435,4.585,4.4115,4.2789,4.3456,4.4457,4.5286,4.7032,4.7555,4.7846,4.8088,4.8063,4.8162,4.797,4.8311,4.8044,4.8162,4.8236,4.8162,4.8162,4.8286,4.8286,4.8286,4.8311,4.8311,4.8132,4.8132,4.8249,4.8274,4.8311,4.8311,4.8292,4.8121,4.809,4.809,4.809,4.7699,4.713,4.7442,4.7191,4.6494,4.6347,4.6054,4.5705,4.5663,4.5687,4.5663,4.5663,4.5889,4.6274,4.6347,4.6421,4.6512,4.6512,4.6329,4.6035,4.587,4.5773,4.5792,4.5723,4.5003,4.3779,4.3719,4.3008,4.1635,0.0,0.0,0.0,4.3412,4.4623,4.4879,4.4196,4.3045,4.1378,4.0253,0.0,3.7006,3.6273,3.5815,3.5595,3.5156,0.0,0.0,0.0,0.0,0.0,0.0,0.0,0.0,0.0,0.0,0.0,2.8468,2.6932,2.5185,2.8077,3.0004,2.9811,3.2012,3.3989,3.5231,3.5859,3.6488,3.7181,3.8888,3.9845,3.9307,4.1088,4.2734,4.3232,4.3669,4.4372,4.5417,4.5778,4.6234,4.7387,4.7636,4.7446,4.6932,4.5725,4.5703,4.7306,4.802,4.8311,4.8311,4.8311,4.8311,4.8311,4.8311,4.8311,4.8311,4.8311,4.8311,4.8311,4.8311,4.8311,4.8311,4.8311,4.8311,4.8311,4.8311,4.8311,4.8311,4.8311,4.8311,4.8311,0.0,4.8084,4.8017,0.0,4.7992,4.7754,4.7424,4.7827,4.7534,4.68,4.6782,4.6452,4.5883,4.5883,4.5883,4.5883,4.5883,4.6127,4.6494,4.6512,4.6623,4.6806,4.6604,4.6384,4.6177,4.5999,4.5883,4.5883,4.5883,4.548,4.4691,4.4696,4.4292,4.3503,4.3646,4.3485,4.2898,4.3889,4.4696,4.5223,4.4691,4.354,4.1742,4.0494,0.0,0.0,0.0,0.0,0.0,0.0,0.0,0.0,0.0,0.0,3.3414,3.1766,3.0962,3.1438,3.1336,3.2188,3.4342,3.4701,3.3661,3.0898,3.2661,3.4356,3.5446,3.6351,3.7461,3.9039,3.9752,4.0318,4.0858,4.2072,4.272,4.2568,4.3561,4.4526,4.4953,4.5375,4.5828,4.6421,4.7039,4.7442,4.7681,4.8029,4.8311,4.8236,4.7399,4.7157,4.8119,4.8311,4.8311,4.8311,4.8311,4.8311,4.8311,4.8311,4.8311,4.8311,4.8311,4.8311,4.8311,4.8311,4.8311,4.8311,4.8311,4.8311,4.8311,4.8311,4.8311,4.8311,4.8311,4.8439,4.8476,4.8402,4.8121,4.7944,4.7809,4.7882,4.7864,4.7827,0.0,0.0,0.0,4.7204,4.68,4.6122,4.6054,4.6054,4.6103,4.598,4.614,4.6604,4.6531,4.669,4.7075,4.6745,4.6567,4.6476,4.6182,4.598,4.5902,4.5883,4.5883,4.5883,4.5883,4.5883,4.5883,4.5883,4.5448,4.4568,4.4384,4.4806,4.576,4.5388,4.427,4.2326,4.1118,3.9247,3.6622,3.5724,3.5009,3.4367,3.4331,3.4569,3.5082,3.5064,3.5284,3.5797,3.5852,3.6201,3.6916,3.7337,3.7942,3.8805,3.9909,3.956,3.7227,3.7123,3.8221,4.0702,4.004,4.0217,4.1939,4.2747,4.3338,4.3705,4.4068,4.4435,4.4728,4.4953,4.5191,4.548,4.5883,4.6274,4.6714,4.7301,4.7736,4.7827,4.8084,4.8311,4.8311,4.8211,4.8137,4.8286,4.8311,4.8311,4.8311,4.8311,4.8311,4.8311,4.8311,4.8311,4.8311,4.8311,4.8311,4.8311,4.8311,4.8311,4.8311,4.8311,4.8311,4.8311,4.8311,4.8341,4.8494,4.8451,4.8598,4.9129,4.8829,4.9129,4.8854,4.8231,4.8579,4.8543,4.8237,4.8292,4.8054,4.7626,4.7607,4.7369,4.6886,4.6586,4.6623,4.6892,4.6213,4.6287,4.6984,4.6678,4.669,4.7094,4.7039,4.6837,4.6512,4.6415,4.6237,4.592,4.5883,4.5883,4.5883,4.5883,4.5883,4.5883,4.5883,4.5975,4.6145,4.548,4.5205,4.537,4.499,4.398,4.2366,4.1176,3.965,3.7833,3.7006,3.6493,3.6383,3.6365,3.6879,3.7904,3.7685,3.7978,3.9005,3.9173,3.9414,3.9872,4.0256,4.099,4.2091,4.2696,4.2256,4.0604,4.0725,4.1397,4.2476,4.2612,4.3071,4.3701,4.4164,4.4439,4.4549,4.4893,4.515,4.5278,4.5834,4.6219,4.6311,4.669,4.7057,4.7387,4.7607,4.7846,4.8127,4.8255,4.8311,4.8311,4.8311,4.8311,4.8311,4.8311,4.8311,4.8311,4.8311,4.8311,4.8311,4.8311,4.8311,4.8311,4.8311,4.8311,4.8311,4.8311,4.8311,4.8311,4.8311,4.8329,4.8329,4.8366,4.8506,4.9056,4.8983,4.8854,4.9386,4.9258,4.9423,4.9294,4.8946,4.9148,4.9129,4.8928,4.8708,4.8267,4.7717,4.7699,4.7479,4.7112,4.691,4.691,4.707,4.6709,4.6874,4.7369,4.7002,4.7039,4.7387,4.718,4.7002,4.6819,4.6819,4.6641,4.6256,4.6237,4.6127,4.5902,4.5883,4.5883,4.5902,4.6127,4.6195,4.6182,4.6012,4.6048,4.6245,4.6103,4.5558,4.4586,4.3412,4.2329,4.1335,4.0327,3.9775,3.9795,3.9777,4.0143,4.0877,4.0749,4.1005,4.1757,4.1834,4.1925,4.2109,4.2494,4.3045,4.3797,4.4233,4.4178,4.3426,4.3155,4.3246,4.3797,4.4054,4.4329,4.471,4.5095,4.5448,4.565,4.603,4.6269,4.6305,4.6562,4.6819,4.6855,4.7185,4.7497,4.7681,4.7882,4.8066,4.8292,4.8311,4.8311,4.8311,4.8311,4.8311,4.8311,4.8311,4.8311,4.8311,4.8311,4.8311,4.8311,4.8311,4.8311,4.8311,4.8311,4.8311,4.8311,4.8311,4.8311,4.8311,4.8311,4.8402,4.8598,4.8634,4.8836,4.9074,4.8994,4.8976,4.9716,4.9643,4.9735,4.9735,4.9643,4.9551,4.9514,4.9478,4.9141,4.8689,4.8121,4.7919,4.7662,4.7387,4.7277,4.7277,4.7351,4.7185,4.7314,4.7626,4.7295,4.7314,4.7644,4.7369,4.724,4.724,4.7216,4.702,4.6654,4.6641,4.6494,4.6195,4.6158,4.6158,4.6177,4.6494,4.6507,4.6324,4.6599,4.6874,4.7094,4.7277,4.7167,4.6751,4.5778,4.5063,4.4623,4.3668,4.3118,4.3118,4.3118,4.3246,4.354,4.3577,4.3687,4.3907,4.3995,4.4086,4.4178,4.4476,4.4824,4.521,4.5517,4.57,4.5663,4.5132,4.4838,4.5063,4.5141,4.5283,4.5663,4.5975,4.6287,4.6599,4.691,4.7039,4.7094,4.7185,4.724,4.7277,4.7589,4.7827,4.7907,4.8127,4.8292,4.8292,4.8311,4.8311,4.8311,4.8366,4.8439,4.8329,4.8311,4.8311,4.8311,4.8311,4.8311,4.8311,4.8311,4.8311,4.8311,4.8311,4.8311,4.8311,4.8311,4.8311,4.8311,4.8311,4.8421,4.8616,4.8671,4.8763,4.8884,4.9013,4.9104,5.0369,5.0131,5.0406,5.0369,5.0021,4.968,4.9533,4.9533,4.9459,4.9397,4.9239,4.8561,4.8255,4.8121,4.7852,4.7864,4.8102,4.7442,4.7369,4.7681,4.7295,4.7332,4.7736,4.7681,4.7644,4.7662,4.7662,4.7479,4.7094,4.7039,4.702,4.7002,4.7002,4.6965,4.6984,4.702,4.7204,4.7516,4.7571,4.7424,4.7167,4.7809,4.8017,4.7589,4.7112,4.669,4.6237,4.5834,4.5553,4.5577,4.5522,4.5558,4.5595,4.5613,4.5485,4.5168,4.5462,4.5834,4.6164,4.6256,4.6379,4.6837,4.6855,4.6892,4.6886,4.6855,4.6672,4.6421,4.6329,4.6434,4.685,4.6947,4.7002,4.713,4.7149,4.7088,4.724,4.7424,4.7644,4.7644,4.8066,4.8231,4.8249,4.8329,4.8329,4.8359,4.8439,4.8457,4.8476,4.8671,4.8726,4.8457,4.8329,4.8329,4.8311,4.8311,4.8311,4.8311,4.8311,4.8311,4.8311,4.8311,4.8311,4.8311,4.8311,4.8311,4.8311,4.8311,4.8329,4.8494,4.8524,4.8487,4.8836,4.9093,4.9313,5.0607,5.0461,5.0625,5.0607,5.0424,5.0277,5.023,5.0211,4.9947,4.9856,4.9782,4.9258,4.9001,4.8983,4.8836,4.8854,4.8983,4.8671,4.8598,4.8744,4.8598,4.8616,4.8744,4.8763,4.8763,4.8744,4.8524,4.8194,4.7791,4.7332,4.7088,4.7088,4.7088,4.7088,4.7112,4.7332,4.74,4.7351,4.7809,4.7864,4.7571,4.7992,4.8212,4.8054,4.7662,4.7387,4.7185,4.6819,4.6617,4.6617,4.6599,4.6617,4.6617,4.6617,4.6544,4.6373,4.6501,4.669,4.6837,4.6837,4.6929,4.707,4.7332,4.7461,4.7497,4.7882,4.7992,4.7571,4.713,4.702,4.7387,4.7436,4.7644,4.8011,4.7956,4.7999,4.8487,4.8432,4.8487,4.8726,4.8909,4.8891,4.8726,4.8653,4.8653,4.8689,4.8836,4.8964,4.9001,4.9166,4.9166,4.9019,4.8818,4.8543,4.8384,4.8311,4.8311,4.8311,4.8311,4.8311,4.8311,4.8311,4.8311,4.8311,4.8311,4.8311,4.8311,4.8329,4.8322,4.8469,4.8653,4.8708,4.8873,4.8836,4.8799,5.0864,5.0845,5.0864,5.0919,5.101,5.09,5.0864,5.079,5.0442,5.0259,5.0241,4.9947,4.9845,4.9808,4.9606,4.9514,4.9514,4.9514,4.9514,4.9514,4.9514,4.9496,4.9514,4.9514,4.9514,4.9459,4.9177,4.8854,4.8476,4.8047,4.7662,4.7479,4.7534,4.7534,4.7461,4.7736,4.7717,4.7516,4.8011,4.8164,4.7937,4.8164,4.8311,4.8274,4.8011,4.7925,4.8011,4.7754,4.7583,4.7607,4.7607,4.7534,4.7442,4.7442,4.7424,4.7406,4.7314,4.7369,4.7546,4.7607,4.7644,4.7772,4.8047,4.8194,4.8286,4.8744,4.8909,4.8659,4.8102,4.7919,4.7974,4.8121,4.8444,4.8939,4.8781,4.8891,4.9349,4.9221,4.9166,4.9459,4.9404,4.9404,4.9148,4.9074,4.9049,4.9111,4.9313,4.9514,4.9533,4.9569,4.9643,4.9533,4.9331,4.9056,4.8579,4.8366,4.8329,4.8311,4.8311,4.8311,4.8311,4.8311,4.8311,4.8311,4.8311,4.8311,4.8311,4.8329,4.8322,4.8616,4.8744,4.8708,4.8671,4.8469,4.8366,5.1249,5.1249,5.1275,5.1469,5.1817,5.1458,5.1267,5.123,5.0845,5.068,5.0688,5.0607,5.0625,5.0534,4.9892,4.9533,4.9533,4.9569,4.9588,4.9588,4.9569,4.9533,4.9514,4.9514,4.9533,4.9606,4.9507,4.9251,4.8903,4.9159,4.9001,4.8286,4.8579,4.8616,4.8304,4.8292,4.8249,4.8212,4.8311,4.8311,4.8249,4.8292,4.8347,4.8347,4.8274,4.8414,4.8744,4.8818,4.8781,4.8799,4.8719,4.8616,4.8292,4.8255,4.8231,4.8212,4.7925,4.8029,4.8671,4.8738,4.8909,4.9258,4.9239,4.9368,4.9258,4.9386,4.9423,4.9423,4.9331,4.9203,4.8928,4.9056,4.9294,4.9441,4.9441,4.9441,4.9533,4.9551,4.9496,4.9551,4.9569,4.9551,4.9478,4.9478,4.9452,4.9452,4.9514,4.9588,4.968,4.9874,4.9892,4.9746,4.9746,4.9764,4.9031,4.8708,4.8476,4.8329,4.8347,4.8329,4.8311,4.8311,4.8311,4.8311,4.8311,4.8311,4.8311,4.8311,4.8311,4.8421,4.8439,4.8421,4.8469,4.8384,4.8311,5.1689,5.1689,5.1689,5.178,5.189,5.1744,5.1689,5.1652,5.1275,5.1092,5.1055,5.0809,5.0699,5.068,5.0688,5.0523,5.0303,5.0285,5.0259,5.0285,5.0285,5.0285,5.0285,5.0285,5.0259,5.0222,5.0002,4.9698,4.9324,4.9441,4.9368,4.9148,4.9203,4.9203,4.9093,4.9056,4.8946,4.8708,4.8689,4.8586,4.8384,4.8543,4.8689,4.8671,4.8432,4.8384,4.8506,4.8506,4.8506,4.8506,4.8763,4.8854,4.8744,4.8928,4.9056,4.9056,4.8928,4.8983,4.9239,4.9294,4.9349,4.9478,4.9514,4.9533,4.9551,4.9709,4.9764,4.9661,5.0002,5.0083,4.9727,4.9588,4.9606,4.9801,4.9654,4.9735,5.0083,5.0039,4.9966,5.0149,5.0057,4.9892,4.9874,4.99,4.9874,4.9911,5.0094,5.0204,5.0259,5.0406,5.0387,5.0277,5.0167,5.0021,4.9782,4.9349,4.8983,4.8622,4.8439,4.8457,4.8457,4.8347,4.8311,4.8311,4.8311,4.8311,4.8311,4.8311,4.8311,4.8311,4.8311,4.8311,4.8311,4.8311,4.8311,5.2092,5.2092,5.2092,5.2157,5.2275,5.2147,5.211,5.2028,5.167,5.1414,5.1293,5.112,5.101,5.0974,5.133,5.1359,5.1084,5.0955,5.0882,5.0908,5.0882,5.0809,5.0717,5.0853,5.0809,5.068,5.0424,5.0076,4.9746,4.9819,4.9753,4.9514,4.9624,4.9624,4.9533,4.9514,4.9349,4.9148,4.9093,4.8946,4.8744,4.8946,4.9093,4.9056,4.8818,4.8696,4.8671,4.8696,4.8622,4.8579,4.8976,4.9239,4.9122,4.9324,4.9514,4.9514,4.9496,4.9569,4.968,4.9698,4.9771,4.9881,4.99,4.99,4.9918,5.0156,5.0112,5.0101,5.0314,5.0552,5.0332,5.0065,5.001,5.0204,5.0039,5.0101,5.0589,5.0442,5.0424,5.0552,5.0442,5.0314,5.0296,5.0296,5.0296,5.0296,5.0552,5.068,5.0699,5.0699,5.0699,5.068,5.0461,5.0259,5.0112,4.9856,4.9533,4.9148,4.8744,4.8708,4.8598,4.8451,4.8347,4.8329,4.8311,4.8311,4.8311,4.8311,4.8311,4.8311,4.8311,4.8311,4.8311,4.8311,4.8347,5.2495,5.2495,5.2513,5.2697,5.2917,5.2642,5.2495,5.244,5.2092,5.1725,5.1505,5.1707,5.1597,5.1432,5.1725,5.189,5.1799,5.1505,5.1322,5.1312,5.1285,5.1102,5.0845,5.1165,5.112,5.0809,5.0699,5.0479,5.0186,5.0406,5.0266,4.9727,4.9973,4.9973,4.9551,4.9624,4.9569,4.9514,4.9514,4.9478,4.9496,4.9478,4.9533,4.9551,4.9496,4.9478,4.9496,4.9459,4.9239,4.9013,4.9617,4.9874,4.9606,4.9588,4.9569,4.9606,4.9569,4.9727,5.0076,5.0149,5.0332,5.0625,5.0725,5.0706,5.0625,5.0662,5.0662,5.0589,5.0662,5.0717,5.0717,5.0699,5.0688,5.068,5.057,5.0589,5.0662,5.068,5.0699,5.0717,5.068,5.068,5.0699,5.0644,5.0607,5.0625,5.0662,5.0699,5.0699,5.0699,5.0699,5.0699,5.0625,5.0479,5.0424,5.0351,5.0021,4.9716,4.9313,4.9056,4.8891,4.8744,4.8524,4.8494,4.8347,4.8347,4.8476,4.8457,4.8329,4.8311,4.8311,4.8402,4.8457,4.8469,4.8414,5.2898,5.2898,5.2898,5.2972,5.3063,5.2953,5.2898,5.2862,5.2477,5.2238,5.211,5.1964,5.1835,5.1835,5.2128,5.2312,5.2312,5.2165,5.1982,5.1762,5.1725,5.1652,5.156,5.1652,5.1652,5.145,5.0937,5.079,5.0882,5.0798,5.056,5.0387,5.0468,5.0468,5.034,5.034,5.0204,4.9947,4.9911,4.9808,4.9569,4.9764,5.0021,5.0259,5.0057,5.0021,5.0277,4.9808,4.9459,4.9313,4.9819,5.0167,5.0303,5.0314,5.034,5.0314,5.034,5.0523,5.0845,5.0945,5.1084,5.1414,5.1524,5.1377,5.1165,5.1102,5.1,5.0835,5.0963,5.1128,5.1165,5.1377,5.1267,5.0754,5.0699,5.0735,5.0772,5.0735,5.0827,5.101,5.089,5.0853,5.0974,5.0937,5.0772,5.0754,5.0735,5.0717,5.0699,5.0717,5.0699,5.0699,5.068,5.0662,5.0589,5.0534,5.0387,5.0138,4.9764,4.9434,4.9251,4.8994,4.8799,4.8671,4.8506,4.8451,4.8579,4.8598,4.8531,4.8476,4.8567,4.8616,4.8689,4.8708,4.8708,5.3109,5.3109,5.3109,5.3109,5.3109,5.3109,5.3109,5.3091,5.2852,5.2669,5.2477,5.2403,5.2257,5.2238,5.2532,5.2715,5.2715,5.2742,5.2587,5.2348,5.2165,5.2055,5.1945,5.1909,5.1909,5.1835,5.1395,5.1285,5.1487,5.1285,5.1139,5.1139,5.1139,5.1073,5.0937,5.09,5.0717,5.0387,5.0332,5.0186,5.0039,5.0186,5.0516,5.079,5.0534,5.0552,5.0827,5.0431,4.9955,4.968,4.9874,5.0332,5.0827,5.09,5.0974,5.112,5.1157,5.1267,5.1513,5.1505,5.1615,5.1854,5.1909,5.1799,5.156,5.1524,5.1377,5.1249,5.1377,5.1524,5.156,5.1725,5.1634,5.123,5.1175,5.1139,5.1139,5.1139,5.123,5.1414,5.1322,5.1304,5.1359,5.134,5.1157,5.1139,5.101,5.0919,5.0908,5.079,5.0754,5.0717,5.068,5.068,5.068,5.068,5.068,5.0479,5.0241,4.9947,4.9709,4.9361,4.9129,4.9111,4.8983,4.8818,4.8891,4.8946,4.8909,4.8891,4.8836,4.9001,4.9129,4.9129,4.9129,5.3109,5.3109,5.3109,5.3146,5.3182,5.3182,5.321,5.3219,5.3164,5.2935,5.2752,5.288,5.2825,5.266,5.2907,5.3045,5.3146,5.3146,5.3155,5.3045,5.2807,5.2458,5.2147,5.2055,5.2055,5.2055,5.1909,5.1872,5.1927,5.1817,5.1882,5.1799,5.1762,5.1707,5.1377,5.1322,5.1157,5.0882,5.079,5.079,5.0772,5.0772,5.0974,5.134,5.1029,5.0992,5.1322,5.1249,5.0761,4.99,5.0131,5.0607,5.1157,5.1348,5.1487,5.178,5.1872,5.189,5.1927,5.2019,5.2037,5.2065,5.2165,5.1937,5.1964,5.1927,5.1872,5.178,5.1872,5.1945,5.1945,5.2037,5.2019,5.1982,5.1835,5.1799,5.1872,5.1835,5.1835,5.189,5.1927,5.1882,5.1909,5.1872,5.1817,5.1762,5.1505,5.1385,5.1267,5.112,5.0845,5.079,5.0845,5.0754,5.0772,5.0699,5.0699,5.0625,5.0479,5.0314,5.0094,4.9764,4.9526,4.9489,4.9423,4.9276,4.9203,4.9276,4.9221,4.9093,4.9184,4.9441,4.9533,4.9526,4.9526,5.3109,5.3109,5.3109,5.3265,5.3522,5.3531,5.3723,5.3925,5.365,5.3485,5.3347,5.3155,5.3082,5.298,5.3091,5.3247,5.3485,5.354,5.3723,5.3888,5.3576,5.3173,5.277,5.2477,5.2495,5.2669,5.2238,5.2055,5.2293,5.2092,5.1964,5.1909,5.1964,5.189,5.1762,5.1744,5.1707,5.1597,5.1579,5.156,5.156,5.156,5.178,5.2092,5.178,5.1799,5.2092,5.189,5.1652,5.1322,5.1073,5.1194,5.167,5.1762,5.1835,5.1945,5.1982,5.2073,5.2348,5.2623,5.2797,5.2807,5.2981,5.2972,5.2385,5.2348,5.2202,5.2055,5.2147,5.2348,5.2385,5.2587,5.2733,5.2697,5.2348,5.2037,5.1964,5.1909,5.2019,5.2257,5.211,5.2128,5.222,5.2147,5.1982,5.1945,5.1854,5.1744,5.1689,5.1597,5.1359,5.1175,5.112,5.0955,5.0827,5.0735,5.0699,5.0699,5.0625,5.0607,5.0406,5.0186,5.0021,4.9929,4.9746,4.9581,4.9599,4.9672,4.9533,4.9404,4.9661,4.9911,4.9929,4.9929,4.9947,5.3595,5.3595,5.3595,5.3741,5.3943,5.3934,5.409,5.4236,5.4071,5.3961,5.3906,5.3723,5.3595,5.3622,5.3641,5.3723,5.3943,5.3961,5.409,5.4218,5.4053,5.3631,5.3155,5.2825,5.288,5.3035,5.2642,5.2568,5.2678,5.2513,5.2422,5.244,5.2403,5.233,5.2165,5.2147,5.2073,5.1945,5.1909,5.1909,5.1909,5.1909,5.2238,5.2532,5.2385,5.2385,5.2843,5.2623,5.2275,5.1945,5.1689,5.1725,5.211,5.233,5.2403,5.2422,5.2697,5.299,5.3045,5.3375,5.3576,5.3631,5.3851,5.3705,5.3393,5.3247,5.31,5.278,5.2917,5.2898,5.2843,5.31,5.3228,5.3082,5.2972,5.2752,5.2458,5.244,5.2513,5.2623,5.2568,5.2458,5.2742,5.2513,5.244,5.2385,5.2293,5.2202,5.2128,5.2019,5.1872,5.1652,5.1524,5.1414,5.1249,5.1139,5.1029,5.0974,5.0864,5.0827,5.0717,5.0552,5.0406,5.0259,5.0076,4.9966,4.9966,5.0002,5.0002,5.0028,5.0222,5.0296,5.0314,5.0259,5.0277,5.4282,5.431,5.431,5.4328,5.4365,5.4365,5.442,5.4438,5.4401,5.4365,5.4328,5.431,5.4181,5.4282,5.4145,5.431,5.4365,5.4365,5.4365,5.4401,5.431,5.3998,5.3412,5.3347,5.3329,5.3302,5.3237,5.3164,5.3146,5.3082,5.3072,5.2999,5.3017,5.288,5.2623,5.2568,5.2367,5.2183,5.2165,5.2238,5.2257,5.2275,5.2568,5.3137,5.3027,5.3118,5.3485,5.3375,5.2935,5.222,5.2102,5.2385,5.2715,5.3091,5.3219,5.3302,5.3705,5.398,5.3888,5.4071,5.4291,5.4236,5.4273,5.4328,5.4181,5.409,5.3961,5.365,5.3696,5.3467,5.3302,5.3522,5.3613,5.3485,5.387,5.3851,5.3457,5.3201,5.3182,5.3137,5.3118,5.3109,5.3109,5.3109,5.3072,5.277,5.266,5.2587,5.2513,5.2422,5.2238,5.2019,5.1945,5.1927,5.1744,5.156,5.145,5.1359,5.1194,5.1102,5.1029,5.0882,5.0735,5.057,5.0369,5.0259,5.0241,5.0277,5.0369,5.0387,5.0424,5.0552,5.0644,5.0552,5.0516,5.4282,5.4282,5.4282,5.4493,5.4731,5.4768,5.4951,5.5208,5.4896,5.4768,5.4695,5.4456,5.4346,5.4346,5.4401,5.4475,5.475,5.4768,5.4768,5.4768,5.4768,5.4511,5.4108,5.4053,5.4035,5.3943,5.3705,5.3595,5.354,5.332,5.3127,5.3137,5.3219,5.3063,5.3008,5.3008,5.2962,5.287,5.2825,5.2972,5.3137,5.2953,5.3192,5.3906,5.3925,5.3998,5.4108,5.409,5.3961,5.376,5.354,5.3476,5.3778,5.3943,5.3998,5.4035,5.4163,5.4291,5.4273,5.4511,5.4621,5.4438,5.4621,5.464,5.4328,5.4365,5.4291,5.4126,5.3879,5.3714,5.3631,5.3943,5.4035,5.4053,5.4181,5.4291,5.4035,5.376,5.3558,5.3522,5.3302,5.3127,5.3146,5.3201,5.3182,5.3082,5.3045,5.2972,5.288,5.2788,5.2605,5.2385,5.2367,5.233,5.2165,5.1964,5.178,5.1652,5.1487,5.1414,5.134,5.1194,5.1047,5.0864,5.0662,5.0607,5.0699,5.0662,5.0772,5.0699,5.0699,5.0864,5.0955,5.0864,5.0864,5.4878,5.485,5.485,5.4988,5.5171,5.5161,5.5318,5.5446,5.5271,5.5189,5.5153,5.4951,5.4878,5.4878,5.4878,5.5025,5.5153,5.5189,5.5189,5.5189,5.5189,5.5079,5.4933,5.4823,5.4731,5.4365,5.4108,5.3998,5.3906,5.3778,5.3705,5.365,5.365,5.3705,5.365,5.3631,5.3668,5.3613,5.3467,5.3576,5.3851,5.3613,5.376,5.4475,5.475,5.4878,5.485,5.4878,5.4878,5.4823,5.4648,5.452,5.4566,5.4585,5.4585,5.4603,5.4805,5.4731,5.475,5.4933,5.5116,5.4896,5.5079,5.5043,5.4905,5.4878,5.475,5.4603,5.4383,5.4218,5.4035,5.4346,5.4493,5.442,5.463,5.474,5.4548,5.409,5.3815,5.3851,5.365,5.3595,5.3558,5.354,5.3467,5.3503,5.3448,5.3357,5.3027,5.2953,5.2935,5.2807,5.2788,5.2715,5.255,5.233,5.2092,5.1927,5.1762,5.1725,5.1707,5.1524,5.134,5.1212,5.1139,5.1285,5.1359,5.1267,5.1212,5.134,5.1395,5.1359,5.1395,5.1524,5.1505,5.5519,5.5519,5.5519,5.5519,5.5519,5.5501,5.5501,5.5491,5.5519,5.5464,5.5519,5.5519,5.5391,5.5483,5.5464,5.5501,5.5501,5.5473,5.5446,5.5446,5.5446,5.5409,5.5391,5.5336,5.5134,5.453,5.442,5.4401,5.4383,5.4328,5.4145,5.4255,5.4273,5.4163,5.4236,5.4291,5.42,5.4117,5.3915,5.3998,5.4255,5.4035,5.42,5.475,5.5179,5.5363,5.5391,5.5409,5.5501,5.5593,5.5611,5.5501,5.5336,5.5126,5.5163,5.5171,5.5585,5.5585,5.5456,5.5585,5.5721,5.5703,5.5629,5.5611,5.5593,5.5418,5.5263,5.5098,5.4915,5.4786,5.4475,5.475,5.4805,5.4703,5.5143,5.5253,5.497,5.4346,5.42,5.4255,5.4071,5.3925,5.4035,5.409,5.3998,5.3906,5.3833,5.3686,5.3357,5.3155,5.3173,5.3072,5.2972,5.2935,5.2807,5.2733,5.2477,5.2348,5.2147,5.2147,5.2165,5.2147,5.2019,5.1799,5.1762,5.1817,5.1799,5.167,5.1725,5.1964,5.1927,5.1744,5.189,5.2183,5.2073,5.5519,5.5519,5.5519,5.5519,5.5519,5.5519,5.5519,5.5519,5.5519,5.5519,5.5519,5.5519,5.5519,5.5519,5.5519,5.5519,5.5519,5.5519,5.5519,5.5519,5.5519,5.5519,5.5519,5.5519,5.5409,5.5281,5.5006,5.4805,5.4713,5.4493,5.4428,5.4346,5.4383,5.4383,5.4401,5.431,5.442,5.4456,5.4282,5.442,5.4621,5.4548,5.4511,5.5025,5.5409,5.5528,5.5556,5.5556,5.5684,5.6053,5.609,5.6402,5.6557,5.6245,5.6164,5.631,5.6384,5.6347,5.631,5.6439,5.6549,5.6512,5.6255,5.6072,5.5998,5.5768,5.5538,5.5428,5.5336,5.5226,5.486,5.5116,5.5336,5.5326,5.5326,5.5454,5.5318,5.4988,5.4676,5.475,5.4493,5.4273,5.4475,5.452,5.4392,5.431,5.4236,5.4035,5.3705,5.354,5.3485,5.3283,5.3091,5.3091,5.3054,5.3017,5.2925,5.287,5.276,5.2742,5.2779,5.2862,5.277,5.2385,5.2128,5.2055,5.2019,5.2037,5.2073,5.222,5.2128,5.2055,5.2238,5.244,5.2275,5.5519,5.5519,5.5519,5.5519,5.5519,5.5519,5.5519,5.5519,5.5519,5.5519,5.5519,5.5519,5.5519,5.5519,5.5519,5.5519,5.5519,5.5519,5.5519,5.5519,5.5519,5.5519,5.5519,5.5519,5.5519,5.5464,5.5299,5.5208,5.5208,5.5061,5.4868,5.4933,5.4933,5.4933,5.4933,5.4941,5.4915,5.4896,5.4768,5.4823,5.5226,5.5199,5.5401,5.5566,5.5731,5.5841,5.586,5.586,5.5951,5.6182,5.6384,5.6824,5.7099,5.7136,5.6897,5.7026,5.6945,5.6816,5.6816,5.6798,5.678,5.6751,5.6586,5.6384,5.6219,5.597,5.5786,5.5593,5.5491,5.5418,5.5244,5.5381,5.5501,5.5519,5.5519,5.5519,5.5483,5.5318,5.5226,5.5134,5.486,5.4768,5.496,5.496,5.4813,5.4731,5.464,5.4383,5.4044,5.3961,5.387,5.3576,5.3357,5.3292,5.3292,5.3311,5.3283,5.3292,5.3256,5.3256,5.3182,5.3173,5.3027,5.2733,5.255,5.2385,5.2532,5.265,5.2577,5.2513,5.2697,5.2788,5.2678,5.2623,5.2513,5.5519,5.5519,5.5519,5.5519,5.5519,5.5519,5.5519,5.5519,5.5519,5.5519,5.5519,5.5519,5.5519,5.5519,5.5519,5.5519,5.5519,5.5519,5.5519,5.5519,5.5519,5.5519,5.5519,5.5519,5.5519,5.5519,5.5454,5.5519,5.5464,5.5428,5.5501,5.5464,5.5509,5.5546,5.5454,5.5519,5.5611,5.5538,5.5354,5.5373,5.5758,5.6098,5.631,5.631,5.631,5.6292,5.6292,5.631,5.6384,5.6549,5.6798,5.7099,5.7448,5.7521,5.7521,5.7466,5.722,5.7092,5.7073,5.711,5.7154,5.7154,5.6989,5.6751,5.6494,5.6329,5.6035,5.5703,5.5509,5.5491,5.5464,5.5519,5.5519,5.5519,5.5519,5.5519,5.5519,5.5464,5.5446,5.5336,5.5153,5.5153,5.5271,5.5289,5.5143,5.5088,5.5025,5.4805,5.453,5.4438,5.4291,5.3925,5.3668,5.354,5.3522,5.3576,5.3613,5.365,5.3631,5.3631,5.3485,5.3357,5.321,5.3118,5.2935,5.2843,5.3072,5.3109,5.2925,5.2935,5.3338,5.3375,5.3008,5.2935,5.2935,5.5519,5.5519,5.5519,5.5519,5.5519,5.5519,5.5519,5.5519,5.5519,5.5519,5.5519,5.5519,5.5519,5.5519,5.5519,5.5519,5.5519,5.5519,5.5519,5.5519,5.5519,5.5519,5.5519,5.5519,5.5574,5.5593,5.5574,5.5519,5.5629,5.5629,5.5556,5.5611,5.586,5.5933,5.5648,5.5805,5.6108,5.609,5.6053,5.62,5.6512,5.6641,5.6714,5.6714,5.6714,5.6743,5.6714,5.6761,5.6842,5.7154,5.7264,5.7521,5.7852,5.7925,5.7925,5.7925,5.787,5.7852,5.776,5.7705,5.7705,5.7631,5.7503,5.7338,5.7026,5.6512,5.6174,5.6145,5.5758,5.5509,5.5519,5.5519,5.5519,5.5519,5.5519,5.5519,5.5519,5.5519,5.5519,5.5519,5.5318,5.5373,5.5464,5.5454,5.5454,5.5436,5.5363,5.5153,5.4951,5.4805,5.4676,5.431,5.4016,5.387,5.3815,5.387,5.3906,5.398,5.398,5.398,5.3851,5.3723,5.3668,5.3558,5.3375,5.321,5.321,5.3192,5.3146,5.3182,5.3283,5.3247,5.3127,5.3137,5.321,5.5519,5.5519,5.5519,5.5519,5.5519,5.5519,5.5519,5.5519,5.5519,5.5519,5.5519,5.5519,5.5519,5.5519,5.5519,5.5519,5.5519,5.5519,5.5519,5.5519,5.5519,5.5519,5.5519,5.5538,5.5593,5.5878,5.5933,5.6098,5.608,5.5988,5.5896,5.5915,5.6072,5.6127,5.5823,5.5794,5.597,5.6164,5.6413,5.6586,5.6816,5.7018,5.7136,5.7165,5.7136,5.7136,5.7165,5.7136,5.7191,5.7448,5.7576,5.7815,5.7943,5.7998,5.7998,5.7998,5.798,5.798,5.798,5.7998,5.7998,5.798,5.7815,5.765,5.7338,5.6714,5.6229,5.6211,5.5786,5.5556,5.5519,5.5519,5.5519,5.5519,5.5519,5.5519,5.5519,5.5519,5.5519,5.5519,5.5519,5.5519,5.5519,5.5491,5.5491,5.5473,5.5483,5.5373,5.5171,5.5006,5.486,5.4695,5.442,5.42,5.4163,5.4163,5.4181,5.4236,5.419,5.4218,5.42,5.4126,5.4071,5.4053,5.3943,5.3741,5.3503,5.3283,5.3182,5.3146,5.3109,5.3146,5.3164,5.3137,5.3192,5.5519,5.5519,5.5519,5.5519,5.5519,5.5519,5.5519,5.5519,5.5519,5.5519,5.5519,5.5519,5.5519,5.5519,5.5519,5.5519,5.5519,5.5519,5.5519,5.5519,5.5538,5.5593,5.5684,5.5739,5.5933,5.6329,5.6329,5.6457,5.6615,5.6615,5.6439,5.6247,5.6192,5.609,5.5988,5.6025,5.62,5.6586,5.6982,5.7147,5.7191,5.7411,5.7521,5.7558,5.7558,5.7558,5.7558,5.7558,5.7558,5.7631,5.7815,5.7962,5.7998,5.7998,5.7998,5.8035,5.8108,5.8127,5.8053,5.7998,5.7998,5.7998,5.798,5.7833,5.7558,5.6824,5.6376,5.6413,5.5794,5.5593,5.5519,5.5519,5.5519,5.5519,5.5519,5.5519,5.5519,5.5519,5.5519,5.5519,5.5519,5.5519,5.5519,5.5519,5.5519,5.5519,5.5519,5.5538,5.5428,5.5244,5.5171,5.5061,5.497,5.4768,5.4713,5.4658,5.4603,5.4548,5.453,5.4557,5.4676,5.4585,5.4475,5.4438,5.442,5.4163,5.3851,5.3522,5.3237,5.3164,5.3127,5.3219,5.3228,5.3247,5.3357,5.5519,5.5519,5.5519,5.5519,5.5519,5.5519,5.5519,5.5519,5.5519,5.5519,5.5519,5.5519,5.5519,5.5519,5.5519,5.5519,5.5519,5.5519,5.5519,5.5519,5.5556,5.5758,5.5951,5.6145,5.6347,5.6706,5.6751,5.6798,5.689,5.7118,5.6751,5.6339,5.642,5.6006,5.6025,5.6391,5.6722,5.7154,5.7521,5.776,5.7778,5.787,5.7888,5.7925,5.7925,5.7962,5.7943,5.7943,5.7907,5.7888,5.8017,5.7998,5.8017,5.8072,5.809,5.8053,5.8329,5.8274,5.809,5.8053,5.7998,5.7998,5.7943,5.787,5.7705,5.7165,5.6816,5.667,5.608,5.5666,5.5574,5.5519,5.5519,5.5519,5.5538,5.5611,5.5593,5.5509,5.5491,5.5519,5.5519,5.5519,5.5519,5.5519,5.5519,5.5519,5.5684,5.5721,5.5721,5.5593,5.5556,5.5501,5.5483,5.5409,5.5391,5.5299,5.5098,5.5061,5.5079,5.5171,5.5299,5.5134,5.486,5.4805,5.4768,5.4493,5.4255,5.4016,5.3705,5.3292,5.3201,5.3448,5.365,5.376,5.3906,5.5519,5.5519,5.5519,5.5519,5.5519,5.5519,5.5519,5.5519,5.5519,5.5519,5.5519,5.5519,5.5519,5.5519,5.5519,5.5519,5.5519,5.5519,5.5538,5.5629,5.5786,5.6035,5.6266,5.6541,5.6751,5.7081,5.7173,5.7338,5.7558,5.7503,5.7283,5.7008,5.6897,5.6879,5.6887,5.6897,5.7191,5.7448,5.7778,5.7998,5.7998,5.7998,5.7998,5.7998,5.7998,5.7998,5.8017,5.8274,5.8182,5.8127,5.8237,5.8182,5.8127,5.8237,5.82,5.809,5.842,5.8347,5.8145,5.8145,5.8163,5.7686,5.7631,5.765,5.7668,5.7129,5.7037,5.6806,5.6384,5.5841,5.5896,5.5684,5.5519,5.5519,5.5556,5.5648,5.5648,5.5574,5.5684,5.5739,5.5611,5.5519,5.5519,5.5519,5.5519,5.5538,5.5739,5.5915,5.5933,5.6006,5.6006,5.5951,5.5933,5.5758,5.5721,5.5629,5.5538,5.5538,5.5556,5.5519,5.5519,5.5501,5.5263,5.5208,5.5116,5.4915,5.4731,5.4566,5.4236,5.3796,5.376,5.3925,5.4108,5.4255,5.4383,5.5519,5.5519,5.5519,5.5519,5.5519,5.5519,5.5519,5.5519,5.5519,5.5519,5.5519,5.5519,5.5519,5.5519,5.5519,5.5519,5.5519,5.5538,5.5611,5.5786,5.6035,5.6339,5.6596,5.6861,5.7173,5.7485,5.7595,5.7741,5.7888,5.7705,5.7595,5.7558,5.7558,5.7448,5.7173,5.7356,5.7448,5.765,5.7815,5.7998,5.7998,5.7998,5.7998,5.7998,5.7998,5.7998,5.8053,5.82,5.831,5.8255,5.8292,5.8414,5.8384,5.8384,5.8329,5.8347,5.8365,5.8402,5.8219,5.8163,5.8152,5.776,5.7668,5.7576,5.7356,5.7026,5.6927,5.6806,5.6347,5.6017,5.6006,5.5666,5.5519,5.5519,5.5519,5.5593,5.5629,5.5629,5.586,5.6006,5.5805,5.5574,5.5805,5.5805,5.5684,5.5703,5.5878,5.6043,5.6127,5.6274,5.6494,5.6439,5.6365,5.6171,5.5988,5.5933,5.586,5.5758,5.5721,5.5556,5.5519,5.5556,5.5556,5.5409,5.5336,5.5318,5.5208,5.5025,5.4695,5.43,5.4365,5.442,5.453,5.4676,5.4786,5.5519,5.5519,5.5519,5.5519,5.5519,5.5519,5.5519,5.5519,5.5519,5.5519,5.5519,5.5519,5.5519,5.5519,5.5519,5.5519,5.5528,5.5574,5.5721,5.6072,5.6347,5.6714,5.7081,5.7393,5.754,5.7888,5.7925,5.7907,5.7998,5.7925,5.7907,5.7925,5.7833,5.7661,5.6982,5.7228,5.7595,5.7925,5.798,5.7998,5.7998,5.7998,5.7998,5.7998,5.7998,5.7998,5.8035,5.8163,5.8274,5.8329,5.8237,5.8402,5.8751,5.8347,5.8292,5.8445,5.8519,5.839,5.8072,5.8035,5.7962,5.7833,5.7705,5.7668,5.7393,5.7063,5.6816,5.6806,5.6135,5.5739,5.5582,5.5528,5.5509,5.5538,5.5538,5.5721,5.5823,5.5786,5.5988,5.6329,5.597,5.5666,5.5998,5.6145,5.5951,5.5933,5.6053,5.6182,5.631,5.6567,5.6842,5.6861,5.6769,5.6604,5.642,5.6274,5.6182,5.609,5.5988,5.5915,5.5794,5.5831,5.5776,5.5611,5.5574,5.5593,5.5556,5.5464,5.5116,5.4786,5.4823,5.4896,5.4988,5.5061,5.5134,5.5519,5.5519,5.5519,5.5519,5.5519,5.5519,5.5519,5.5519,5.5519,5.5519,5.5519,5.5519,5.5519,5.5519,5.5519,5.5538,5.5574,5.5896,5.6145,5.6266,5.6706,5.7063,5.743,5.7668,5.7852,5.7962,5.7998,5.7998,5.7998,5.7998,5.7998,5.7998,5.798,5.7881,5.7686,5.776,5.7888,5.798,5.7998,5.7998,5.7998,5.8017,5.8017,5.8017,5.8035,5.8017,5.8017,5.8163,5.8292,5.8329,5.8219,5.8439,5.8622,5.8237,5.8329,5.8384,5.8384,5.842,5.8127,5.798,5.7852,5.7741,5.765,5.7613,5.7374,5.7301,5.7118,5.6916,5.6494,5.619,5.6043,5.5684,5.5546,5.5611,5.575,5.6164,5.6292,5.6145,5.62,5.6586,5.652,5.6281,5.642,5.6559,5.6391,5.6336,5.6457,5.653,5.6659,5.6952,5.7228,5.7228,5.7173,5.6989,5.6872,5.6714,5.6633,5.6549,5.653,5.6512,5.642,5.6208,5.6135,5.6043,5.597,5.5896,5.5841,5.5721,5.5483,5.5281,5.5373,5.5299,5.5263,5.5318,5.5391,5.5519,5.5519,5.5519,5.5519,5.5519,5.5519,5.5519,5.5519,5.5519,5.5519,5.5519,5.5519,5.5519,5.5519,5.5519,5.5666,5.5739,5.6035,5.653,5.6604,5.7099,5.7448,5.7668,5.7852,5.7943,5.7998,5.7998,5.7998,5.7998,5.7998,5.7998,5.7998,5.7998,5.7962,5.7943,5.7962,5.798,5.7998,5.7998,5.809,5.8182,5.8237,5.8219,5.8237,5.8219,5.8163,5.8127,5.82,5.8329,5.8274,5.8292,5.8439,5.8402,5.8329,5.8384,5.831,5.8237,5.8274,5.8053,5.7998,5.787,5.7723,5.7613,5.754,5.7448,5.7374,5.7246,5.7081,5.6963,5.6725,5.6365,5.5923,5.5831,5.5896,5.6043,5.6486,5.6633,5.6439,5.6567,5.6934,5.6989,5.6872,5.6798,5.689,5.6879,5.6879,5.6897,5.6934,5.6971,5.7209,5.7485,5.7558,5.7576,5.7466,5.7301,5.7136,5.7044,5.7008,5.6952,5.6927,5.6761,5.653,5.6494,5.6475,5.6384,5.6263,5.6116,5.5941,5.5933,5.5951,5.6025,5.5878,5.5593,5.5574,5.5629,5.5519,5.5519,5.5519,5.5519,5.5519,5.5519,5.5519,5.5519,5.5519,5.5519,5.5519,5.5519,5.5519,5.5519,5.5519,5.5721,5.608,5.62,5.6677,5.7154,5.743,5.7686,5.7852,5.798,5.7998,5.7998,5.7998,5.7998,5.7998,5.7998,5.7998,5.7998,5.7998,5.7998,5.7998,5.7998,5.7998,5.7998,5.8017,5.8127,5.8274,5.8475,5.8475,5.8494,5.8464,5.8365,5.8237,5.8108,5.8255,5.8255,5.8219,5.8549,5.8604,5.8384,5.8384,5.8329,5.8182,5.8072,5.8017,5.7998,5.7998,5.7888,5.7925,5.776,5.7613,5.7521,5.7393,5.7173,5.6971,5.689,5.6706,5.6494,5.6329,5.6365,5.6402,5.6651,5.6816,5.6879,5.7044,5.7173,5.7118,5.7044,5.7099,5.7173,5.7301,5.7246,5.7246,5.7301,5.7319,5.7264,5.7558,5.7852,5.787,5.7925,5.776,5.7521,5.7466,5.7411,5.7257,5.7165,5.7,5.6945,5.6934,5.6916,5.6806,5.6659,5.6457,5.6494,5.6604,5.6622,5.6494,5.6347,5.6043,5.5868,5.5849,5.5519,5.5519,5.5519,5.5519,5.5519,5.5519,5.5519,5.5519,5.5519,5.5519,5.5519,5.5519,5.5519,5.5519,5.5519,5.5805,5.6164,5.6512,5.6916,5.7301,5.7668,5.7852,5.7962,5.7998,5.7998,5.7998,5.7998,5.7998,5.7998,5.7998,5.7998,5.7998,5.7998,5.7998,5.7998,5.7998,5.7998,5.7998,5.7998,5.8127,5.8292,5.8475,5.8549,5.8592,5.8592,5.8494,5.8365,5.809,5.8163,5.809,5.8072,5.8219,5.82,5.8108,5.8108,5.8127,5.8053,5.7998,5.7998,5.7998,5.7998,5.7998,5.7998,5.798,5.7852,5.7741,5.7595,5.7374,5.7209,5.7173,5.7055,5.6842,5.6769,5.6835,5.6861,5.6989,5.7154,5.7264,5.743,5.754,5.7466,5.7466,5.7503,5.7558,5.765,5.7595,5.7576,5.7631,5.7595,5.7503,5.7595,5.7907,5.7998,5.7998,5.7998,5.7797,5.7815,5.7797,5.7595,5.7485,5.754,5.7503,5.7448,5.7319,5.7154,5.6952,5.6761,5.6872,5.7073,5.6872,5.6714,5.6622,5.6494,5.6336,5.6245,5.5519,5.5519,5.5519,5.5519,5.5519,5.5519,5.5519,5.5519,5.5519,5.5519,5.5519,5.5519,5.5519,5.5519,5.5556,5.586,5.6468,5.6688,5.7063,5.765,5.787,5.7943,5.7998,5.7998,5.7998,5.7998,5.7998,5.7998,5.7998,5.7998,5.7998,5.7998,5.7998,5.7998,5.7998,5.7998,5.7998,5.7998,5.8017,5.809,5.8255,5.8439,5.8549,5.8604,5.8592,5.8537,5.8402,5.809,5.8017,5.7998,5.7998,5.7998,5.8017,5.7998,5.7998,5.8017,5.8017,5.7998,5.7998,5.7998,5.7998,5.7998,5.7998,5.7998,5.798,5.7907,5.7815,5.7686,5.7631,5.7558,5.7338,5.7154,5.7239,5.7294,5.7356,5.7466,5.754,5.7613,5.776,5.7925,5.7943,5.7925,5.7962,5.7998,5.798,5.787,5.7797,5.7815,5.7723,5.7558,5.7668,5.7925,5.798,5.7998,5.7998,5.7998,5.7962,5.7943,5.7888,5.7852,5.7998,5.7943,5.776,5.7613,5.7485,5.7319,5.7228,5.7283,5.7393,5.7209,5.7154,5.7209,5.7081,5.6806,5.6732,5.5519,5.5519,5.5519,5.5519,5.5519,5.5519,5.5519,5.5519,5.5519,5.5519,5.5519,5.5519,5.5519,5.5519,5.5538,5.5978,5.6494,5.6798,5.7209,5.7962,5.7962,5.7998,5.7998,5.7998,5.7998,5.7998,5.7998,5.7998,5.7998,5.7998,5.7998,5.7998,5.7998,5.7998,5.7998,5.7998,5.7998,5.7998,5.8017,5.809,5.8365,5.8549,5.8604,5.8585,5.8567,5.8494,5.8182,5.8035,5.7998,5.7998,5.7998,5.7998,5.7998,5.7998,5.7998,5.7998,5.7998,5.7998,5.7998,5.7998,5.7998,5.7998,5.7998,5.7998,5.7998,5.7998,5.7907,5.7888,5.7833,5.7815,5.765,5.754,5.754,5.7595,5.765,5.7723,5.7778,5.7833,5.7888,5.7998,5.7998,5.7998,5.7998,5.7998,5.7998,5.798,5.798,5.7962,5.787,5.7686,5.776,5.7943,5.798,5.7998,5.7998,5.7998,5.7998,5.7998,5.7998,5.7998,5.7998,5.7998,5.7998,5.7852,5.7705,5.7833,5.7815,5.7778,5.7723,5.7741,5.7741,5.7888,5.7705,5.7301,5.7228,5.5519,5.5519,5.5519,5.5519,5.5519,5.5519,5.5519,5.5519,5.5519,5.5519,5.5519,5.5519,5.5519,5.5519,5.5491,5.5959,5.6622,5.6853,5.7312,5.7778,5.7998,5.7998,5.7998,5.7998,5.7998,5.7998,5.7998,5.7998,5.7998,5.7998,5.7998,5.7998,5.7998,5.7998,5.7998,5.7998,5.7998,5.7998,5.8017,5.8035,5.8182,5.8457,5.8604,5.8585,5.8549,5.853,5.8292,5.8127,5.8053,5.7998,5.7998,5.7998,5.7998,5.7998,5.7998,5.7998,5.7998,5.7998,5.7998,5.7998,5.7998,5.7998,5.7998,5.7998,5.7998,5.7998,5.7998,5.7998,5.7998,5.7998,5.798,5.7888,5.7833,5.787,5.7888,5.7943,5.798,5.7998,5.7998,5.7998,5.7998,5.7998,5.7998,5.7998,5.7998,5.7998,5.7998,5.798,5.798,5.787,5.7852,5.798,5.798,5.7998,5.7998,5.7998,5.7998,5.7998,5.7998,5.7998,5.7998,5.7998,5.7998,5.7998,5.7962,5.7998,5.7998,5.7962,5.7962,5.7998,5.7998,5.7998,5.7998,5.7686,5.7705,5.4988,5.5006,5.5143,5.5354,5.5501,5.5519,5.5519,5.5519,5.5519,5.5519,5.5519,5.5519,5.5519,5.5519,5.5491,5.5988,5.6688,5.6798,5.7301,5.7778,5.7998,5.7998,5.7998,5.7998,5.7998,5.7998,5.7998,5.7998,5.7998,5.7998,5.7998,5.7998,5.7998,5.7998,5.7998,5.7998,5.7998,5.7998,5.7998,5.7998,5.7998,5.8219,5.8347,5.8329,5.8347,5.8347,5.8274,5.809,5.8053,5.7998,5.7998,5.7998,5.7998,5.7998,5.7998,5.7998,5.7998,5.7998,5.7998,5.7998,5.7998,5.7998,5.7998,5.7998,5.7998,5.7998,5.7998,5.7998,5.7998,5.7998,5.7998,5.7943,5.7925,5.7943,5.7962,5.798,5.7998,5.7998,5.7998,5.7998,5.7998,5.7998,5.7998,5.7998,5.7998,5.7998,5.7998,5.7998,5.7998,5.7998,5.7998,5.7998,5.7998,5.7998,5.7998,5.7998,5.7998,5.7998,5.7998,5.7998,5.7998,5.7998,5.7998,5.7998,5.7998,5.7998,5.7998,5.7998,5.7998,5.7998,5.7998,5.7998,5.8017,5.8035,5.798,5.4365,5.4438,5.4768,5.5106,5.5483,5.5519,5.5519,5.5519,5.5519,5.5519,5.5519,5.5519,5.5519,5.5519,5.5556,5.6135,5.6567,5.6761,5.7283,5.7815,5.798,5.7998,5.7998,5.7998,5.7998,5.7998,5.7998,5.7998,5.7998,5.7998,5.7998,5.7998,5.7998,5.7998,5.7998,5.7998,5.7998,5.7998,5.7998,5.7998,5.7998,5.7998,5.8035,5.8017,5.7998,5.7998,5.7998,5.7998,5.7998,5.7998,5.7998,5.7998,5.7998,5.7998,5.7998,5.7998,5.7998,5.7998,5.7998,5.7998,5.7998,5.7998,5.7998,5.7998,5.7998,5.7998,5.7998,5.7998,5.7998,5.7998,5.7998,5.7998,5.7998,5.7998,5.7998,5.7998,5.7998,5.7998,5.7998,5.7998,5.7998,5.7998,5.7998,5.7998,5.7998,5.7998,5.7998,5.7998,5.7998,5.7998,5.7998,5.7998,5.7998,5.7998,5.7998,5.8035,5.8035,5.7998,5.7998,5.7998,5.7998,5.7998,5.7998,5.7998,5.7998,5.7998,5.7998,5.7998,5.7998,5.8072,5.8152,5.8237,5.8219,5.8219,5.809,5.4493,5.4786,5.486,5.5134,5.5483,5.5519,5.5519,5.5519,5.5519,5.5519,5.5519,5.5519,5.5519,5.5519,5.5519,5.597,5.6615,5.6761,5.7283,5.7888,5.798,5.7998,5.7998,5.7998,5.7998,5.7998,5.7998,5.7998,5.7998,5.7998,5.7998,5.7998,5.7998,5.7998,5.7998,5.7998,5.7998,5.7998,5.7998,5.7998,5.7998,5.7998,5.7998,5.7998,5.7998,5.7998,5.7998,5.7998,5.7998,5.7998,5.7998,5.7998,5.7998,5.7998,5.7998,5.7998,5.7998,5.7998,5.7998,5.7998,5.7998,5.7998,5.7998,5.7998,5.7998,5.7998,5.7998,5.7998,5.7998,5.7998,5.7998,5.7998,5.7998,5.7998,5.7998,5.7998,5.7998,5.7998,5.7998,5.7998,5.7998,5.7998,5.7998,5.7998,5.7998,5.7998,5.7998,5.7998,5.7998,5.7998,5.8017,5.8053,5.8072,5.7998,5.7998,5.809,5.809,5.8035,5.809,5.8237,5.8237,5.8017,5.7998,5.8097,5.8053,5.7998,5.7998,5.7998,5.8182,5.8292,5.8457,5.853,5.8494,5.8457,5.8384]}]]